           , 2.000,  2.148,  2.295,  2.443,  2.591,  2.739,  2.886,  3.034,  3.182,  3.329,  3.477,  3.625,  3.773,  3.920,  4.068,  4.216,  4.363,  4.511,  4.659,  4.807,  4.954,  5.102,  5.250,  5.398,  5.545,  5.693,  5.841,  5.988,  6.136,  6.284,  6.432,  6.579,  6.727,  6.875,  7.022,  7.170,  7.318,  7.466,  7.613,  7.761,  7.909,  8.056,  8.204,  8.352,  8.500,  8.647,  8.795,  8.943,  9.091,  9.238,  9.386,  9.534,  9.681,  9.829,  9.977, 10.125, 10.272, 10.420, 10.568, 10.715, 10.863, 11.011, 11.159, 11.306, 11.454, 11.602, 11.750, 11.897, 12.045, 12.193, 12.340, 12.488, 12.636, 12.784, 12.931, 13.079, 13.227, 13.374, 13.522, 13.670, 13.818, 13.965, 14.113, 14.261, 14.409, 14.556, 14.704, 14.852, 14.999, 15.147, 15.295, 15.443, 15.590, 15.738, 15.886, 16.033, 16.181, 16.329, 16.477, 16.624, 16.772, 16.920, 17.067, 17.215, 17.363, 17.511, 17.658, 17.806, 17.954, 18.102, 18.249, 18.397, 18.545, 18.692, 18.840, 18.988, 19.136, 19.283, 19.431, 19.579
2020/01/31 00:05,  -12.8,  -12.7,  -12.9,  -12.2,  -11.8,  -11.1,  -10.4,   -8.1,   -6.2,   -4.6,   -4.9,   -4.6,   -4.7,   -4.8,   -3.7,   -3.5,   -4.1,   -4.2,   -5.0,   -4.1,   -3.1,   -2.4,   -1.3,   -0.7,    0.8,    1.0,    1.5,    0.5,    0.5,    0.3,    0.8,    1.7,    3.8,    3.4,    3.5,    4.7,    5.8,    4.9,    2.9,    2.1,    4.1,    4.7,    3.7,    3.2,    3.3,    4.4,    3.6,    3.0,    4.0,    5.2,    3.3,    4.6,    6.3,    3.8,    6.5,    8.1,    8.9,    7.8,    4.9,    5.8,    7.2,    7.2,    8.2,    7.7,    8.0,    8.5,    9.2,    8.4,    8.5,    7.2,    5.8,    5.1,    4.9,    4.5,    5.6,    9.4,   10.5,    6.9,    8.6,    9.4,    6.2,    5.5,    5.5,    2.1,    1.8,    3.9,    3.6,    2.7,    3.7,    3.8,    0.8,    3.1,    5.8,    6.8,    3.0,    3.3,    1.5,    5.7,   10.1,    9.1,   11.6,    8.6,   10.1,   12.7,   13.7,   10.5,    9.9,    6.8,    7.8,   10.7,    9.1,    9.8,    9.9,    7.5,    7.0,    9.1,    8.2,    9.4,   11.5,  999.0
2020/01/31 00:15,  -12.1,  -12.1,  -11.8,  -11.8,  -11.4,  -11.4,   -9.8,   -9.7,   -7.5,   -6.2,   -4.7,   -5.3,   -4.7,   -4.0,   -3.4,   -3.2,   -3.6,   -4.4,   -4.9,   -4.3,   -3.7,   -2.3,   -1.5,   -1.2,   -0.1,   -0.3,   -1.0,   -1.2,   -0.9,   -0.2,   -0.2,    0.6,    0.9,    1.9,    0.9,    2.3,    3.6,    4.1,    2.4,    1.5,    3.4,    4.3,    2.4,    2.8,    3.1,    3.7,    4.6,    3.3,    4.0,    4.6,    2.8,    4.2,    6.1,    5.1,    7.1,    8.9,   10.9,    9.5,    5.5,    6.8,    9.1,    8.4,    9.6,    8.6,    8.0,    9.2,   10.2,    7.9,    7.0,    7.2,    6.3,    5.2,    3.8,    4.7,    6.0,    8.3,    9.1,    9.1,    8.7,    9.3,    7.8,    3.0,    4.5,    4.6,    4.4,    4.9,    4.8,    3.8,    5.1,    3.8,  999.0,    4.1,    4.9,    6.5,    4.6,    2.6,    3.1,    4.1,    6.8,    8.9,    9.8,   10.0,   10.3,   12.0,   11.6,   12.0,   10.0,    7.0,    6.2,  999.0,  999.0,    8.6,    6.3,    6.6,  999.0,  999.0,  999.0,    9.4,   10.4,   13.4
2020/01/31 00:25,  -12.5,  -11.7,  -11.7,  -12.5,  -11.2,  -11.4,  -10.1,   -6.9,   -6.0,   -4.8,   -4.3,   -4.2,   -4.1,   -2.6,   -2.4,   -2.4,   -3.5,   -4.1,   -4.7,   -4.2,   -3.7,   -2.4,   -1.1,   -1.4,   -0.9,    0.0,   -1.5,   -1.1,   -0.5,    0.8,    0.5,    1.6,    2.8,    3.2,    3.4,    4.2,    5.3,    5.5,    4.7,    3.7,    5.2,    6.9,    4.7,    4.5,    5.0,    5.1,    4.6,    3.3,    3.7,    4.2,    3.6,    4.8,    6.2,    4.9,    7.7,    9.3,   10.9,   10.7,    6.8,    7.3,    8.5,    8.5,   10.3,    8.6,    8.6,    9.6,   10.5,    7.8,    8.0,    7.6,    6.9,    6.2,    4.7,    5.7,    7.5,    9.1,   10.4,    9.9,    9.6,   11.4,    7.8,    6.3,    3.4,    5.9,    5.2,    5.8,    3.6,    5.3,    4.9,    5.6,    3.2,    3.8,    5.9,    6.7,    6.1,    3.3,    2.1,    6.6,    7.3,    9.0,   12.1,   12.8,   12.8,   11.8,   13.3,   13.7,   13.0,    9.3,    7.1,    8.4,    9.3,    4.3,    6.4,  999.0,  999.0,  999.0,  999.0,   11.8,   11.8,   14.0
2020/01/31 00:35,  -12.9,  -11.3,  -10.3,   -9.6,   -8.9,   -7.8,   -5.4,   -3.8,   -4.4,   -4.7,   -4.7,   -4.6,   -4.2,   -3.3,   -2.9,   -2.8,   -3.6,   -3.1,   -3.4,   -4.1,   -3.5,   -1.0,    0.1,    0.6,    0.7,    1.9,    2.2,    0.4,   -0.9,   -0.9,   -0.1,   -0.4,   -1.7,   -1.5,   -2.4,   -1.2,    0.3,    2.0,    2.2,    2.0,    2.2,    4.9,    2.6,    1.5,    2.8,    4.0,    4.1,    3.1,    4.7,    6.1,    6.0,    7.2,    8.0,    8.1,    9.1,   10.3,   12.1,    9.8,    7.5,    8.9,    9.7,   10.7,   11.7,   10.2,   10.1,   11.2,   12.6,   10.4,   11.2,    9.4,    8.8,    7.7,    6.0,    7.3,    8.5,   10.9,   11.1,   11.5,   12.4,    9.7,    8.5,    7.9,    6.2,    3.5,    4.4,    4.1,    3.0,    2.5,    4.0,    5.6,    4.3,    5.6,    7.4,    7.5,    7.6,    3.8,    3.5,    4.5,    7.1,    9.3,   11.7,   13.7,   10.1,   10.0,   11.8,   13.5,   11.4,   13.1,    6.3,    7.2,  999.0,    6.0,    6.8,    7.6,    6.5,  999.0,  999.0,   11.4,  999.0,   11.3
2020/01/31 00:45,  -12.4,  -11.1,  -10.4,  -10.6,   -9.2,   -7.6,   -5.2,   -3.9,   -2.9,   -3.5,   -3.8,   -4.1,   -3.5,   -3.8,   -3.1,   -3.1,   -4.2,   -4.5,   -3.0,   -1.8,   -2.0,   -1.2,    0.5,    0.7,    0.2,    0.1,    0.4,   -0.1,    0.3,    0.2,    0.0,   -0.5,    0.9,    0.2,   -2.8,   -1.0,    2.0,    4.0,    5.2,    4.3,    5.3,    5.1,    2.5,    2.5,    4.8,    5.4,    5.6,    4.9,    6.3,    6.9,    6.2,    7.3,    7.5,    6.7,    7.9,    9.5,   10.9,   11.3,    7.5,    8.0,   10.4,   10.8,   12.1,   12.0,   11.9,   12.8,   11.9,   11.7,   11.1,   10.4,    9.6,    8.9,    7.3,    7.4,    8.9,   11.9,   11.8,   10.9,   11.3,    6.2,    9.0,    7.1,    4.8,    3.2,    3.9,    4.7,    3.1,    2.0,    3.6,    4.6,    4.0,    5.7,    5.2,    8.2,    4.9,    3.6,    1.3,    2.9,    5.0,    7.7,   10.2,   11.0,    9.0,    9.7,   10.3,   10.1,   10.5,    8.2,    0.8,    3.3,  999.0,    5.3,    4.2,    5.1,  999.0,  999.0,  999.0,   10.6,   10.3,    8.9
2020/01/31 00:55,  -11.4,  -11.0,  -10.1,  -10.2,   -8.5,   -7.1,   -4.9,   -3.4,   -3.7,   -3.0,   -2.9,   -2.9,   -3.7,   -3.5,   -3.5,   -3.3,   -3.8,   -3.7,   -3.7,   -2.9,   -2.4,   -1.7,    0.6,   -0.6,   -1.1,   -1.5,   -1.8,   -2.9,   -3.1,   -1.6,   -0.6,   -0.7,   -1.1,   -6.5,   -4.1,   -1.6,    1.5,    3.5,    2.3,    1.6,    2.3,    1.9,    0.4,   -0.3,    2.4,    3.1,    3.3,    4.1,    5.4,    6.3,    4.8,    6.3,    7.3,    5.8,    6.7,    7.7,    8.8,    9.4,    6.5,    6.9,    9.4,   10.5,   10.1,   10.2,    9.5,   10.8,   10.5,    9.8,   10.0,    9.4,    8.0,    7.0,    5.2,    6.5,    8.3,   10.4,    9.8,    9.8,   11.0,   10.5,    8.8,    8.8,    4.7,    5.1,    5.1,    5.3,    4.5,    2.3,    5.3,    5.4,    3.9,    5.5,    5.8,    9.4,    8.0,    2.7,    4.4,    3.2,    7.2,    7.3,    9.9,   11.1,    9.6,    7.7,   10.6,   10.6,   10.2,    7.4,    3.2,    3.4,    5.9,    2.8,    2.9,    6.5,    9.3,    8.5,  999.0,    9.0,   10.1,   10.1
2020/01/31 01:05,  -12.1,  -11.2,   -9.5,   -7.4,   -6.4,   -5.1,   -3.2,   -3.2,   -3.1,   -3.1,   -3.1,   -1.4,   -1.8,   -1.8,   -2.0,   -2.9,   -2.9,   -3.3,   -3.2,   -2.9,   -2.7,   -2.1,   -0.3,   -0.6,   -0.9,   -1.5,   -0.9,   -1.3,   -1.9,   -1.5,   -2.5,   -2.5,   -4.0,   -7.3,   -6.4,   -2.8,    1.2,    2.5,    1.8,   -0.3,   -0.5,    1.0,   -1.2,   -0.6,    0.8,    2.3,    2.4,    2.7,    4.4,    5.0,    4.3,    5.2,    6.1,    5.2,    6.0,    6.7,    7.3,    8.1,    5.7,    6.0,    8.8,    9.5,    9.2,    9.1,    8.9,    9.5,    8.7,    9.1,    9.1,    7.7,    7.1,    6.1,    5.2,    6.4,    8.7,   10.4,    8.5,    9.1,   10.7,    9.2,    9.2,    8.6,    6.0,    6.8,    6.7,    7.5,    4.5,    5.5,    7.6,    6.9,    4.2,    5.5,    6.3,    8.2,    8.8,    9.0,    2.6,    3.1,    4.8,    4.1,  999.0,    7.2,    8.5,    8.3,    9.5,    9.0,    8.4,    8.5,    4.3,    3.3,    5.3,    4.8,    4.6,    5.9,    8.6,    7.9,  999.0,    7.8,    7.6,    9.2
2020/01/31 01:15,  -13.9,  -12.9,  -10.2,   -8.9,   -7.8,   -5.8,   -4.0,   -2.9,   -2.8,   -4.2,   -3.3,   -3.5,   -3.5,   -1.8,   -2.7,   -2.8,   -3.1,   -3.2,   -2.4,   -2.4,   -2.6,   -1.4,   -0.4,   -0.7,   -1.6,   -0.9,   -1.1,   -1.4,   -2.2,   -1.3,   -1.1,   -0.8,   -3.0,   -5.1,   -4.7,   -1.7,    1.2,    1.2,    0.6,   -0.3,    0.5,    1.5,   -0.8,    0.3,    1.9,    2.7,    2.6,    2.7,    3.4,    4.2,    3.8,    4.6,    6.2,    6.0,    6.5,    7.4,    8.5,    9.0,    8.0,    8.5,   10.4,   11.4,   11.3,   10.9,   11.0,   10.4,   10.8,   11.3,   10.4,    8.1,    8.2,    7.3,    7.1,    7.3,    9.6,   10.8,   10.6,    9.9,   10.4,   10.2,    9.6,    9.3,    7.0,    6.4,    7.4,    7.3,    7.4,    7.6,    9.3,    8.0,    7.9,    8.1,   10.3,   12.0,   10.2,    9.9,    4.9,    6.3,    6.7,    5.6,    8.2,   10.6,   12.6,   12.7,   13.3,   13.5,   12.6,   10.7,    8.2,    3.8,    4.1,    4.8,    4.4,    5.3,    7.9,  999.0,  999.0,    8.1,    7.6,    6.8
2020/01/31 01:25,  -13.6,  -12.5,  -11.1,   -8.9,   -7.8,   -6.4,   -5.7,   -5.9,   -6.7,   -5.8,   -4.2,   -3.2,   -2.3,   -1.4,   -0.5,   -1.1,   -1.4,   -1.1,   -0.5,   -1.1,   -0.8,   -0.8,    0.6,    1.9,    1.2,    1.4,    1.3,    0.6,   -0.5,   -1.6,   -1.7,   -3.7,   -7.0,   -7.9,   -6.0,   -2.9,    0.3,    0.0,    0.7,    0.4,   -0.4,    0.3,   -0.5,    1.3,    1.9,    2.4,    3.7,    2.7,    3.6,    5.4,    4.3,    5.2,    7.3,    6.6,    7.2,    8.1,   10.1,    9.6,    7.7,    9.1,   10.3,   10.8,   10.9,   10.2,   10.2,    8.8,    9.1,    9.9,    9.6,    7.5,    7.4,    6.5,    5.5,    6.8,    7.6,   10.6,   11.4,    9.6,   10.2,    9.6,    9.7,    8.7,    6.5,    8.6,    6.9,    6.4,    6.5,    5.4,    7.7,    7.7,    7.4,    9.0,   11.8,   13.5,   14.7,  999.0,    4.8,    5.8,    5.9,    6.2,    7.5,   11.0,   12.7,   12.6,   14.6,   15.2,   13.3,   11.6,   13.5,    6.1,    6.8,    4.0,    4.0,    3.9,    6.1,  999.0,  999.0,  999.0,    8.1,    9.5
2020/01/31 01:35,  -12.6,  -11.6,  -10.0,   -7.6,   -6.4,   -5.3,   -5.6,   -5.2,   -5.0,   -4.7,   -3.2,   -2.4,   -2.0,   -0.9,   -1.0,   -0.6,   -1.2,   -0.9,   -1.1,   -1.6,   -2.2,   -1.8,   -0.9,   -0.5,   -1.1,   -0.9,   -0.3,   -1.1,   -1.1,   -2.4,   -1.6,   -2.9,   -4.6,   -7.1,   -6.6,   -4.0,   -1.3,    0.3,    0.4,    0.3,   -1.6,   -2.1,   -0.7,    0.6,    1.1,    2.1,    3.0,    2.9,    3.8,    4.6,    3.6,    3.6,    5.4,    4.7,    6.5,    6.9,    8.3,    6.9,    6.6,    7.4,    8.7,    9.2,    9.3,    8.5,    7.2,    6.7,    7.3,    8.1,    6.9,    6.5,    6.8,    6.7,    5.1,    4.8,    6.2,    9.4,    9.9,    8.5,    7.6,    8.9,    7.5,    6.3,    6.4,    8.5,    7.9,    6.7,    6.4,    5.6,    8.1,    6.6,    7.0,    9.4,   11.1,   10.6,   11.0,  999.0,    4.3,    3.5,    3.3,    2.8,    3.8,    9.3,   12.4,   11.6,   12.4,   13.4,   11.4,   11.4,    5.4,    2.7,    3.3,    3.9,    2.7,    3.4,    7.1,  999.0,  999.0,  999.0,    8.0,    8.6
2020/01/31 01:45,  -13.3,  -10.3,   -8.3,   -6.5,   -5.6,   -4.9,   -5.0,   -4.6,   -4.8,   -5.3,   -4.2,   -3.8,   -2.2,   -1.3,   -0.7,   -1.3,   -1.2,   -0.6,   -1.7,   -2.1,   -2.7,   -2.8,   -1.5,   -0.4,    0.8,    0.1,   -0.4,   -0.3,   -2.4,   -3.9,   -5.5,   -7.5,   -8.9,   -8.9,   -8.0,   -5.0,   -3.1,   -0.7,   -1.3,   -3.8,   -5.7,   -6.3,   -5.3,   -3.0,    0.8,    1.0,    1.3,    0.6,    1.6,    2.6,    2.1,    2.8,    4.9,    4.6,    6.7,    7.1,    8.1,    7.7,    6.7,    7.1,    7.9,    8.5,    8.4,    7.4,    6.0,    6.7,    6.7,    6.7,    6.9,    5.7,    6.1,    5.0,    5.1,    5.4,    7.6,    9.2,    9.7,    8.0,    8.1,    8.8,    8.6,    6.5,    6.8,    8.4,    8.3,    5.4,    8.1,    2.1,    7.7,  999.0,    7.8,   10.5,   11.7,   10.7,   12.2,  999.0,  999.0,    3.6,    2.9,    4.7,    3.7,    9.9,   13.4,   12.8,   13.0,   14.0,   11.9,   12.3,   11.2,    3.1,    2.8,    4.3,    3.8,    3.8,    8.5,  999.0,  999.0,    9.2,    7.2,    7.5
2020/01/31 01:55,  -10.9,   -9.4,   -6.7,   -5.1,   -3.7,   -2.9,   -4.1,   -3.6,   -4.4,   -4.4,   -3.0,   -2.8,   -1.6,   -1.1,   -0.3,   -0.2,    0.3,   -0.1,   -0.1,   -1.4,   -2.8,   -3.2,   -2.4,   -1.1,   -1.3,   -0.9,   -1.2,   -2.2,   -4.1,   -7.1,  -10.5,  -12.1,  -12.2,  -10.7,   -9.5,   -6.3,   -1.1,    0.6,    0.5,   -0.5,   -1.8,   -1.7,   -0.7,    2.7,    4.7,    5.0,    4.9,    4.6,    5.1,    7.0,    6.2,    7.6,    9.4,    7.6,    9.3,    9.8,   10.9,    9.2,    7.6,    9.1,   10.1,   11.6,   11.1,   11.3,    9.3,   10.2,   10.3,   10.8,   10.2,    8.5,    7.9,    7.9,    8.3,    8.5,   10.0,   10.9,   10.6,   11.4,   11.2,    9.6,    8.0,    6.5,    8.1,    8.5,    6.1,    7.4,    4.1,    0.6,    3.9,    7.7,    8.0,   10.0,   10.9,   10.9,  999.0,  999.0,    3.3,    3.0,    2.3,    4.1,    5.7,    9.9,   12.9,   13.5,   14.1,   14.7,   13.3,   12.6,    7.5,    3.9,    3.4,    4.1,    4.0,    4.0,    5.7,  999.0,  999.0,  999.0,    5.4,    6.3
2020/01/31 02:05,   -9.9,   -8.2,   -5.6,   -4.8,   -4.3,   -4.0,   -4.8,   -4.9,   -4.8,   -5.3,   -4.3,   -2.8,   -1.5,   -1.4,   -0.7,    0.1,    0.8,   -1.0,   -1.7,   -3.3,   -3.7,   -4.5,   -2.9,   -1.6,   -1.8,   -1.5,   -2.3,   -2.5,   -5.4,   -8.8,  -10.8,  -10.7,  -10.5,   -9.4,   -6.8,   -3.5,    0.2,    0.5,   -0.8,   -0.2,   -1.3,   -1.9,   -1.8,    2.0,    4.5,    5.0,    3.3,    3.6,    3.8,    5.5,    5.2,    6.4,    8.7,    7.7,    8.3,    9.2,   11.0,   10.1,    8.7,    9.1,   10.3,   11.7,   10.0,   10.0,    8.9,    9.9,   10.1,    9.4,    9.1,    5.7,    5.0,    7.4,    7.8,    7.7,   10.0,   11.4,    9.4,    9.3,    9.1,    9.7,    7.5,    8.0,    8.2,    9.0,    7.7,    6.8,    6.4,    4.3,    6.2,    5.9,    7.2,    9.0,    9.5,    7.8,  999.0,    5.4,    3.1,    2.1,    1.0,    1.7,    5.2,    8.9,   11.9,   12.4,   14.2,   14.9,   14.7,   13.2,   13.0,    8.1,    4.7,    6.7,    5.0,    3.8,    5.0,  999.0,  999.0,  999.0,    4.6,    4.5
2020/01/31 02:15,   -9.8,   -8.1,   -6.5,   -4.4,   -5.3,   -6.0,   -6.0,   -5.5,   -6.0,   -6.0,   -5.5,   -3.9,   -3.5,   -2.6,   -2.4,   -0.9,   -0.9,   -1.9,   -3.0,   -4.1,   -4.2,   -3.7,   -2.5,   -1.2,    0.1,    0.4,    0.3,    0.4,   -1.9,   -4.7,   -6.0,   -7.5,   -8.1,   -6.9,   -5.4,   -3.8,   -1.4,   -0.0,   -1.4,   -2.0,   -1.9,   -3.8,   -5.1,   -2.9,   -0.3,    0.3,   -0.8,   -0.1,    0.5,    1.8,    1.3,    2.9,    3.9,    2.5,    3.1,    3.7,    4.2,    4.5,    3.6,    4.0,    6.7,    7.9,    7.1,    6.5,    4.9,    5.8,    6.4,    6.5,    5.8,    3.5,    2.9,    5.5,    7.0,    7.1,    9.3,   11.1,   10.3,   10.3,    8.3,    8.5,    7.5,    6.9,    8.2,    8.1,    7.4,    4.5,    5.4,    4.1,  999.0,    3.9,    4.3,    6.3,    6.3,  999.0,    3.5,    1.5,    0.3,   -1.8,   -2.8,   -1.7,    0.5,    4.1,    8.1,    9.9,   12.0,   14.9,   14.2,   13.6,   12.7,  999.0,    3.8,    4.7,    5.4,    3.8,    3.7,  999.0,  999.0,  999.0,    5.6,    7.2
2020/01/31 02:25,  -10.5,   -9.5,   -8.1,   -6.8,   -7.0,   -6.4,   -6.7,   -5.3,   -5.0,   -4.6,   -4.0,   -2.4,   -2.1,   -1.6,   -1.4,    0.2,   -0.3,   -0.8,   -2.6,   -2.7,   -3.1,   -3.2,   -2.7,   -1.7,   -0.8,   -0.5,    0.8,   -0.2,   -3.0,   -5.6,   -7.6,   -8.9,   -8.8,   -8.5,   -7.3,   -5.2,   -3.2,   -1.6,   -2.1,   -1.4,   -0.2,   -0.7,   -3.0,   -2.6,   -0.6,    0.1,    0.2,   -1.3,   -1.3,   -0.9,   -1.1,   -0.7,    0.0,   -1.4,   -0.5,   -0.3,    0.1,    1.6,   -0.0,    1.1,    4.3,    5.5,    4.5,    4.6,    3.6,    4.5,    5.2,    5.1,    4.9,    1.3,    1.5,    4.6,    5.3,    5.6,    7.1,    8.7,    9.4,    8.6,    7.5,    5.6,    5.2,    6.5,    7.2,    6.5,    3.6,    3.5,   -0.2,    1.8,    0.1,    2.6,    4.9,    5.1,    4.7,    3.8,    3.7,    3.3,    0.8,   -0.2,   -1.6,   -1.5,    0.2,    3.5,    6.5,    8.6,   11.0,   14.4,   16.0,   15.1,   12.6,   13.2,    5.4,    6.0,    5.8,    5.2,    4.8,  999.0,  999.0,  999.0,    8.0,    8.7
2020/01/31 02:35,  -12.0,  -10.2,   -7.9,   -6.8,   -5.4,   -5.1,   -5.1,   -5.7,   -6.1,   -5.2,   -4.7,   -3.7,   -3.8,   -3.2,   -2.6,   -0.9,   -0.1,   -1.5,   -2.7,   -3.7,   -3.5,   -3.1,   -2.3,   -1.7,   -0.7,    1.0,    1.1,    0.9,   -2.0,   -4.2,   -6.1,   -5.9,   -6.7,   -5.6,   -5.7,   -3.5,   -2.1,   -1.8,   -1.9,   -1.0,   -1.7,   -2.8,   -5.1,   -4.7,   -2.4,   -1.1,   -1.2,   -1.6,   -0.8,    0.1,    0.6,    1.0,    1.5,    0.4,    3.0,    3.4,    3.6,    3.8,    1.9,    2.7,    4.7,    6.2,    5.5,    6.1,    4.4,    5.3,    5.4,    5.5,    4.5,    2.3,    3.1,    6.0,    5.4,    6.0,    6.9,    9.3,   10.4,    9.0,    8.4,  999.0,    5.3,    7.3,    7.8,    7.6,    5.6,    3.9,    2.4,    0.2,    3.5,    4.8,    6.5,    6.9,    3.4,    7.0,    5.9,    5.3,    2.1,    1.7,   -0.8,   -1.1,    0.1,    2.7,    6.1,    9.0,   10.3,   13.1,   15.3,   15.9,   13.6,    9.6,    7.3,    5.0,    6.3,    5.6,    4.6,  999.0,  999.0,  999.0,    5.6,    5.5
2020/01/31 02:45,  -11.8,  -11.2,   -9.4,   -7.8,   -6.2,   -5.4,   -4.7,   -5.1,   -4.7,   -4.1,   -3.5,   -2.8,   -3.6,   -2.7,   -2.2,   -0.6,    0.4,   -1.0,   -3.0,   -4.9,   -4.7,   -4.0,   -3.5,   -2.4,   -1.6,   -0.6,   -2.2,   -3.3,   -4.4,   -5.0,   -7.4,   -7.7,   -7.8,   -9.1,   -7.1,   -6.7,   -6.4,   -5.0,   -4.2,   -3.7,   -4.3,   -3.7,   -4.5,   -4.8,   -2.6,   -2.3,   -0.9,   -0.8,    0.4,    1.6,    3.2,    3.5,    5.2,    2.6,    4.2,    5.1,    5.3,    5.3,    3.3,    3.8,    6.2,    7.8,    7.0,    6.7,    6.1,    7.0,    6.9,    6.4,    5.3,    3.3,    4.2,    5.5,    8.0,    7.3,    7.9,    8.5,   10.5,    9.9,    7.7,    5.5,    5.3,    5.4,    6.1,    9.0,    9.1,    5.1,    3.2,    2.0,    6.0,    5.5,    8.6,    8.6,    6.9,    6.3,    7.0,    8.1,    5.9,    2.3,    0.9,   -0.5,    0.5,    3.4,    6.9,   10.1,   11.3,   12.8,   13.7,   12.0,    9.1,    8.4,    4.9,    3.5,    4.4,    4.4,    4.2,  999.0,  999.0,  999.0,    5.0,    6.5
2020/01/31 02:55,  -11.7,   -9.9,   -7.4,   -5.5,   -5.2,   -4.2,   -4.5,   -4.4,   -4.2,   -2.7,   -2.8,   -4.7,   -5.0,   -3.3,   -1.6,   -0.5,   -1.2,   -3.7,   -5.7,   -6.3,   -4.8,   -4.4,   -2.5,   -3.8,   -3.6,   -4.4,   -5.0,   -7.6,   -7.6,   -8.8,   -8.9,   -9.1,   -8.4,  -10.0,   -9.5,   -7.6,   -5.0,   -4.6,   -4.5,   -3.3,   -3.6,   -2.8,   -4.0,   -3.1,   -0.0,   -0.4,   -0.1,    0.8,    1.6,    3.0,    2.3,    3.4,    5.8,    2.3,    2.6,    4.7,    5.1,    5.2,    3.6,    4.0,    6.5,    7.7,    7.8,    6.9,    6.1,    7.1,    5.8,    7.3,    4.8,    2.2,    4.0,    5.4,    6.8,    6.6,    7.6,    8.7,    9.1,    8.4,    9.0,    7.7,    8.3,    6.7,    7.2,    7.7,    9.9,    6.1,    6.1,    3.6,    5.5,    6.6,    8.6,    9.4,    8.0,    5.1,    5.4,    9.5,   10.5,    3.8,    3.2,    3.3,    3.1,    5.4,    8.3,   10.6,   12.1,   13.7,   14.6,   14.0,   11.1,    8.3,    5.3,    4.8,    5.0,    5.8,  999.0,    4.3,  999.0,  999.0,    7.7,    7.7
2020/01/31 03:05,  -10.8,   -8.6,   -5.8,   -5.3,   -4.6,   -4.1,   -4.0,   -4.1,   -3.1,   -3.7,   -4.9,   -6.0,   -6.0,   -4.0,   -2.2,   -2.1,   -4.2,   -5.8,   -6.7,   -7.1,   -6.9,   -6.4,   -5.4,   -6.3,   -6.0,   -7.9,   -8.6,  -12.2,  -11.1,  -10.3,  -11.4,  -11.2,  -11.1,  -11.1,   -9.6,   -8.3,   -5.4,   -4.9,   -4.8,   -3.5,   -3.1,   -2.0,   -2.4,   -1.1,    1.5,    2.0,    2.9,    4.3,    4.6,    5.7,    5.5,    7.0,    7.4,    4.6,    6.1,    6.4,    7.1,    6.6,    4.7,    5.8,    7.2,    9.2,    8.4,    8.8,    6.5,    6.9,    6.0,    6.8,    5.4,    4.6,    5.5,    7.7,    8.4,    8.7,    9.2,    8.8,    9.5,    9.1,    5.2,    2.3,    5.4,    4.8,    6.6,    7.7,    8.5,    5.8,    3.9,    3.5,    3.0,    5.7,    7.0,    8.3,    7.6,    4.3,    5.1,    7.6,    7.8,    4.7,    2.5,    1.5,    3.0,    5.5,    8.5,   12.2,   13.2,   14.5,   15.6,   14.9,   11.9,   11.7,    5.7,    4.7,    6.1,    5.6,    4.6,  999.0,    6.2,    5.8,    6.0,    5.8
2020/01/31 03:15,  -10.5,   -8.3,   -5.1,   -4.4,   -3.8,   -3.4,   -3.0,   -3.6,   -3.4,   -5.2,   -5.6,   -6.0,   -6.6,   -5.9,   -5.7,   -4.9,   -5.1,   -6.9,   -8.5,   -8.0,   -6.3,   -6.2,   -6.3,   -6.0,   -5.3,   -6.7,   -9.7,  -10.1,  -10.4,  -10.5,  -10.4,  -10.3,  -10.5,   -9.2,   -8.9,   -7.6,   -6.2,   -5.6,   -5.1,   -4.4,   -3.6,   -3.2,   -3.1,   -1.9,   -1.8,   -1.7,    1.6,    1.2,    1.1,    1.9,    1.5,    2.6,    1.8,    0.1,    2.4,    3.0,    3.6,    1.7,    0.9,    1.7,    3.6,    5.8,    5.3,    5.8,    5.1,    6.4,    5.4,    5.5,    3.5,    3.1,    3.6,    6.5,    7.0,    7.8,    6.0,    5.9,    4.5,    5.5,    3.9,  999.0,  999.0,  999.0,    1.1,    3.3,    3.2,    2.3,    1.7,   -0.2,   -0.1,   -0.1,    3.4,    4.5,  999.0,  999.0,    5.0,    6.1,    4.2,    4.1,    1.1,   -0.0,    1.3,    5.1,    9.0,   12.3,   14.2,   15.1,   17.2,   16.1,   14.7,   11.1,    4.2,    3.5,    9.4,    7.0,    7.6,  999.0,    5.4,  999.0,  999.0,    6.2
2020/01/31 03:25,  -12.6,   -9.6,   -7.8,   -6.2,   -5.0,   -4.8,   -4.1,   -4.7,   -4.4,   -5.7,   -7.0,   -6.8,   -7.3,   -6.6,   -5.9,   -5.2,   -5.6,   -5.6,   -6.7,   -5.6,   -5.0,   -4.7,   -4.2,   -3.5,   -3.8,   -5.3,   -7.4,   -9.2,   -9.0,   -9.3,   -9.1,   -9.6,   -9.3,   -9.9,  -10.0,   -9.1,   -8.5,   -8.2,   -8.2,   -7.2,   -5.6,   -5.4,   -5.4,   -5.4,   -3.9,   -3.8,   -1.0,   -1.1,   -0.8,    0.2,   -0.1,    0.8,    0.2,   -0.0,    2.5,    2.0,    2.4,    1.8,    1.9,    2.8,    3.7,    4.9,    3.9,    3.2,    2.3,    2.6,    1.9,    2.2,   -0.3,   -1.3,    1.5,    4.4,    5.7,    5.9,    6.6,    5.1,    3.2,    3.8,    2.4,    0.7,    1.0,    4.2,    5.1,    3.4,    2.2,    0.8,    0.8,   -1.1,   -0.1,   -0.0,    1.1,    2.8,    2.9,    1.5,    2.1,    1.3,   -0.4,   -1.6,   -3.7,   -2.9,   -0.2,    3.0,    8.2,   12.0,   14.1,   14.4,   17.5,   15.2,   13.0,   11.2,    5.2,  999.0,  999.0,    7.3,    5.9,  999.0,  999.0,  999.0,  999.0,    8.1
2020/01/31 03:35,   -8.9,   -8.1,   -6.7,   -5.1,   -4.5,   -3.5,   -3.7,   -3.6,   -3.4,   -5.0,   -5.4,   -5.2,   -5.1,   -5.1,   -4.8,   -4.2,   -3.9,   -5.3,   -5.0,   -4.3,   -4.9,   -4.7,   -4.3,   -3.7,   -3.5,   -4.7,   -7.0,   -8.2,   -7.9,   -7.2,   -7.5,   -7.3,   -7.7,   -8.4,   -9.2,   -7.9,   -6.7,   -6.7,   -6.0,   -7.1,   -2.8,   -2.7,   -3.5,   -4.9,   -5.0,   -4.3,    0.0,    0.5,    0.0,    1.4,    0.7,    1.2,    1.3,   -0.1,    1.5,    1.8,    2.9,    2.4,    2.1,    2.4,    4.8,    5.7,    4.8,    3.5,    2.5,    3.1,    2.2,    3.2,   -0.9,   -2.2,    1.1,    3.0,    4.9,    6.9,    7.7,    5.4,    4.7,    5.8,    2.8,    1.7,    2.5,    5.2,  999.0,    4.2,    4.4,    3.1,    0.6,   -0.5,    2.5,    2.4,    2.6,    3.1,    1.3,    3.5,    2.8,    2.1,   -0.6,   -2.6,   -4.9,   -4.5,   -0.9,    2.6,    8.7,   12.5,   14.0,   16.1,   17.1,   16.6,   13.2,   12.1,    3.7,    1.4,    3.8,    7.2,    7.4,  999.0,  999.0,  999.0,  999.0,  999.0
2020/01/31 03:45,   -9.1,   -7.1,   -6.3,   -3.7,   -3.0,   -2.9,   -3.7,   -4.1,   -5.4,   -6.0,   -6.2,   -7.3,   -7.0,   -5.6,   -5.2,   -5.0,   -6.4,   -4.9,   -5.7,   -4.4,   -4.3,   -4.0,   -3.9,   -6.1,   -6.4,   -7.6,   -7.4,   -7.8,   -7.3,   -7.8,   -9.0,   -8.1,   -9.1,   -9.1,   -9.5,  -10.2,   -9.6,   -8.0,   -7.9,   -6.1,   -3.5,   -2.7,   -3.0,   -3.7,   -2.4,   -1.1,    1.9,    1.7,    2.0,    3.6,    2.7,    2.1,    2.0,    0.8,    2.5,    3.0,    4.6,    3.2,    2.7,    3.4,    5.1,    6.9,    6.1,    4.9,    4.5,    4.3,    3.8,    3.5,  999.0,   -0.0,    1.8,    4.1,    5.9,    7.7,    7.6,    7.0,    4.9,    5.1,    2.5,    2.3,    2.7,    6.0,    9.1,    5.7,    5.0,    2.4,  999.0,    0.6,    3.3,    3.1,    3.2,    1.2,    1.3,    2.9,    4.8,    3.2,   -0.2,   -3.0,   -5.1,   -4.3,   -2.3,    1.1,    7.0,   11.0,   13.4,   15.6,   16.8,   15.1,   13.7,    8.8,    4.7,  999.0,    4.4,    4.7,    7.6,  999.0,  999.0,  999.0,  999.0,  999.0
2020/01/31 03:55,   -7.6,   -5.9,   -4.4,   -3.4,   -2.5,   -2.9,   -4.4,   -4.3,   -5.1,   -5.1,   -5.2,   -6.5,   -6.7,   -6.1,   -6.4,   -6.5,   -6.7,   -7.3,   -7.0,   -6.2,   -6.0,   -7.2,   -9.2,  -10.2,   -9.8,   -9.2,   -9.5,  -10.7,  -10.1,  -10.2,  -10.2,  -10.3,  -10.6,  -11.2,   -9.9,   -9.3,   -9.2,   -8.6,   -7.3,   -4.7,   -1.8,   -2.2,   -2.0,   -0.7,    0.0,    2.1,    4.3,    3.1,    4.4,    6.3,    5.5,    4.8,    4.9,    3.6,    5.1,    4.8,    6.4,    5.7,    5.6,    6.9,    8.7,   10.4,    9.0,    9.2,    7.8,    6.5,    6.3,    6.1,    7.5,    8.4,    4.5,    5.2,    7.0,    8.9,    8.5,    8.0,    6.5,    7.1,    6.1,    3.8,    3.9,    6.1,    7.0,    5.2,    7.2,    7.3,    4.9,    2.3,    4.4,    4.9,    0.9,    1.8,    3.8,    4.0,    4.7,    1.5,    0.7,   -2.1,   -3.4,   -4.3,   -1.3,    3.6,    8.5,   10.2,   12.7,   16.3,   17.2,   17.8,   16.9,   13.0,    8.3,    5.3,  999.0,    4.8,    6.6,    8.1,    8.6,    8.0,  999.0,  999.0
2020/01/31 04:05,  -10.0,   -7.4,   -3.7,   -1.9,   -1.9,   -4.0,   -5.0,   -5.5,   -6.1,   -6.2,   -7.7,   -8.2,   -8.2,   -7.2,   -7.0,   -7.1,   -7.1,   -7.7,   -8.1,   -8.2,   -6.9,   -6.6,   -8.6,  -10.0,   -9.2,   -9.9,  -10.6,  -10.9,   -9.5,  -10.4,  -10.4,  -11.2,  -12.4,  -11.5,  -11.2,  -12.3,  -11.2,  -11.2,   -8.8,   -6.2,   -3.8,   -2.6,   -3.2,   -2.2,   -1.7,    0.6,    3.4,    2.8,    4.5,    5.9,    5.1,    4.2,    3.6,    2.1,    3.5,    3.8,    4.6,    4.8,    3.1,    4.8,    7.2,    9.3,    8.4,    8.5,    8.5,    8.9,    8.3,    8.9,    8.9,    5.9,    5.6,    6.6,    7.8,    9.9,    9.5,    7.7,    6.7,    7.6,    7.9,    7.2,    5.0,    6.5,    7.8,    8.2,    8.5,    8.6,    9.9,    7.1,    9.2,    6.5,    6.6,  999.0,    8.7,    6.5,    7.1,    9.6,    6.8,    5.0,    2.4,    0.3,    0.6,    3.7,    7.7,   10.4,   14.5,   18.1,   17.6,   18.0,   16.6,   15.4,   11.0,    6.8,    7.9,    6.7,    6.3,  999.0,  999.0,    7.1,    6.1,  999.0
2020/01/31 04:15,  -12.8,   -9.1,   -6.7,   -3.5,   -4.1,   -4.4,   -6.3,   -7.2,   -8.8,   -9.8,   -8.7,   -9.0,   -8.8,   -8.3,   -7.9,   -8.1,   -6.8,   -7.7,   -7.9,   -7.8,   -6.7,   -5.5,   -7.2,   -7.6,   -8.4,   -8.7,   -9.7,  -10.3,   -9.7,   -9.7,  -10.1,  -10.5,  -10.2,   -9.4,  -10.1,  -10.6,   -9.3,   -8.7,   -6.6,   -4.9,   -3.5,   -3.8,   -4.2,   -3.2,   -2.7,   -1.3,   -0.9,    0.8,    2.6,    3.8,    3.0,    3.1,    2.7,    1.6,    2.2,    4.5,    5.7,    6.8,    4.7,    5.9,    6.7,    9.4,    9.0,    9.8,    9.9,    9.2,    9.3,    9.7,    9.8,    8.6,    6.3,    6.5,    7.8,    8.8,    9.1,    7.8,    4.4,    3.0,    5.7,  999.0,    0.2,    2.2,    5.6,    7.7,    8.8,    7.4,    7.9,    6.7,    6.8,    5.7,    7.6,    7.1,  999.0,    8.1,    7.5,   12.3,   10.6,    8.5,    5.2,    2.4,    3.2,    4.7,    7.7,    9.9,   12.6,   16.4,   17.9,   17.0,   17.4,   15.4,    9.8,    7.0,    6.3,  999.0,    3.6,    5.7,    4.3,  999.0,    6.5,  999.0
2020/01/31 04:25,  -12.6,   -9.0,   -6.7,   -2.9,   -2.5,   -3.6,   -5.4,   -7.1,   -9.3,   -9.8,   -8.8,   -8.2,   -8.0,   -7.6,   -7.7,   -7.8,   -7.4,   -8.7,   -9.1,   -8.7,   -9.1,   -8.7,   -8.6,   -8.6,   -9.4,  -10.6,  -10.4,  -10.8,  -10.7,  -10.0,  -11.1,  -12.2,  -12.3,  -10.6,  -11.5,  -11.4,  -11.1,   -8.7,   -8.4,   -7.4,   -5.0,   -4.2,   -3.4,   -2.2,   -1.8,   -0.8,    0.0,    1.9,    4.6,    5.8,    4.3,    4.0,    3.8,    2.0,    1.1,    2.7,    3.1,    5.1,    4.3,    2.6,    3.2,    6.3,    5.7,    6.7,    7.2,    6.8,    7.5,    7.1,    7.2,    5.6,    5.9,    6.1,    7.8,    8.3,    8.7,    5.6,    4.4,    3.8,    4.2,    4.6,    2.1,    4.0,    7.1,    7.9,    8.5,    7.9,    7.1,    7.4,    8.1,    6.9,    7.5,    8.0,    6.0,    6.8,    9.7,   13.1,   14.2,   13.4,   12.2,    9.0,    9.1,    9.6,   11.0,   12.3,   15.7,   18.6,   18.5,   17.8,   18.6,   15.4,   10.2,    7.9,    8.0,    1.9,    5.4,    5.3,  999.0,  999.0,    5.9,    8.5
2020/01/31 04:35,  -13.4,  -11.2,   -7.2,   -5.0,   -4.1,   -4.7,   -5.9,   -8.3,   -9.7,   -8.6,   -8.4,   -8.1,   -9.8,  -10.0,   -9.5,   -9.8,   -9.4,   -9.4,   -9.3,   -8.3,   -8.0,   -7.4,   -7.9,   -7.6,   -9.2,  -10.6,  -11.4,  -11.1,  -10.3,   -9.7,  -11.3,  -11.4,  -11.6,  -10.6,  -11.8,  -13.0,  -11.9,  -12.1,  -11.8,   -9.3,   -8.6,   -7.7,   -5.2,   -4.7,   -3.3,   -3.4,   -2.6,   -1.0,    1.4,    3.9,    4.0,    3.6,    4.5,    3.1,    3.1,    4.3,    4.1,    6.0,    5.2,    3.2,    4.2,    6.4,    5.8,    6.2,    6.0,    5.1,    5.2,    6.5,    6.3,    3.8,    3.7,    4.5,    8.5,    8.7,    7.7,    4.6,    4.0,    4.0,    4.2,    2.2,    1.7,    4.3,    5.6,    5.9,    7.0,    5.8,    6.4,    6.5,    4.0,  999.0,    5.0,    4.9,    5.5,    5.6,    4.6,    9.3,   11.2,    9.3,    7.1,    5.8,    6.3,    8.3,   11.0,   13.1,   15.9,   20.3,   20.8,   19.5,   20.0,   16.1,    9.7,    7.2,    4.8,    2.8,    4.3,    5.4,    8.0,  999.0,    6.2,  999.0
2020/01/31 04:45,  -12.5,  -10.3,   -6.6,   -5.4,   -5.0,   -5.2,   -6.1,   -7.9,   -9.0,   -9.3,   -8.6,   -7.5,   -9.1,   -9.8,   -8.6,   -8.2,   -7.0,   -7.5,   -8.4,   -8.1,   -7.3,   -7.5,   -7.7,   -7.6,   -8.5,   -9.6,  -11.3,  -10.9,  -10.9,  -10.5,  -12.1,  -10.7,   -9.9,  -10.8,  -11.3,  -11.9,  -11.7,  -10.4,  -10.6,  -10.8,   -8.5,   -6.5,   -4.6,   -3.7,   -2.7,   -2.8,   -2.6,   -1.0,    1.4,    2.9,    2.9,    3.7,    3.3,    2.3,    3.3,    3.6,    4.6,    6.0,    2.9,    2.0,    3.6,    5.8,    5.3,    5.6,    5.1,    3.1,    4.2,    6.4,    5.5,    3.6,    2.0,    3.1,  999.0,    4.5,    4.2,    3.4,    3.0,    4.1,    3.2,    1.6,    1.5,    4.2,    6.1,    6.0,    3.7,    4.9,    4.6,    3.4,    3.3,    1.7,    3.1,    1.3,    2.3,    1.5,    3.9,    4.9,    6.7,    5.0,    2.5,    2.5,    4.5,    7.3,   11.2,   14.0,   15.6,   16.1,   17.5,   15.9,   16.6,   15.1,    9.0,    5.6,    3.7,    3.5,    4.0,    6.6,    7.6,  999.0,  999.0,   10.2
2020/01/31 04:55,  -13.1,  -11.9,   -8.7,   -5.3,   -5.3,   -5.6,   -6.7,   -7.3,   -8.9,   -9.2,   -8.9,   -8.8,   -9.6,   -9.5,   -8.8,   -8.8,   -7.8,   -7.2,   -8.4,   -9.1,   -9.4,   -7.9,   -7.4,   -8.0,   -8.7,   -8.8,  -10.1,  -10.5,  -10.1,   -9.2,   -9.4,   -9.0,   -9.2,   -9.6,  -11.0,  -10.8,  -10.5,  -10.1,  -10.7,   -9.8,   -8.8,   -6.2,   -4.3,   -3.6,   -2.6,   -2.0,   -3.1,   -1.0,    1.9,    2.9,    2.4,    2.8,    2.7,    3.3,    4.1,    3.5,    4.6,    5.4,    2.9,    2.4,    4.3,    6.3,    6.0,    6.6,    5.4,    2.1,    3.4,    5.7,    5.1,    3.1,    2.9,    4.3,    7.6,    4.1,    6.0,    4.2,    2.2,    3.5,    3.0,    2.7,    2.2,    3.4,    5.4,    6.5,    4.9,    5.1,    4.7,    2.4,    4.0,    3.4,    2.9,    1.2,    2.3,    4.1,    5.1,    6.1,    8.1,    7.0,    4.7,    3.9,    5.0,    7.4,    9.9,   12.7,   14.1,   14.6,   13.9,   15.0,   14.2,   11.0,    7.6,    3.2,    1.4,    2.4,    4.1,    3.7,  999.0,  999.0,  999.0,  999.0
2020/01/31 05:05,  -13.4,  -11.9,  -10.7,   -8.1,   -5.5,   -5.1,   -5.9,   -5.6,   -7.5,   -9.1,   -9.7,   -9.6,   -9.5,   -9.3,   -7.8,   -8.3,   -7.9,   -6.6,   -6.4,   -7.9,   -9.3,   -9.6,   -8.0,   -8.5,   -9.0,   -9.8,  -10.1,   -9.9,   -9.4,   -8.0,   -7.9,   -7.1,   -6.8,   -8.3,   -9.5,   -9.8,   -9.9,   -8.9,   -9.5,  -10.2,   -8.9,   -6.3,   -5.7,   -4.9,   -4.0,   -4.0,   -3.8,   -0.8,    0.9,    0.9,    2.0,    2.0,    2.2,    3.9,    3.9,    3.9,    4.3,    5.3,    3.2,    2.4,    4.1,    6.6,    6.8,    6.6,    5.0,    1.7,    3.3,    5.0,    4.5,    2.7,    1.4,    2.8,    3.1,    3.1,    4.6,    2.6,   -0.3,   -0.6,    0.7,   -0.9,    0.6,    0.3,    0.3,  999.0,    2.2,    2.5,    1.2,   -0.4,    3.2,    1.6,    0.4,    0.3,    1.3,    2.7,    2.9,    3.7,    5.0,    3.3,    2.5,    3.5,    5.1,    8.1,    9.7,   11.8,   14.1,   12.6,  999.0,   14.8,   16.2,   10.9,    9.2,    5.7,    1.4,    1.1,    2.3,    2.6,  999.0,  999.0,  999.0,  999.0
2020/01/31 05:15,  -13.5,  -11.9,   -9.7,   -7.8,   -5.6,   -4.1,   -4.3,   -4.6,   -5.8,   -7.9,   -9.2,   -9.8,   -8.9,   -9.1,   -8.0,   -7.2,   -6.0,   -5.3,   -6.1,   -8.4,  -10.3,   -7.9,   -7.8,   -7.4,   -8.4,   -8.8,   -9.9,   -9.2,   -8.6,   -7.3,   -7.3,   -7.3,   -7.4,   -8.6,   -9.7,  -10.0,  -11.2,   -9.1,  -10.9,  -11.3,  -10.5,   -8.0,   -6.7,   -5.9,   -5.5,   -4.2,   -4.3,   -2.2,    0.3,   -0.6,    0.6,    1.1,    2.2,    2.7,    2.3,    2.0,    4.7,    5.3,    2.6,    2.5,    4.5,    6.3,    5.7,    5.7,    4.6,    0.8,    2.4,    3.9,    4.4,    3.4,    3.1,    3.3,    3.1,    4.3,    5.5,    6.3,    2.6,    0.5,    2.2,    0.9,    0.3,    1.4,    4.6,    4.8,    3.2,    2.9,    0.7,    1.1,   -1.3,   -1.7,   -1.8,   -2.1,   -1.9,    0.6,    1.9,    2.9,    2.5,   -0.4,    0.0,    0.5,    3.4,    6.0,    9.8,   10.5,   13.5,   15.7,   22.1,  999.0,   12.4,   10.1,    7.4,    3.4,    1.1,    1.1,    2.0,    2.9,  999.0,  999.0,  999.0,    1.1
2020/01/31 05:25,  -14.6,  -13.6,  -11.5,   -8.6,   -6.7,   -3.2,   -4.9,   -5.2,   -4.9,   -6.9,   -8.2,   -9.4,   -9.5,   -9.7,   -8.0,   -7.0,   -6.7,   -8.0,   -9.2,   -9.3,   -9.1,   -9.3,   -9.6,   -9.1,  -11.3,  -11.1,  -10.6,   -9.9,   -9.7,   -7.3,   -7.4,   -7.8,   -7.9,   -8.6,  -10.7,  -11.3,  -11.5,   -9.9,  -11.4,  -12.1,  -11.4,   -9.5,   -8.2,   -6.1,   -5.7,   -4.4,   -3.6,   -2.1,    0.2,   -1.5,   -0.5,   -0.7,    1.4,    1.2,    0.3,    0.9,    3.5,    3.7,    0.3,    1.0,    4.1,    4.6,    4.0,    4.1,    1.6,   -2.1,   -0.1,    2.0,    2.5,    1.5,    1.3,    2.3,    4.3,    4.5,    4.2,    5.9,    4.5,    1.5,    1.1,    1.8,    1.7,    1.3,    2.6,    3.0,    3.7,    2.7,    1.4,    0.2,    0.3,   -1.9,   -2.7,   -1.8,   -2.3,   -3.8,   -0.2,   -0.5,   -3.3,   -5.5,   -3.7,   -1.3,    0.8,    3.8,    8.5,    9.6,   11.9,   14.5,   16.5,  999.0,   13.2,   11.5,    9.3,    3.1,    2.1,    1.8,    2.2,    3.6,    4.1,  999.0,  999.0,  999.0
2020/01/31 05:35,  -15.4,  -14.5,  -11.9,   -8.5,   -5.6,   -4.5,   -4.2,   -3.8,   -5.1,   -5.9,   -6.1,   -8.9,   -9.6,  -10.1,  -10.7,  -10.9,  -10.1,   -8.9,   -9.0,   -7.1,   -6.2,   -6.7,   -7.1,   -7.9,   -7.7,   -8.2,   -7.7,   -7.0,   -7.6,   -6.1,   -5.8,   -6.3,   -6.9,   -7.1,   -7.5,   -8.5,   -8.2,   -8.3,   -8.4,   -8.1,   -7.0,   -7.2,   -6.3,   -5.4,   -5.4,   -3.7,   -3.2,   -1.6,   -1.4,   -1.0,    1.2,    1.2,    3.1,    2.3,    2.1,    3.5,    5.2,    3.7,    1.7,    3.1,    5.9,    6.4,    6.4,    6.4,    5.8,    0.7,    1.4,    4.0,    6.3,    4.1,    5.3,    4.9,    6.1,    5.6,    5.0,    6.9,    5.7,    1.5,    1.4,    2.6,    3.2,    3.4,    4.1,    4.7,    4.4,    2.6,    2.2,    1.3,    0.9,    0.9,   -0.0,    0.6,    1.1,   -1.0,    2.5,    2.5,    0.0,   -1.3,   -3.9,   -0.9,    1.1,    4.6,    7.7,   10.9,   13.5,   13.9,   14.9,   13.9,   13.5,   12.8,   10.0,    6.9,    0.8,    0.3,  999.0,    2.0,    3.3,  999.0,  999.0,  999.0
2020/01/31 05:45,  -14.1,  -13.9,  -13.4,  -11.7,   -6.8,   -4.8,   -4.4,   -4.8,   -5.2,   -7.0,   -9.3,  -12.0,  -12.0,  -12.0,  -12.0,  -12.6,  -12.2,  -10.9,  -10.1,   -8.1,   -7.9,   -7.6,   -7.7,   -7.8,   -8.7,   -9.1,   -9.3,   -9.3,   -9.3,   -9.2,   -7.9,   -8.1,   -7.3,   -7.7,   -7.7,   -8.4,   -9.1,   -8.4,   -9.0,   -9.5,   -8.0,   -8.2,   -8.7,   -6.5,   -6.8,   -5.6,   -4.0,   -3.0,   -1.5,   -1.2,    1.3,    1.5,    2.2,    1.2,    1.6,    3.9,    6.1,    4.8,    3.0,    5.2,    7.5,    8.1,    8.1,    7.6,    6.7,    1.3,    1.6,    3.3,    4.0,    4.4,    5.6,    5.1,    6.1,    5.0,    4.8,    5.2,    3.0,   -0.6,   -1.2,   -1.4,   -0.4,    0.6,    3.0,    3.1,    1.2,    1.1,    2.4,    1.0,  999.0,    0.2,   -0.1,    1.3,    0.2,   -0.9,    1.2,    1.4,    0.2,   -0.8,   -2.5,   -1.8,   -0.4,    1.8,    4.4,    7.3,   10.1,   12.1,  999.0,    7.6,   13.3,   12.1,   10.2,   11.3,    4.7,   -0.0,    0.4,    3.4,  999.0,  999.0,   -1.6,   -5.4
2020/01/31 05:55,  -12.8,  -11.8,  -11.6,  -10.4,   -8.5,   -5.8,   -5.8,   -5.9,   -6.5,   -7.2,   -8.6,  -10.6,  -11.7,  -12.0,  -11.4,  -12.4,  -12.1,  -10.4,  -11.1,   -9.2,   -8.9,   -8.3,   -6.5,   -6.4,   -7.1,   -8.3,   -7.8,   -8.0,   -7.8,   -6.0,   -8.7,   -8.8,   -8.1,   -8.0,   -7.6,   -8.3,   -9.0,   -9.2,  -10.0,  -10.2,   -9.7,  -10.2,   -9.8,   -8.6,   -8.7,   -8.3,   -6.8,   -5.0,   -4.4,   -2.3,   -1.8,   -0.6,    0.3,   -1.3,   -2.0,    1.0,    2.2,    1.3,    0.4,    2.8,    4.3,    4.7,    5.2,    6.1,    3.6,    1.2,    2.3,    2.5,    3.2,    3.4,    4.3,    5.2,    4.8,    4.3,    3.3,    5.2,    1.3,   -0.4,    0.0,   -1.3,   -1.0,    0.3,   -0.4,    3.2,    2.0,    2.0,    2.5,    1.4,    2.8,    3.8,    3.9,    3.4,    2.2,    2.7,    4.5,    5.1,    5.0,    3.7,   -0.2,    3.1,    4.1,    5.8,    8.9,   11.6,   13.8,   14.9,   17.9,   17.9,   12.9,   12.4,   11.1,   10.2,  999.0,    0.4,    0.2,    0.3,  999.0,   -0.5,  999.0,  999.0
2020/01/31 06:05,  -12.6,  -12.0,  -11.0,  -10.1,   -8.1,   -5.9,   -7.0,   -6.5,   -6.9,   -8.6,  -10.1,  -10.8,  -11.3,  -11.1,  -10.7,  -11.2,  -11.1,  -11.4,   -9.0,   -8.5,   -8.4,   -8.1,   -7.9,   -8.5,   -9.8,   -8.3,   -9.1,   -7.9,   -7.1,   -5.3,   -7.1,   -7.4,   -7.9,   -8.7,   -8.4,   -8.5,   -8.4,   -8.6,   -8.1,   -8.4,   -8.1,   -7.0,   -6.9,   -5.6,   -6.2,   -5.2,   -4.1,   -3.4,   -2.0,   -0.9,    1.3,    1.0,    1.8,    2.1,    0.2,    2.0,    4.2,    3.1,    2.5,    4.9,    6.6,    4.8,    4.8,    6.0,    4.6,    1.0,    0.2,    1.7,    1.8,    2.2,    2.3,    4.4,    3.8,    2.9,    2.5,    2.6,    0.7,   -1.1,   -1.6,   -1.5,   -0.9,    0.6,    0.9,    0.0,   -0.3,    0.3,    0.7,    1.2,   -1.0,   -0.8,   -0.5,   -1.5,   -1.5,   -1.9,    0.7,    0.9,    0.9,  999.0,   -5.8,   -1.3,    1.6,    5.5,    9.8,   12.8,   13.7,   14.0,   15.1,   16.7,   13.5,   13.1,   11.1,    6.9,    1.5,   -1.8,    0.7,   -2.0,  999.0,  999.0,  999.0,  999.0
2020/01/31 06:15,  -14.2,  -12.2,  -12.2,  -10.2,   -8.0,   -6.6,   -7.1,   -7.9,   -9.7,  -10.7,  -12.1,  -12.8,  -12.3,  -11.6,  -12.9,  -13.4,  -12.9,  -12.2,  -10.4,   -9.3,   -8.1,   -7.9,   -8.9,   -9.9,   -9.4,   -8.7,   -8.2,   -8.7,   -8.0,   -6.4,   -8.0,   -7.8,   -8.0,   -8.5,   -9.1,   -8.3,   -8.1,   -8.5,   -8.8,   -8.8,   -7.9,   -6.8,   -6.5,   -5.9,   -6.4,   -5.9,   -4.5,   -3.8,   -2.3,   -1.1,    0.2,   -0.0,    0.6,   -0.3,   -1.3,    1.1,    2.9,    2.0,    0.9,    3.1,    5.4,    5.4,    4.7,    6.0,    5.3,    2.1,    1.0,    0.6,    1.0,    1.6,    1.6,    3.0,    3.5,    2.1,    2.9,    1.2,   -0.0,   -1.9,   -1.5,   -1.2,   -0.4,    0.8,    1.2,    0.0,   -0.4,   -1.6,   -1.4,   -1.1,   -2.3,   -0.5,    0.0,   -0.5,   -0.4,    0.4,    2.4,   -0.1,    1.5,   -0.0,  999.0,    1.4,    2.7,    5.0,    8.2,   11.4,   13.5,   14.9,  999.0,  999.0,   14.4,   11.6,   11.2,    4.7,    2.6,    0.2,   -1.4,   -2.6,   -3.8,   -4.4,  999.0,  999.0
2020/01/31 06:25,  -15.4,  -13.4,  -11.7,   -9.8,   -7.7,   -5.7,   -6.8,   -7.1,   -8.0,  -10.3,  -10.6,  -10.0,   -9.6,  -10.6,  -11.7,  -11.9,  -11.7,  -11.6,  -10.5,  -10.1,   -9.2,   -9.4,  -10.3,  -10.3,   -9.2,   -8.7,   -8.5,   -8.7,   -7.7,   -8.1,   -9.0,   -8.3,   -9.4,  -10.9,  -11.6,  -11.7,  -12.1,  -12.1,  -12.2,  -11.3,  -10.3,   -9.8,   -8.2,   -8.5,   -8.9,   -8.5,   -7.9,   -6.5,   -4.5,   -2.7,   -0.5,   -0.0,    1.0,    0.3,    0.1,    1.4,    4.2,    4.5,    3.4,    5.4,    6.5,    6.5,    7.1,    7.0,    7.7,    5.4,    4.5,    6.0,    5.2,    5.4,    6.2,    5.3,    6.4,    5.4,    4.8,    4.8,    1.7,    2.2,    1.0,    0.9,    1.6,    1.9,    3.8,    3.6,    2.9,    1.2,    0.9,    0.3,   -0.9,   -0.8,   -0.6,   -0.6,    0.9,    2.5,    2.6,    2.5,    1.5,   -0.6,  999.0,    2.2,    2.2,    2.8,    6.4,   10.2,   11.0,   13.2,  999.0,   11.8,   15.4,   14.0,   10.5,    5.3,  999.0,   -0.8,   -0.5,   -2.6,   -3.4,   -2.6,   -5.2,  999.0
2020/01/31 06:35,  -13.2,  -12.2,  -11.6,  -10.7,   -8.3,   -6.1,   -5.1,   -4.9,   -6.4,   -6.9,   -7.6,   -6.9,   -7.0,   -8.2,   -8.8,  -10.2,  -10.6,  -12.0,  -11.6,   -9.7,   -9.1,   -9.5,   -9.7,  -10.6,   -9.3,   -9.3,   -8.1,   -7.4,   -7.0,   -7.4,   -8.3,   -8.5,   -9.1,   -9.1,  -11.1,  -11.1,  -10.8,  -11.5,  -10.8,   -9.4,   -8.9,   -8.2,   -5.9,   -5.7,   -5.7,   -4.4,   -5.0,   -3.3,   -2.2,   -0.7,    1.5,    2.3,    2.8,    2.8,    0.7,    1.5,    4.7,    5.2,    4.5,    5.9,    7.1,    7.6,    7.6,    6.8,    7.5,    5.2,    4.1,    6.1,    5.1,    6.2,    5.9,    6.3,    6.5,    6.2,    6.2,    5.9,    3.4,    4.0,    3.3,    3.8,    3.1,    4.0,    5.7,    7.1,    6.9,    6.3,    4.0,    3.6,    4.5,    3.2,    4.4,    4.4,    6.7,    7.7,    7.7,    6.7,  999.0,  999.0,  999.0,    2.0,    3.9,    8.4,   11.5,   12.7,   17.9,  999.0,  999.0,  999.0,   15.4,   15.9,   12.6,    7.1,  999.0,   -0.5,    2.1,   -2.0,   -3.0,   -3.3,   -5.9,   -4.3
2020/01/31 06:45,  -12.8,  -12.6,  -12.0,   -9.6,   -7.4,   -4.3,   -4.2,   -4.9,   -6.5,   -8.6,   -8.3,   -6.7,   -7.3,   -7.7,   -9.5,   -9.6,  -10.6,  -11.1,  -11.7,  -10.0,   -9.7,   -8.6,   -8.7,   -9.3,   -9.3,   -8.4,   -7.8,   -6.2,   -5.9,   -6.2,   -6.0,   -5.9,   -6.5,   -7.0,   -8.0,   -6.9,   -7.0,   -7.7,   -7.6,   -7.3,   -6.1,   -6.3,   -5.8,   -4.3,   -3.9,   -3.9,   -2.7,   -1.7,   -0.7,    0.9,    1.8,    2.3,    2.7,    0.7,   -0.7,    1.0,    3.4,    3.2,    3.8,    4.5,    5.1,    5.7,    5.8,    6.6,    5.3,    3.2,    4.4,    5.2,    4.2,    4.9,    4.6,    5.0,    4.6,    3.8,    2.5,    2.2,  999.0,   -0.6,   -1.5,   -1.1,    0.0,    1.0,    3.5,    2.9,    3.4,    2.0,    0.3,    0.4,    0.9,    1.1,    1.2,    0.8,   -0.0,    2.9,    4.0,    2.7,    1.1,  999.0,  999.0,    1.4,    2.0,    5.7,    8.6,   11.6,   13.0,   14.5,   18.1,   17.2,   15.5,   11.1,    7.6,    2.8,    0.7,   -2.0,   -4.8,   -2.2,   -1.4,  999.0,  999.0,   -1.7
2020/01/31 06:55,  -13.5,  -13.4,  -12.3,  -10.9,   -8.4,   -4.8,   -4.7,   -6.2,   -6.5,   -8.1,   -8.0,   -8.0,   -6.7,   -8.6,   -8.5,  -11.0,  -11.6,  -12.4,  -13.4,  -11.7,  -11.3,  -10.4,  -11.2,  -11.2,  -11.1,   -9.3,   -9.1,   -8.0,   -7.1,   -7.0,   -5.3,   -5.7,   -7.0,   -6.4,   -7.3,   -7.0,   -6.8,   -8.1,   -7.8,   -8.2,   -7.9,   -6.6,   -6.4,   -5.2,   -3.8,   -3.0,   -2.4,   -0.9,    0.1,    1.6,    1.3,    2.7,    2.5,   -0.0,    0.4,    2.7,    4.2,    3.4,    4.4,    4.0,    5.0,    6.2,    5.1,    6.2,    6.1,    4.3,    4.5,    6.2,    5.0,    5.4,    6.5,    6.1,    6.3,    4.6,    3.3,  999.0,    1.2,  999.0,    1.5,    0.1,    0.9,    1.4,    2.4,    2.8,    4.6,    4.2,    1.8,    1.1,    1.3,  999.0,    0.4,    1.3,    3.4,    3.9,    4.6,    5.6,    2.3,    0.5,  999.0,    2.3,    4.2,    6.8,    9.4,   13.4,   16.0,  999.0,   16.5,   16.0,   13.5,   10.7,    5.1,    0.3,   -3.6,   -5.5,   -3.6,   -4.4,   -4.4,  999.0,   -0.7,    1.0
2020/01/31 07:05,  -14.6,  -14.1,  -13.6,  -11.5,   -9.3,   -5.6,   -5.4,   -6.0,   -7.4,   -7.9,   -4.9,   -3.7,   -7.8,   -8.7,   -9.5,  -11.1,  -11.8,  -11.3,  -13.3,  -11.7,  -11.1,  -11.0,  -11.3,  -11.9,  -11.8,  -10.4,  -10.0,   -9.8,   -6.5,   -1.9,   -4.6,   -7.5,   -7.9,   -7.0,   -7.2,   -5.5,   -6.3,   -7.4,   -8.1,   -7.9,   -8.0,   -7.3,   -6.6,   -6.6,   -4.9,   -5.5,   -3.4,   -2.7,   -2.5,   -1.0,    0.3,    1.7,   -0.9,   -1.4,    0.8,    3.0,    3.6,    3.6,    3.6,    3.1,    4.6,    5.9,    4.7,    6.5,    5.9,    4.4,    4.3,    3.5,    5.3,    3.3,    4.6,    5.2,    2.3,    1.9,  999.0,    3.5,    0.6,    1.7,   -3.0,  999.0,   -1.4,   -1.1,    0.1,    1.5,    2.1,    1.1,   -0.2,    0.3,   -3.4,  999.0,  999.0,  999.0,   -6.6,   -6.7,   -6.5,   -6.1,  -10.0,  999.0,  999.0,   -3.4,    1.2,    3.7,    7.2,   10.5,  999.0,  999.0,  999.0,  999.0,  999.0,    6.2,    4.4,   -3.0,   -7.4,  -11.7,   -9.2,   -5.3,   -5.5,  999.0,  999.0,  999.0
2020/01/31 07:15,  -14.1,  -13.8,  -12.3,  -10.8,   -7.6,   -4.9,   -5.9,   -4.9,   -1.5,   -7.2,   -2.2,   -0.6,   -6.6,   -6.2,   -7.9,   -9.4,  -10.7,  -10.6,  -10.8,  -12.0,  -11.0,  -10.9,   -9.9,  -10.2,   -9.7,   -8.9,   -6.7,   -5.8,   -4.8,   -3.5,   -3.9,   -3.2,   -3.6,   -4.1,   -3.5,   -4.7,   -4.5,   -4.9,   -7.1,   -8.0,   -6.6,   -6.2,   -6.4,   -6.9,   -6.6,   -6.2,   -6.7,   -5.0,   -4.2,   -3.4,   -2.2,   -0.8,   -3.1,   -2.0,    1.1,    3.7,    3.1,    3.4,    4.7,    6.0,    8.1,    7.4,    7.3,    7.0,    7.4,    7.5,    7.3,    7.0,    5.8,    6.7,    7.0,    6.8,    5.1,    5.2,    3.6,    2.6,    2.0,    1.6,    2.0,    1.2,   -0.4,    1.2,    2.9,    1.6,    0.7,    1.4,   -0.7,   -1.8,   -1.3,  999.0,   -1.6,  999.0,   -3.7,   -2.1,   -3.8,   -6.0,   -3.8,   -7.8,  999.0,   -0.1,    2.7,    7.3,   11.3,  999.0,  999.0,  999.0,  999.0,  999.0,  999.0,  999.0,   16.4,  999.0,    4.4,   -1.4,   -3.0,   -1.8,    2.3,  999.0,  999.0,  999.0
2020/01/31 07:25,  -15.4,  -13.4,  -10.2,   -8.1,   -5.6,   -2.2,   -4.4,   -5.0,   -2.7,   -6.7,   -6.3,   -1.3,   -3.3,   -2.8,   -2.7,   -3.6,   -8.8,   -8.1,  -10.7,   -9.2,   -9.5,   -9.9,   -9.1,   -8.7,   -9.0,   -8.8,   -7.9,   -6.3,   -5.6,   -4.3,   -2.5,   -3.1,   -3.4,   -1.5,   -2.8,   -3.0,   -3.3,   -5.6,   -5.1,   -4.2,   -3.2,   -3.7,   -5.2,   -6.2,   -6.0,   -5.5,   -7.1,   -6.1,   -4.4,   -3.5,   -3.4,   -3.4,   -3.6,   -4.0,   -0.9,    0.7,    0.7,    0.3,    1.7,    4.6,    6.9,    6.4,    6.0,    7.1,    7.6,    6.6,    6.4,    6.3,    4.7,    5.8,    5.8,    5.6,    6.3,    3.1,    2.0,    0.8,   -1.0,  999.0,    0.9,  999.0,   -0.6,    2.9,    3.7,    4.9,    2.9,    6.2,    1.6,   -0.9,   -1.3,   -0.0,   -4.4,  999.0,   -1.2,   -0.8,    0.3,  999.0,  999.0,  999.0,   -4.9,  999.0,    2.7,    5.9,  999.0,  999.0,  999.0,  999.0,  999.0,  999.0,  999.0,   14.5,    9.4,  999.0,   -1.9,   -4.4,   -4.0,   -4.4,  999.0,  999.0,  999.0,  999.0
2020/01/31 07:35,  -12.4,  -11.6,  -12.3,  -10.7,   -8.8,   -6.2,   -6.2,   -8.7,  999.0,   -9.2,   -7.4,  999.0,   -3.3,   -7.2,   -8.4,   -5.8,   -7.1,  -11.4,  -10.4,   -9.9,  -10.6,  -11.5,  -13.4,  -10.0,  -10.6,  -10.9,   -8.8,   -7.6,   -7.4,   -4.4,   -4.8,   -3.9,   -0.8,   -4.5,   -5.0,   -4.7,   -5.5,   -5.5,   -4.5,   -3.1,   -2.6,   -1.2,   -4.6,   -5.8,   -5.5,   -4.6,   -5.9,   -5.8,   -4.3,   -4.2,   -3.0,   -1.0,   -2.4,   -2.5,    0.0,    2.3,   -0.0,    0.5,    2.1,    5.6,    5.6,    7.2,    6.2,    5.8,    4.5,    5.0,    4.8,    3.9,    4.1,    5.1,    5.9,    4.1,  999.0,  999.0,  999.0,  999.0,    0.4,    0.9,    1.7,    0.9,    1.7,    3.5,    5.3,    3.9,    2.5,    4.8,    2.7,    2.0,  999.0,  999.0,  999.0,  999.0,  999.0,    3.1,    3.1,  999.0,  999.0,   -2.1,   -3.0,    0.7,  999.0,    7.2,  999.0,  999.0,  999.0,  999.0,  999.0,  999.0,  999.0,   11.1,    6.8,   -0.9,   -4.9,   -7.1,   -5.6,   -4.1,   -2.8,  999.0,  999.0,   -0.4
2020/01/31 07:45,  -13.1,  -10.4,  -12.2,   -9.9,   -8.5,   -5.5,   -6.2,   -8.0,   -5.7,   -7.2,   -2.0,   -0.4,   -3.4,   -5.1,   -4.6,   -4.4,   -4.1,   -9.5,   -9.8,   -9.5,   -8.9,   -9.5,   -9.2,   -7.4,   -8.9,   -8.3,   -5.1,   -5.7,   -5.5,   -4.2,   -2.8,   -1.6,   -2.4,   -3.1,   -4.0,   -4.8,  999.0,   -3.9,  999.0,   -1.5,   -0.6,   -1.3,   -0.4,   -2.3,   -0.1,   -1.3,   -2.5,   -2.2,   -1.8,   -1.0,   -0.4,    0.5,   -2.0,   -1.3,    0.2,    3.1,    0.2,    0.4,    2.0,    4.9,    5.6,    4.8,    5.2,    5.9,    6.7,    3.7,    2.7,    3.5,    0.8,    2.7,    4.6,    5.1,    3.9,  999.0,  999.0,  999.0,  999.0,   -0.6,   -3.0,  999.0,    2.4,    3.6,    4.6,    5.7,    6.3,    3.4,    1.9,    3.9,    0.9,    2.1,    1.3,   -0.6,    0.3,  999.0,    2.4,    5.3,  999.0,  999.0,  999.0,  999.0,  999.0,    4.9,   10.4,  999.0,  999.0,  999.0,  999.0,  999.0,  999.0,   14.6,  999.0,    1.4,   -0.9,   -3.3,   -4.1,   -4.8,  999.0,  999.0,   -1.9,   -2.1
2020/01/31 07:55,  -16.6,  -17.7,  -17.2,  -10.6,   -9.3,   -6.9,   -6.2,  -10.9,   -7.2,   -8.0,   -2.2,   -1.5,   -6.7,   -5.2,   -4.3,  -11.5,  -11.6,   -8.5,   -9.7,  -11.1,  -10.0,  -10.1,  -10.0,   -9.1,   -8.8,   -8.3,   -6.1,   -5.8,   -4.9,   -0.3,   -3.0,   -2.2,   -2.4,   -3.2,   -2.9,   -5.1,   -4.2,   -2.1,   -0.9,    1.2,    0.2,    0.2,   -2.3,   -1.4,   -0.0,   -0.7,   -1.3,   -1.6,   -1.1,   -1.9,   -1.1,   -0.6,   -0.3,   -1.1,    0.5,    2.4,    2.6,    0.3,    0.7,    3.3,    5.2,    6.6,    5.7,    4.4,    5.1,    5.6,    4.7,    3.9,    2.2,    1.9,    4.1,    2.9,    3.7,    0.7,    0.8,    2.6,   -2.4,   -1.9,   -1.0,    0.1,   -1.0,    1.9,    0.7,    2.7,    1.2,   -0.3,    0.4,  999.0,  999.0,  999.0,  999.0,  999.0,    3.6,   -1.6,    0.7,   -0.5,  999.0,  999.0,  999.0,  999.0,  999.0,  999.0,  999.0,  999.0,  999.0,  999.0,  999.0,  999.0,   14.5,   14.2,  999.0,  999.0,   -1.2,  999.0,   -5.2,   -4.3,   -4.9,   -2.5,  999.0,  999.0
2020/01/31 08:05,  -14.5,  -15.9,  -14.6,  -11.3,   -8.9,   -5.6,   -2.4,   -4.7,   -7.2,   -7.4,   -0.5,    0.2,   -6.9,   -9.5,  -11.0,   -9.6,   -9.6,   -5.5,   -4.3,   -9.8,  -10.6,   -9.8,   -9.5,   -8.6,   -8.4,   -8.2,   -7.7,   -5.9,   -5.4,   -2.6,   -4.0,   -2.3,   -1.4,   -3.1,   -2.5,   -3.1,   -3.1,   -1.4,   -0.1,    0.1,   -0.1,   -0.0,   -0.9,   -2.7,   -1.7,   -1.4,   -2.6,   -1.9,   -2.5,   -3.1,   -2.8,   -2.5,   -2.8,   -1.4,    1.4,    0.6,   -0.8,    0.0,    0.1,    2.4,    2.6,    3.8,    4.4,    2.7,    4.1,    2.9,    2.5,    1.2,    1.5,    3.3,    3.1,    0.8,  999.0,    0.3,   -0.4,    1.0,   -0.0,    0.1,  999.0,   -2.1,   -0.8,    0.5,    1.6,    1.0,    0.1,   -2.4,   -3.4,  999.0,   -2.8,  999.0,  999.0,  999.0,  999.0,    3.7,  999.0,  999.0,  999.0,   -1.2,  999.0,  999.0,  999.0,  999.0,  999.0,  999.0,  999.0,  999.0,  999.0,  999.0,  999.0,    9.0,  999.0,  999.0,   -2.9,   -5.9,   -4.7,   -5.7,  999.0,  999.0,  999.0,  999.0
2020/01/31 08:15,  -15.5,  -15.8,  -15.6,  -13.8,  -12.6,   -4.8,   -3.1,   -2.9,   -5.2,   -6.5,   -2.2,   -2.0,   -8.8,   -7.5,   -9.5,   -9.6,   -7.3,   -1.2,   -7.0,   -9.6,   -9.6,   -9.4,   -8.1,   -8.8,   -9.8,   -8.1,   -6.1,   -6.6,   -5.0,   -2.3,   -3.5,   -4.0,   -3.2,   -4.1,   -3.3,   -2.9,   -0.9,  999.0,   -0.5,    0.2,    0.4,  999.0,  999.0,   -0.3,   -3.1,   -1.7,   -3.0,   -4.1,   -3.3,   -2.3,   -3.9,   -4.3,   -4.0,   -2.8,   -2.4,   -1.5,   -2.3,   -1.9,   -3.0,   -3.2,   -0.3,   -0.1,    1.4,    0.0,    1.5,    1.2,    1.2,  999.0,    1.4,    0.2,   -3.0,  999.0,  999.0,   -0.1,    0.4,  999.0,   -0.3,    1.2,    0.7,   -1.0,    0.3,    1.9,    2.7,   -1.6,    3.7,   -1.0,    1.6,    2.8,  999.0,    0.3,   -0.6,  999.0,    5.4,    2.6,    6.1,  999.0,  999.0,  999.0,  999.0,    0.5,    5.0,    5.6,  999.0,  999.0,  999.0,  999.0,  999.0,  999.0,  999.0,  999.0,   -4.9,   -6.8,   -9.6,   -8.8,  -10.3,   -8.8,   -6.8,   -3.8,   -0.7,   -0.7
2020/01/31 08:25,  -16.3,  -16.6,  -15.4,  -14.9,  -13.4,  -10.2,   -9.4,   -7.4,   -5.9,   -7.6,   -0.1,   -1.1,   -7.2,   -2.7,   -6.2,  -10.3,  -10.9,   -9.4,   -6.4,   -9.7,   -9.0,   -8.1,   -8.3,   -8.2,   -6.3,   -5.8,   -6.7,   -6.6,   -5.1,   -2.6,   -1.8,   -2.7,   -3.6,   -3.5,   -3.4,   -1.9,   -2.3,    1.1,    1.0,    0.3,    0.1,   -0.8,   -1.1,   -2.5,   -3.9,   -4.4,   -4.1,   -4.8,   -4.1,   -4.7,   -5.2,   -6.0,   -5.5,   -5.5,   -4.8,   -3.8,   -2.9,   -3.2,   -5.1,   -3.8,   -0.8,   -0.7,   -0.0,    2.1,    1.5,    4.8,    2.2,    0.9,    3.4,    4.1,  999.0,  999.0,  999.0,  999.0,    1.3,    3.2,    4.2,  999.0,    3.9,    2.9,   -1.3,    3.4,  999.0,  999.0,  999.0,  999.0,  999.0,  999.0,  999.0,  999.0,  999.0,  999.0,  999.0,    3.7,    2.1,    4.7,  999.0,  999.0,  999.0,  999.0,  999.0,  999.0,    6.3,  999.0,   -2.4,  999.0,  999.0,  999.0,    3.0,  999.0,   -9.6,  -10.4,   -9.9,  -10.1,   -8.9,  999.0,  999.0,   -1.8,  999.0,  999.0
2020/01/31 08:35,  -15.0,  -14.8,  -15.1,  -14.0,  -11.8,   -9.7,  -10.3,   -9.7,   -5.1,   -5.3,   -6.8,    0.2,  -10.8,   -7.9,  -11.9,  -13.0,  -11.0,  -11.6,  -10.4,   -9.3,   -9.1,   -9.5,   -7.6,   -4.5,   -4.7,   -6.7,   -6.9,   -5.0,   -5.1,   -4.7,   -2.4,   -4.3,   -4.2,   -3.1,   -2.8,   -2.3,    0.0,    0.7,   -0.1,   -0.6,   -1.5,   -1.6,   -1.4,   -3.4,   -4.2,   -5.5,   -6.4,   -5.7,   -4.8,   -4.8,   -5.2,   -4.5,   -4.7,   -3.9,   -4.1,   -3.6,   -3.6,   -4.7,   -4.0,   -3.2,   -0.4,    0.3,   -0.3,    0.7,    3.0,    2.9,    3.5,    0.9,    4.4,    3.5,  999.0,    0.1,    1.9,    2.8,    2.5,    1.4,    2.3,    8.0,    3.4,    2.3,    0.6,    1.5,    3.8,    3.4,    1.7,    3.2,    2.1,  999.0,  999.0,  999.0,  999.0,   -2.9,  999.0,  999.0,  999.0,    3.5,    7.8,  999.0,  999.0,  999.0,    0.9,    1.3,    3.3,  999.0,   -4.4,  999.0,  999.0,    4.3,  999.0,  999.0,  -11.3,  -15.4,  -14.6,  -14.1,  -10.9,   -7.8,   -3.7,   -2.3,  999.0,  999.0
2020/01/31 08:45,  -13.9,  -13.2,  -13.0,  -13.2,  -14.2,  -14.8,  -13.1,  -11.8,   -7.5,   -5.1,   -7.8,   -8.6,  -10.4,  -12.9,  -12.9,  -12.9,   -8.2,  -12.5,  -11.1,  -10.1,  -10.7,  -10.6,   -6.7,   -4.6,   -6.3,   -7.0,   -7.4,   -6.4,   -4.2,   -2.0,   -1.9,   -2.7,   -3.2,   -2.5,   -2.6,   -2.5,   -0.0,    1.4,    0.2,   -1.7,   -1.4,   -1.7,   -2.1,   -2.7,   -3.7,   -5.7,   -5.7,   -4.5,   -4.9,   -4.8,   -5.5,   -4.9,   -5.7,   -4.9,   -5.0,   -5.3,   -5.1,   -5.4,   -4.6,   -3.2,   -1.2,   -0.3,   -0.6,    1.4,    2.8,    7.1,    2.3,    3.0,    3.6,    4.0,   -1.1,    1.4,    0.7,    1.3,    2.8,    1.7,    1.5,    2.5,    3.4,    0.2,    1.4,    1.7,    3.3,    2.1,    1.0,    1.2,    1.5,    0.8,  999.0,  999.0,  999.0,  999.0,    0.2,  999.0,   -1.5,    2.2,    5.3,  999.0,  999.0,  999.0,  999.0,    0.9,    4.6,  999.0,  999.0,  999.0,  999.0,  999.0,  999.0,  999.0,   -9.1,  -13.0,  -13.2,  -12.4,  -10.8,   -7.6,   -4.6,   -1.0,    0.5,    1.1
2020/01/31 08:55,  -13.8,  -11.8,  -11.3,  -12.4,  -12.8,  -13.1,  -13.9,  -13.7,  -11.8,   -4.7,   -5.8,   -9.7,  -11.2,  -11.8,  -11.3,  -13.2,  -11.0,  -13.0,  -12.5,  -10.5,  -11.2,  -10.3,   -6.3,   -4.8,   -6.4,   -6.9,   -6.8,   -6.3,   -3.9,  999.0,  999.0,   -1.3,   -4.1,   -4.3,   -2.2,   -2.1,   -1.4,   -0.8,   -1.6,   -2.0,   -0.5,   -1.0,   -0.4,   -1.2,   -1.7,   -3.1,   -3.4,   -2.5,   -3.1,   -3.2,   -3.4,   -2.9,   -3.5,   -3.5,   -3.3,   -3.8,   -2.8,   -3.0,   -2.0,   -0.6,    1.2,    2.5,    3.7,    3.1,    5.2,    5.2,    5.2,    4.7,    4.5,    6.6,    2.9,    2.7,    2.9,    4.4,    3.6,    4.4,    3.2,    3.4,    5.8,    2.5,    2.8,    3.1,    2.5,    0.9,    1.5,    1.2,    1.2,    1.0,   -0.5,    0.6,    1.5,    0.5,    0.5,    0.6,    0.6,    1.5,    3.0,    5.6,    2.5,   -0.9,   -1.7,   -0.6,    2.4,    3.6,  999.0,  999.0,  999.0,    9.9,  999.0,    1.5,   -3.9,   -7.6,   -7.9,   -7.8,   -7.9,   -5.8,   -1.4,  999.0,    1.4,    3.2
2020/01/31 09:05,  -13.2,  -13.2,  -13.0,  -13.4,  -12.2,  -12.2,  -12.8,  -13.5,  -11.2,   -6.4,   -5.6,   -8.2,  -10.8,  -10.1,   -8.9,  -11.4,  -10.2,  -11.7,  -12.4,  -10.2,  -10.5,  -10.6,   -8.7,   -7.3,   -7.5,   -7.8,   -7.7,   -5.6,   -4.7,  999.0,    0.5,   -3.1,   -5.1,   -4.1,   -2.9,   -1.8,   -3.2,   -2.3,   -0.9,   -1.5,   -1.5,  999.0,   -1.5,   -0.9,   -1.9,   -2.6,   -2.4,   -2.8,   -3.2,   -3.2,   -3.3,   -2.6,   -3.6,   -3.3,   -3.2,   -2.5,   -2.3,   -1.8,   -0.8,   -0.5,    0.8,    2.8,    3.1,    3.5,    5.0,    6.4,    5.5,    5.7,    6.5,    4.5,    2.7,    3.1,    5.3,    7.2,    6.4,    4.8,    4.1,    4.6,    2.7,    6.6,    4.2,    5.2,    4.7,    3.2,  999.0,    2.1,    2.2,    2.5,    1.8,    1.8,    0.4,    1.9,    0.6,    1.9,    0.9,    2.4,    2.5,    4.5,    9.1,    3.9,  999.0,  999.0,    1.5,    3.0,    3.0,  999.0,  999.0,    7.3,    5.3,    2.3,   -7.4,   -7.1,   -5.5,   -8.7,  999.0,   -7.7,   -1.7,  999.0,    0.5,    2.9
2020/01/31 09:15,  -13.0,  -13.7,  -14.2,  -14.6,  -13.4,  -14.3,  -15.5,  -15.5,  -13.8,   -9.5,   -1.3,   -8.3,  -10.6,   -9.2,   -5.0,  -11.9,  -10.2,  -10.4,  -11.5,  -12.3,  -11.8,  -11.7,   -9.8,   -7.7,   -7.4,   -7.6,   -6.4,   -6.2,   -5.0,  999.0,   -3.8,   -3.2,   -6.6,   -2.9,   -3.7,   -2.1,   -2.4,   -1.6,    1.7,   -2.2,   -1.1,   -0.9,   -3.5,   -2.7,   -3.3,   -2.5,   -2.9,   -3.3,   -4.5,   -4.4,   -3.0,   -2.9,   -4.0,   -4.2,   -3.9,   -2.1,   -2.0,   -1.6,   -0.4,   -1.8,    0.3,    0.6,    2.0,    2.4,    2.5,    4.4,    5.3,    6.4,    5.5,    2.9,    2.8,    3.9,    5.6,  999.0,  999.0,    3.4,    4.6,    4.6,    4.0,    3.3,    5.1,    4.5,    4.8,    3.9,    2.4,    1.6,   -0.3,    1.5,  999.0,    5.2,   -1.1,    0.3,    0.4,   -2.8,    1.2,    0.1,    0.6,    2.8,    1.4,    2.2,   -2.4,  999.0,   -2.6,   -2.6,   -0.4,  999.0,  999.0,    6.0,    8.6,   -0.2,   -1.6,   -6.7,  999.0,   -6.4,   -4.6,   -2.9,   -0.7,    2.8,    4.5,    3.3
2020/01/31 09:25,  -12.1,  -12.4,  -13.0,  -13.7,  -13.8,  -13.3,  -12.1,  -12.3,  -12.2,   -9.2,   -4.8,   -9.0,   -8.0,   -4.2,   -5.6,   -7.5,  -10.7,  -12.0,  -11.0,  -10.0,   -9.7,   -9.1,   -8.2,   -5.9,   -6.4,   -6.3,   -5.3,   -4.6,   -3.9,   -2.9,  999.0,   -4.4,   -4.8,   -3.8,   -2.0,   -1.8,  999.0,    0.5,    1.1,    0.1,   -0.6,   -0.7,   -2.6,   -2.4,   -2.3,   -2.6,   -3.1,   -3.6,   -3.8,   -3.5,   -3.2,   -3.6,   -4.0,   -3.9,   -2.5,   -1.2,   -1.4,   -1.8,   -2.6,   -0.7,    1.0,    2.0,    1.6,    3.8,    4.2,    5.3,    5.8,    4.8,    3.9,    2.8,    4.3,    7.6,    7.9,    6.7,  999.0,    6.2,    5.4,    5.8,    5.4,    7.1,  999.0,    6.3,    6.0,    4.8,    3.9,  999.0,  999.0,    0.3,   -3.6,  999.0,  999.0,  999.0,   -1.7,  999.0,  999.0,  999.0,  999.0,  999.0,  999.0,  999.0,   -9.0,  -10.9,  999.0,  999.0,  999.0,  999.0,  999.0,    7.9,    5.5,    0.4,   -2.7,   -4.8,   -5.2,   -4.2,  999.0,   -0.8,  999.0,  999.0,  999.0,  999.0
2020/01/31 09:35,  -11.9,  -14.5,  -15.4,  -16.0,  -15.7,  -14.2,  -12.8,  -12.9,  -12.4,   -9.5,   -8.7,  -11.0,   -8.7,   -6.1,   -9.0,  -12.4,  -11.4,  -10.6,  -11.1,   -9.2,  -10.0,   -9.0,   -9.3,   -8.9,   -7.3,   -6.5,   -4.6,   -4.3,   -3.1,   -0.7,   -3.6,   -3.8,   -3.2,   -3.2,   -2.7,   -1.8,   -0.8,   -0.7,    1.1,    2.5,   -0.2,   -1.3,   -0.9,   -2.0,   -3.8,   -2.9,   -2.5,   -3.5,   -4.7,   -4.2,   -4.8,   -5.2,   -3.9,   -3.9,   -2.9,   -2.8,   -2.6,   -2.3,   -2.4,   -0.7,    1.3,    2.4,    3.7,    3.8,    5.2,    4.4,    6.1,    8.5,    0.4,    3.1,    2.7,    6.3,    5.7,  999.0,  999.0,  999.0,  999.0,    4.4,    2.5,    2.9,  999.0,  999.0,  999.0,  999.0,  999.0,  999.0,  999.0,  999.0,  999.0,  999.0,  999.0,   -1.2,  999.0,  999.0,  999.0,   -1.1,    0.1,    2.2,    2.3,    0.9,  999.0,   -3.7,  999.0,  999.0,   -3.5,  999.0,  999.0,  999.0,   -2.2,  999.0,   -7.8,   -8.9,  -11.1,  999.0,  999.0,   -0.4,  999.0,  999.0,  999.0,    5.1
2020/01/31 09:45,  -15.1,  -15.3,  -15.7,  -14.0,  -13.8,  -14.0,  -12.6,  -13.5,   -8.3,   -7.4,   -6.6,   -4.0,   -2.4,   -2.3,   -5.7,   -7.8,   -6.1,   -9.4,   -9.2,   -9.4,   -8.7,   -8.5,   -8.0,   -8.0,   -7.1,   -6.7,   -4.9,   -4.6,   -1.5,    0.0,  999.0,   -3.1,   -3.0,   -3.7,   -2.2,   -2.5,   -2.3,   -1.1,   -0.4,    1.1,    0.3,   -1.7,   -2.1,   -2.2,   -3.4,   -4.2,   -3.8,   -4.6,   -4.7,   -5.0,   -4.4,   -6.2,   -5.7,   -5.3,   -5.6,   -4.1,   -4.1,   -4.5,   -4.4,   -4.0,   -2.3,   -2.1,   -0.8,    0.8,    1.1,    3.1,    5.1,  999.0,   -0.7,    1.1,    3.8,    5.8,    6.9,    6.7,    5.0,    5.2,    3.7,    8.7,  999.0,  999.0,    4.6,    3.5,    6.2,  999.0,    8.0,  999.0,    4.9,    3.5,    3.6,  999.0,  999.0,  999.0,    1.0,    3.1,    3.0,    3.8,    2.5,    2.7,    2.1,    4.6,  999.0,  999.0,   -5.3,   -5.2,  999.0,   -0.5,    2.5,  999.0,   -8.2,  -13.4,  -15.9,  -16.5,  -12.8,  -10.2,   -4.9,  999.0,   -2.2,    4.0,    4.7,    3.1
2020/01/31 09:55,  -13.8,  -14.1,  -14.6,  -13.9,  -13.9,  -11.3,  -12.0,  -13.9,  -12.6,  -12.0,   -5.1,   -0.5,   -2.8,   -3.8,   -8.7,   -9.2,   -8.1,  -10.8,  -10.7,  -10.9,   -7.8,  -10.2,  -10.0,   -9.9,   -8.8,   -7.0,   -6.8,   -5.3,   -2.6,   -0.3,  999.0,   -5.0,   -4.8,   -4.5,   -5.1,   -4.5,   -3.2,   -3.2,   -1.3,   -0.1,   -2.1,   -2.2,   -2.7,   -3.5,   -2.9,   -2.8,   -2.3,   -3.5,   -3.3,   -3.4,   -4.0,   -5.7,   -3.4,   -5.2,   -3.9,   -2.5,   -2.2,   -1.8,   -1.9,   -2.7,   -1.5,    1.3,    1.1,    2.3,    2.8,    5.2,    5.5,    1.8,    2.0,    3.1,    6.0,    8.2,   10.4,    7.9,    8.3,    7.7,    8.0,    8.7,    8.8,    7.0,  999.0,   10.2,    6.1,  999.0,  999.0,  999.0,  999.0,    3.8,  999.0,    1.9,  999.0,  999.0,  999.0,    2.9,    2.5,  999.0,    2.4,   -0.0,  999.0,    5.3,    1.7,  999.0,  999.0,   -3.2,   -4.1,  999.0,   -1.5,   -2.6,   -6.3,  -11.2,  999.0,  -13.8,  -11.8,   -8.4,   -4.4,  999.0,  999.0,    5.4,  999.0,    5.1
2020/01/31 10:05,  -10.3,  -10.4,  -11.5,  -12.4,  -11.3,  -11.4,  -12.1,  -13.9,  -12.6,  -10.4,   -0.5,    0.1,   -0.9,   -1.2,   -1.4,   -1.6,   -4.0,   -6.6,   -8.9,   -9.9,   -7.7,   -5.9,   -7.2,   -7.9,   -8.7,   -7.7,   -4.9,   -6.0,   -4.9,   -1.3,  999.0,   -3.7,   -4.7,   -5.1,   -4.3,   -4.8,   -2.9,   -2.7,   -3.0,   -1.2,   -2.0,   -2.1,   -2.4,   -2.9,   -3.2,   -4.3,   -3.5,   -3.5,   -4.6,   -4.7,   -5.1,   -5.7,   -4.6,   -5.4,   -3.2,   -2.0,   -3.2,   -2.7,   -3.0,   -3.5,   -2.7,   -2.3,   -1.5,   -0.9,    0.6,    2.9,    2.2,   -0.4,   -0.0,    2.3,    4.4,    5.6,    7.2,    5.9,    1.2,    9.2,    6.4,    5.1,  999.0,  999.0,    8.5,   11.3,    6.3,  999.0,  999.0,  999.0,    3.0,    4.4,    2.5,    2.2,    6.5,  999.0,  999.0,  999.0,   -1.7,    0.8,   -1.9,    1.1,   -1.2,  999.0,  999.0,  999.0,  999.0,  999.0,   -5.5,   -2.8,   -0.7,  999.0,   -4.1,  -11.5,  -15.6,  -15.0,  -14.3,   -8.6,   -5.0,   -3.4,   -0.4,  999.0,  999.0,    6.0
2020/01/31 10:15,  -14.2,  -13.1,  -11.0,  -12.0,  -11.5,  -11.7,  -12.4,  -14.6,  -12.1,  -11.1,    0.1,    0.4,   -0.8,   -1.0,   -4.0,   -4.9,   -4.2,   -4.8,   -9.5,   -9.8,   -8.3,   -6.6,   -8.3,   -9.0,   -8.9,   -8.6,   -8.2,   -7.2,   -5.6,   -2.9,  999.0,   -4.3,   -4.1,   -4.9,   -5.0,   -3.1,   -2.9,   -1.5,   -1.3,   -2.5,   -2.1,   -2.3,   -2.3,   -1.2,   -2.0,   -1.5,   -1.6,   -3.2,   -2.7,   -2.7,   -4.7,   -5.7,   -3.4,   -4.2,   -3.6,   -2.6,   -2.3,   -3.1,   -3.8,   -3.3,   -2.5,   -3.7,   -2.6,   -0.9,    0.6,    3.3,  999.0,  999.0,   -0.8,    0.7,  999.0,    4.7,    3.9,    4.2,    6.3,  999.0,    3.3,    5.5,  999.0,  999.0,    7.7,  999.0,  999.0,  999.0,    6.4,  999.0,    3.1,    3.9,    2.1,    1.2,  999.0,  999.0,  999.0,  999.0,  999.0,   -1.7,   -0.3,    2.0,    3.0,    1.3,    5.6,  999.0,  999.0,  999.0,  999.0,   -0.9,   -0.8,  999.0,  999.0,  999.0,  -17.4,  -13.2,  -14.4,  -10.3,   -7.4,   -1.2,    3.2,    2.9,    4.3,    6.0
2020/01/31 10:25,  -13.0,  -13.2,  -12.6,  -13.2,  -12.3,  -12.9,  -13.4,  -13.3,  -10.0,   -8.9,    0.2,   -0.2,   -1.4,   -3.0,   -4.0,   -8.1,   -4.9,   -7.7,   -8.9,   -8.7,   -3.4,   -8.6,   -8.1,   -7.4,   -8.2,   -5.7,   -5.9,   -5.9,   -5.0,  999.0,   -2.7,   -4.1,   -4.5,   -4.7,   -5.1,   -2.5,   -2.3,   -1.8,   -0.8,   -0.6,   -1.6,   -2.3,   -2.4,   -1.4,   -1.6,   -1.3,   -1.4,   -2.0,   -2.4,   -2.3,   -4.0,   -3.7,   -3.4,   -4.0,   -3.2,   -1.5,   -0.9,   -0.5,   -0.3,   -2.2,   -2.5,   -2.5,   -1.8,    0.1,    3.3,    3.0,  999.0,    2.8,    1.8,    2.9,    3.5,    5.5,   -0.2,    4.4,    3.4,    2.7,    3.5,    7.0,  999.0,  999.0,  999.0,  999.0,  999.0,  999.0,    3.2,    3.8,    0.8,    0.3,  999.0,    4.4,  999.0,  999.0,  999.0,    0.8,  999.0,    0.3,  999.0,  999.0,    1.7,  999.0,  999.0,  999.0,  999.0,  999.0,  999.0,  999.0,   -1.0,   -1.2,   -0.6,   -2.4,   -8.4,  -13.4,  -11.5,  -11.7,  999.0,  999.0,    2.9,  999.0,  999.0,  999.0
2020/01/31 10:35,  -12.3,  -11.5,  -11.0,  -12.5,  -14.0,  -14.3,  -14.9,  -14.3,   -9.9,   -9.3,    0.2,    0.3,   -1.5,   -1.6,   -2.0,   -4.2,   -5.9,   -4.5,   -7.6,   -9.2,   -5.0,   -2.3,   -6.8,   -6.5,   -7.8,   -6.9,   -7.3,   -6.3,   -5.7,  999.0,   -1.5,   -1.6,   -5.3,   -3.7,   -3.5,   -1.2,   -1.3,   -0.6,    1.0,    1.2,  999.0,  999.0,   -0.7,   -0.8,   -0.3,    0.6,   -0.5,   -0.3,   -1.0,   -2.4,   -3.3,   -2.7,   -4.1,   -4.9,   -4.2,   -0.7,  999.0,  999.0,    0.3,   -1.4,   -3.0,   -0.9,    0.1,   -0.3,    3.8,  999.0,  999.0,  999.0,  999.0,    4.7,  999.0,  999.0,  999.0,  999.0,    5.0,  999.0,    3.7,  999.0,  999.0,  999.0,  999.0,  999.0,    3.4,  999.0,    1.2,  999.0,    0.6,  999.0,  999.0,    0.2,   -1.1,  999.0,  999.0,  999.0,  999.0,  999.0,  999.0,  999.0,  999.0,  999.0,  999.0,  999.0,  999.0,  999.0,  999.0,  999.0,  999.0,  999.0,  999.0,  999.0,   -6.7,   -8.5,   -8.7,   -7.5,   -5.8,   -3.3,  999.0,  999.0,  999.0,  999.0
2020/01/31 10:45,  -13.4,  -14.1,  -13.3,  -12.3,  -11.4,  -12.8,  -12.5,  -13.4,  -10.4,   -8.9,   -0.1,    0.3,   -2.0,   -2.7,   -1.5,   -2.7,   -8.2,   -5.3,   -6.7,   -8.1,   -8.0,   -6.8,   -8.2,   -7.9,   -7.5,   -7.3,   -6.5,   -6.8,   -6.2,  999.0,  999.0,   -3.9,   -5.3,   -3.1,   -4.6,   -2.9,   -1.7,   -1.6,   -1.2,   -1.1,   -2.0,   -2.5,   -2.6,   -2.0,   -1.3,   -2.3,   -3.3,   -1.3,   -3.1,   -3.4,   -5.0,   -4.9,   -5.6,   -5.7,   -4.5,   -2.8,   -2.5,   -2.8,   -3.1,   -2.6,   -2.9,   -3.2,   -3.7,   -3.0,    0.2,    3.1,    0.2,    0.2,    1.4,    3.3,    4.1,    5.2,    6.2,    2.4,    2.2,    2.2,    0.7,    3.8,  999.0,    4.1,    1.5,    0.7,    0.4,    0.9,    1.3,   -0.7,  999.0,    0.7,    2.3,   -1.1,   -0.1,    1.8,   -0.0,  999.0,   -0.8,   -0.7,  999.0,  999.0,   -0.4,  999.0,  999.0,    1.5,  999.0,   -7.9,  999.0,  999.0,    2.9,  999.0,  999.0,  999.0,   -2.4,   -6.5,   -7.1,   -7.3,   -2.6,   -1.5,    0.8,    5.0,    4.4,    6.7
2020/01/31 10:55,  -12.7,  -12.9,  -13.2,  -13.3,  -14.0,  -14.2,  -15.8,  -12.7,  -12.0,  -13.5,    0.5,    0.3,   -0.9,   -0.2,   -0.1,   -2.6,   -2.3,   -8.4,   -7.1,   -9.3,   -6.4,   -7.5,   -8.8,   -7.2,   -8.6,   -9.7,   -7.4,   -7.1,   -7.2,   -3.5,   -6.0,   -4.8,   -6.2,   -4.8,   -4.9,   -3.7,   -3.2,   -2.6,   -2.0,   -2.1,   -2.4,   -2.3,   -1.8,   -1.3,   -1.2,   -1.6,   -3.5,   -2.2,   -3.2,   -2.5,   -2.9,  999.0,  999.0,  999.0,  999.0,  999.0,  999.0,  999.0,  999.0,  999.0,  999.0,  999.0,  999.0,  999.0,  999.0,  999.0,  999.0,  999.0,  999.0,  999.0,  999.0,  999.0,  999.0,  999.0,  999.0,  999.0,  999.0,  999.0,  999.0,  999.0,  999.0,  999.0,  999.0,  999.0,  999.0,  999.0,  999.0,  999.0,  999.0,  999.0,  999.0,  999.0,  999.0,  999.0,  999.0,  999.0,  999.0,  999.0,  999.0,  999.0,  999.0,  999.0,  999.0,  999.0,  999.0,  999.0,  999.0,  999.0,  999.0,  999.0,  999.0,  999.0,   -5.5,  -10.4,   -4.3,  999.0,    4.2,  999.0,  999.0,  999.0
2020/01/31 11:05,  -12.6,  -12.1,  -12.4,  -12.9,  -13.5,  -14.2,  -13.9,  -12.1,  -11.8,   -0.0,    0.2,    0.5,   -1.1,   -2.8,   -1.0,   -3.0,   -2.4,   -6.7,   -6.0,   -8.7,   -7.6,   -6.9,   -7.9,   -8.0,   -8.8,   -8.5,   -8.4,   -7.7,   -7.2,   -4.7,   -1.9,   -7.0,   -7.9,   -7.0,   -6.3,   -5.6,   -5.0,   -4.6,   -4.5,   -4.6,   -4.8,   -4.6,   -5.1,   -4.8,   -3.7,   -3.9,   -4.9,   -2.7,   -3.1,   -4.0,   -4.8,   -4.5,   -4.9,   -5.7,   -5.1,   -3.8,   -3.0,   -2.8,   -1.5,   -2.2,   -4.1,   -4.0,   -3.1,   -3.0,   -1.2,    2.7,    1.7,    0.6,   -0.1,    1.8,    3.0,    4.3,  999.0,    3.9,    5.8,  999.0,  999.0,    2.0,    6.2,    2.2,  999.0,    6.6,  999.0,    4.6,    1.3,  999.0,    0.9,  999.0,    2.8,   -0.4,    2.1,   -0.7,   -1.4,   -0.3,  999.0,   -2.6,  999.0,   -0.5,  999.0,  999.0,   -0.4,  999.0,  999.0,   -7.6,  999.0,  999.0,  999.0,    3.3,  999.0,    1.1,  999.0,  999.0,   -7.7,   -8.6,   -5.3,   -3.1,    0.2,    3.1,    4.6,    5.0
2020/01/31 11:15,  -11.3,  -11.2,   -9.1,  -14.4,  -14.4,  -13.0,  -12.0,  -11.4,  999.0,   -0.5,   -0.9,   -1.5,   -2.6,   -1.1,   -1.6,   -1.5,   -2.3,   -6.9,   -8.7,   -9.9,   -6.2,   -9.1,   -8.8,   -9.2,  -10.0,   -7.7,   -8.1,   -7.7,   -6.8,  999.0,  999.0,   -7.4,   -4.8,   -5.5,   -5.9,   -5.3,   -5.8,   -5.5,   -5.1,   -4.4,   -4.6,   -3.7,   -4.3,   -3.0,   -2.7,   -2.7,   -3.1,   -1.1,   -2.6,   -3.1,   -2.9,   -3.4,   -4.8,   -4.8,   -3.9,   -2.0,   -2.1,   -1.6,   -0.8,   -3.2,   -5.2,  999.0,   -3.1,   -2.1,   -0.4,    1.6,    1.1,  999.0,   -2.0,    0.9,    3.8,    6.8,  999.0,  999.0,  999.0,  999.0,    2.0,    3.4,    7.7,  999.0,    4.5,  999.0,  999.0,    3.0,    2.9,    2.8,    3.1,    0.2,    0.1,    1.9,    1.7,    1.9,  999.0,  999.0,  999.0,    3.2,    0.4,    0.9,  999.0,  999.0,    0.8,  999.0,  999.0,   -5.4,  999.0,  999.0,  999.0,    2.1,    2.0,  999.0,   -9.5,  -11.7,  -10.4,  -11.9,  -10.0,   -6.4,   -3.3,   -0.6,    4.1,    3.0
2020/01/31 11:25,  -12.5,  -12.1,  -11.8,  -11.1,  -12.4,  -15.6,  -16.6,  -12.4,   -0.7,    0.5,    0.3,    0.0,   -2.7,   -3.5,   -1.9,   -3.6,   -1.5,  999.0,   -5.6,   -9.8,   -9.9,   -8.2,   -8.9,   -9.4,   -9.8,   -9.1,   -8.3,   -7.5,   -6.9,  999.0,  999.0,   -3.9,   -6.2,   -6.9,   -4.8,   -4.1,   -4.5,   -4.6,   -5.3,   -4.1,   -3.6,   -3.8,   -3.7,   -3.4,   -2.3,   -3.1,   -3.2,   -2.8,   -3.5,   -4.0,   -5.3,   -6.0,   -6.1,   -4.8,   -3.5,   -1.6,   -1.0,   -1.1,   -0.9,   -0.8,  999.0,   -4.9,   -4.4,   -0.8,   -0.8,    2.6,  999.0,  999.0,   -1.0,   -1.2,    3.0,  999.0,  999.0,  999.0,  999.0,  999.0,    3.4,    3.3,    3.9,  999.0,  999.0,  999.0,  999.0,  999.0,  999.0,  999.0,  999.0,    2.6,    2.5,  999.0,  999.0,  999.0,  999.0,  999.0,  999.0,  999.0,  999.0,    0.6,  999.0,  999.0,  999.0,  999.0,  999.0,  999.0,  999.0,   -7.4,   -2.7,    2.9,  999.0,  999.0,   -6.3,   -9.6,  -10.0,   -8.1,   -7.0,   -8.3,   -6.5,   -3.0,   -0.0,    5.6
2020/01/31 11:35,   -9.0,  -10.5,   -9.9,   -9.4,   -9.8,  -10.8,   -9.7,   -9.6,   -6.9,   -0.4,    0.0,    0.1,   -3.0,   -3.4,   -2.5,   -4.1,   -4.2,   -5.6,   -4.7,   -6.5,   -8.8,   -8.7,   -6.7,   -6.4,   -6.6,   -7.6,   -7.5,   -7.0,   -6.1,   -0.1,  999.0,   -4.9,   -6.9,   -5.1,   -6.3,   -4.2,   -3.6,   -4.3,   -3.7,   -3.3,   -2.8,   -2.6,   -1.9,   -1.4,   -0.7,   -2.3,   -2.3,   -3.2,   -3.0,   -4.3,   -4.5,   -4.2,   -4.4,   -3.6,   -1.8,   -3.0,   -1.4,   -0.8,   -0.9,   -3.8,   -3.5,   -3.2,   -2.9,   -1.4,    1.0,    2.1,  999.0,  999.0,   -1.0,   -0.7,    2.6,  999.0,    0.9,  999.0,  999.0,   -0.0,    2.7,    1.5,    2.6,    4.5,    5.9,    5.2,  999.0,    0.1,   -0.5,    0.9,    1.8,    1.0,    2.2,  999.0,   -2.0,  999.0,  999.0,    1.5,   -0.9,    0.9,   -1.8,  999.0,  999.0,  999.0,  999.0,  999.0,  999.0,  999.0,  999.0,  999.0,  999.0,  999.0,  999.0,  999.0,   -7.7,  999.0,  999.0,  999.0,  999.0,  999.0,  999.0,    3.9,    7.0,   11.4
2020/01/31 11:45,  -10.6,  -10.8,  -10.3,  -10.8,   -9.6,  -11.3,  -11.1,  -10.0,   -1.7,    0.2,   -0.5,   -0.2,   -1.5,   -1.7,   -4.6,   -3.7,   -4.1,   -4.3,   -6.7,   -6.6,   -7.4,   -7.9,   -6.7,   -6.2,   -6.4,   -6.7,   -6.3,   -6.5,   -5.7,   -1.6,   -4.6,   -4.2,   -6.3,   -5.6,   -5.2,   -4.9,   -4.5,   -4.0,   -2.9,   -3.3,   -3.6,   -3.0,   -2.8,   -1.2,   -2.0,   -2.2,   -3.0,   -3.4,   -4.1,   -5.3,   -5.3,   -4.2,   -3.5,   -2.8,   -0.3,   -1.2,    0.0,   -1.3,   -4.4,   -2.5,   -1.7,   -3.2,   -4.3,   -2.5,    0.7,    1.8,  999.0,    0.3,   -1.7,    0.5,    2.3,    1.7,   -0.0,    1.3,    1.0,  999.0,  999.0,    3.3,  999.0,    3.1,    4.6,    3.8,    0.9,  999.0,   -0.3,    0.5,    1.8,    0.0,    0.5,    0.2,  999.0,  999.0,  999.0,  999.0,   -1.8,   -1.3,   -1.5,   -1.3,  999.0,  999.0,  999.0,  999.0,   -2.6,   -2.3,   -6.1,   -6.0,  999.0,    1.6,  999.0,    1.2,   -6.8,  -10.1,  -10.5,  -10.3,   -5.9,   -3.5,    1.2,  999.0,    4.9,    5.0
2020/01/31 11:55,   -5.7,   -6.2,   -4.9,   -5.8,  -10.1,  -10.2,  -10.5,   -9.5,   -3.7,    0.6,   -0.4,   -2.7,   -1.0,   -1.6,   -5.9,   -5.4,   -5.2,   -5.6,   -6.2,   -5.9,   -8.1,   -9.6,   -8.2,   -7.4,   -8.7,   -7.5,   -7.8,   -6.2,   -5.9,  999.0,  999.0,   -3.6,   -6.3,   -6.3,   -6.6,   -6.2,   -6.0,   -6.0,   -4.8,   -4.1,   -4.3,   -3.1,   -2.0,   -0.6,   -1.5,   -2.5,   -3.9,   -3.5,   -4.2,   -5.0,   -5.5,   -5.1,   -4.5,   -2.3,   -1.3,   -1.3,   -0.2,   -1.2,   -3.1,   -0.8,   -2.8,   -3.4,   -3.5,   -1.3,    1.0,    0.1,  999.0,    1.6,    1.1,  999.0,    3.1,    4.5,    3.8,    3.1,  999.0,  999.0,    3.6,    4.5,    6.1,  999.0,  999.0,    4.2,    3.3,  999.0,  999.0,  999.0,    1.6,  999.0,  999.0,  999.0,  999.0,  999.0,   -1.0,  999.0,  999.0,  999.0,  999.0,  999.0,  999.0,  999.0,  999.0,  999.0,  999.0,  999.0,  999.0,  999.0,  999.0,  -10.9,   -1.5,   -4.3,  -10.9,  -12.8,  999.0,  -10.4,   -7.6,   -4.0,  999.0,    3.9,  999.0,   11.8
2020/01/31 12:05,   -7.4,   -7.1,   -8.9,   -9.0,   -9.9,  -11.8,  -12.1,  -11.5,   -1.0,    0.4,   -1.5,   -2.9,   -0.0,   -0.7,   -4.7,   -6.6,   -2.6,   -1.2,   -3.9,   -3.8,   -6.2,   -9.4,   -9.1,   -7.4,   -7.8,   -4.9,   -7.1,   -6.6,   -6.5,   -0.1,   -0.7,   -1.8,   -7.5,   -7.7,   -5.8,   -5.9,   -6.3,   -7.2,   -6.3,   -6.2,   -4.7,   -1.8,   -0.6,   -1.6,   -2.2,   -3.0,   -4.1,   -3.0,   -3.8,   -5.3,   -7.6,   -3.6,   -2.7,   -1.0,   -0.7,    0.8,    2.9,    0.3,   -3.8,   -1.3,    1.2,   -3.3,   -3.7,   -2.4,  999.0,  999.0,   -2.4,   -2.4,   -0.2,    1.0,  999.0,  999.0,    4.6,    2.7,    6.5,    4.4,  999.0,    2.4,  999.0,   11.2,  999.0,  999.0,    2.8,    1.5,    4.3,  999.0,    3.5,  999.0,    0.5,    0.5,  999.0,  999.0,    1.3,  999.0,   -1.6,   -0.8,   -0.7,    2.1,  999.0,  999.0,  999.0,  999.0,  999.0,  999.0,  999.0,   -5.2,   -7.2,   -8.5,   -4.6,   -2.8,   -6.4,  -11.3,  -11.3,  -11.2,   -8.6,   -3.7,    1.8,    3.7,  999.0,  999.0
2020/01/31 12:15,   -6.7,   -7.6,   -9.2,  -10.6,  -13.2,  -14.1,  -12.2,  -10.6,   -0.8,   -0.6,   -0.8,    0.1,    0.1,   -2.4,   -7.3,   -3.7,   -1.7,   -4.0,   -5.2,   -6.2,   -8.2,   -9.3,   -8.6,   -7.0,   -7.7,   -6.5,   -8.7,   -8.4,   -9.5,   -0.0,    0.2,   -4.4,   -9.4,   -9.4,   -8.8,   -8.9,   -8.9,   -7.3,   -6.4,   -6.0,   -4.1,   -2.3,   -1.3,   -2.2,   -3.4,   -4.5,   -4.6,   -2.5,   -4.2,   -6.3,   -8.9,   -5.2,   -4.5,   -4.1,   -3.3,   -1.7,   -1.1,   -3.5,  999.0,   -2.2,   -2.9,   -4.5,   -6.2,   -3.6,   -0.6,  999.0,  999.0,    1.5,  999.0,  999.0,  999.0,  999.0,  999.0,  999.0,    1.3,    2.0,  999.0,  999.0,  999.0,  999.0,  999.0,  999.0,  999.0,  999.0,  999.0,  999.0,    0.8,  999.0,  999.0,  999.0,    1.8,  999.0,  999.0,  999.0,  999.0,  999.0,  999.0,  999.0,  999.0,  999.0,  999.0,  999.0,  999.0,  999.0,  999.0,  999.0,  999.0,  999.0,  999.0,   -5.0,  999.0,  -12.0,  -13.0,  -13.7,  -10.3,   -7.3,  999.0,    2.7,  999.0,    7.8
2020/01/31 12:25,  -11.1,  -11.3,  -11.9,  -13.1,  -14.8,  -14.8,  -12.0,   -7.8,    0.0,    0.0,   -0.3,    0.2,    0.3,   -7.1,   -5.9,   -3.6,   -0.9,   -2.6,   -7.1,   -8.0,   -6.8,   -7.6,   -7.2,   -4.7,   -7.3,   -6.9,   -7.4,   -7.0,   -8.6,    0.0,  999.0,   -6.8,  -10.0,  -11.5,  -11.5,  -10.0,   -8.0,   -6.8,   -5.6,   -6.3,   -3.2,   -2.1,   -2.3,   -1.1,   -2.0,   -3.8,   -3.5,   -0.9,   -2.0,   -3.4,   -7.0,   -2.4,   -1.3,   -0.9,   -0.7,    0.5,    0.4,   -1.8,  999.0,   -1.1,   -2.1,   -2.1,   -3.4,   -2.3,    0.1,   -3.6,   -3.8,   -4.5,   -4.8,   -2.7,   -0.3,  999.0,  999.0,  999.0,  999.0,    7.6,  999.0,  999.0,  999.0,  999.0,  999.0,    2.0,   -0.1,    2.3,  999.0,  999.0,  999.0,  999.0,  999.0,  999.0,  999.0,  999.0,  999.0,  999.0,  999.0,  999.0,  999.0,  999.0,  999.0,  999.0,  999.0,  999.0,  999.0,  999.0,  999.0,  999.0,  999.0,  999.0,  999.0,  999.0,  999.0,  -12.8,  999.0,  -13.3,  999.0,  999.0,  999.0,  999.0,  999.0,  999.0
2020/01/31 12:35,  -13.8,  -12.9,  -12.7,  -13.3,  -13.5,  -15.4,  -12.6,  -11.8,    0.8,    0.4,   -0.8,    0.0,   -0.7,   -1.8,   -3.1,   -3.6,   -2.1,   -2.5,   -3.7,   -8.4,   -6.2,   -6.5,   -6.9,   -3.3,   -4.7,   -5.7,   -6.3,   -6.0,   -7.2,  999.0,   -0.5,   -5.1,  -10.5,  -11.0,  -11.0,   -9.8,   -7.6,   -5.6,   -4.5,   -5.5,   -3.9,   -1.9,   -1.1,   -3.5,   -3.8,   -4.8,   -3.6,   -3.0,   -4.8,   -8.8,   -6.7,   -3.6,   -2.6,   -2.6,   -3.2,   -0.8,   -2.9,   -3.6,   -6.1,  999.0,   -4.9,   -7.1,   -6.2,   -3.9,   -2.4,  999.0,   -8.8,  999.0,   -1.9,   -2.4,   -0.5,    0.7,    1.0,  999.0,    3.0,    3.3,    2.2,    2.0,    4.5,    1.7,    3.5,    2.9,    1.0,    0.9,    3.3,    1.5,  999.0,    0.9,    0.6,    0.3,    1.2,    0.4,  999.0,   -1.3,   -1.1,   -0.4,   -0.4,   -2.5,  999.0,  999.0,    1.6,  999.0,  999.0,  999.0,  999.0,   -7.1,   -8.4,   -5.4,   -3.7,   -7.1,  -11.4,  -14.5,  -14.0,  -11.1,   -7.8,   -4.4,    0.5,    3.7,  999.0,  999.0
2020/01/31 12:45,  -14.8,  -14.5,  -14.5,  -14.2,  -13.4,  -12.8,  -12.1,  -10.5,  -10.6,   -0.2,   -0.2,   -0.6,   -0.1,   -3.6,   -6.1,   -5.4,   -4.5,   -4.9,   -2.9,   -8.4,   -8.1,   -7.3,   -7.4,   -4.0,   -4.6,   -5.6,   -4.9,   -4.8,   -5.8,   -0.0,   -4.3,   -5.3,   -9.3,   -8.0,   -7.4,   -5.3,   -5.7,   -4.9,   -3.2,   -2.3,   -3.5,   -1.0,   -1.1,   -1.4,   -1.1,   -2.9,   -2.3,   -0.2,   -2.5,   -4.2,   -3.5,   -2.7,    0.7,   -0.8,   -0.1,    1.4,    1.2,  999.0,  999.0,  999.0,   -2.9,   -3.8,   -5.6,   -0.8,   -0.0,   -1.1,   -7.5,  999.0,  999.0,   -1.6,    2.0,    4.4,  999.0,  999.0,  999.0,    0.6,    2.6,    0.6,  999.0,  999.0,  999.0,    1.9,    2.7,  999.0,  999.0,    2.0,    1.9,    1.5,  999.0,    2.0,  999.0,  999.0,   -1.0,    0.1,  999.0,  999.0,    0.2,   -1.0,  999.0,  999.0,    2.2,  999.0,  999.0,  999.0,   -1.7,  -12.9,   -5.8,   -4.4,   -2.5,   -5.7,   -9.5,  -11.4,   -9.4,   -7.3,   -3.0,    1.1,    0.7,   10.2,  999.0,    9.0
2020/01/31 12:55,  -13.6,  -12.8,  -12.8,  -13.2,  -13.2,  -12.8,  -13.0,  -13.4,   -0.6,   -1.7,    0.2,  999.0,   -2.9,  -11.5,   -9.2,   -7.7,   -3.7,   -6.3,   -5.4,   -8.7,   -8.6,   -8.1,   -6.9,   -6.0,   -6.5,   -6.4,   -6.6,   -6.4,   -5.0,   -1.7,   -2.0,   -5.0,   -4.3,   -7.4,   -6.6,   -5.9,   -6.1,   -4.8,   -3.8,   -3.4,   -2.7,    0.1,   -0.2,   -0.7,   -1.6,   -1.9,   -1.0,   -0.3,   -3.3,   -3.4,   -1.6,   -0.7,    0.3,    0.9,    0.1,    1.4,    0.4,   -1.1,    0.2,    0.1,   -1.5,   -2.1,   -2.4,    0.1,    1.3,    1.1,   -0.9,   -2.1,   -2.5,   -1.2,    1.4,    0.8,    0.9,    0.8,    4.2,    2.3,    3.3,   -1.0,    0.1,    1.2,    2.5,    5.7,    0.6,    0.2,  999.0,   -1.0,  999.0,    0.4,  999.0,    1.4,  999.0,   -0.3,    0.9,   -0.2,    1.8,    0.4,  999.0,    0.5,    1.6,  999.0,    0.9,    0.8,  999.0,  999.0,  999.0,  999.0,   -6.8,   -6.1,   -3.9,   -7.0,  -12.0,  -13.8,  -12.4,   -9.8,   -5.1,   -1.5,    1.9,  999.0,    8.3,  999.0
2020/01/31 13:05,  -12.1,  -12.5,  -10.8,  -14.6,  -11.8,  -13.3,  -10.8,  -10.5,   -5.1,   -0.6,   -0.8,    0.0,   -5.3,   -6.7,   -7.1,   -5.2,   -2.1,   -4.4,   -6.1,   -8.9,   -7.9,   -7.5,   -6.0,   -4.0,   -4.3,   -7.0,   -6.1,   -6.2,   -5.1,    0.2,   -2.3,   -4.9,   -2.1,   -6.5,   -6.4,   -5.6,   -4.3,   -4.3,   -1.9,   -2.0,   -1.2,    0.7,   -1.1,   -1.5,   -2.8,   -2.9,   -2.2,   -1.1,   -4.3,   -5.4,   -4.2,   -2.3,   -1.5,   -2.3,   -1.1,   -0.7,   -0.4,   -1.5,   -2.8,  999.0,   -1.8,   -2.7,   -1.4,    1.0,    0.8,    1.1,   -0.2,    0.1,    0.1,   -0.0,    1.9,    1.6,    2.9,    3.7,    3.8,    4.2,    3.8,    4.0,    3.3,    1.7,  999.0,    3.0,  999.0,    0.9,  999.0,   -0.0,   -0.9,    0.4,    1.9,    1.5,    1.0,    0.6,    1.3,   -0.6,  999.0,  999.0,   -1.2,   -0.1,   -1.8,    0.9,    1.8,    1.0,  999.0,   -2.1,  999.0,  999.0,  -11.1,   -7.6,   -4.7,   -7.6,  -10.9,  -13.4,  -10.9,   -9.3,   -4.9,    2.1,    6.2,  999.0,  999.0,   12.0
2020/01/31 13:15,  -11.6,  -11.2,  -13.0,  -15.8,  -16.8,  -16.2,  -11.8,  -11.3,   -9.0,   -0.1,   -0.5,   -0.2,   -4.2,   -2.5,   -6.8,   -6.7,   -3.6,   -5.1,   -7.5,   -9.2,   -8.7,   -8.2,   -5.1,   -3.1,   -4.9,   -4.6,   -4.0,   -4.9,   -4.6,   -0.2,   -3.3,   -4.5,   -3.2,   -5.5,   -6.3,   -5.0,   -3.7,   -4.9,   -3.0,   -2.8,   -0.2,   -0.5,   -2.4,   -3.6,   -4.5,   -4.2,   -5.1,   -3.2,   -5.1,   -7.2,   -4.4,   -2.6,   -1.8,   -3.6,   -0.6,   -0.1,   -2.9,   -2.8,   -3.4,   -0.5,   -2.8,   -5.4,   -2.4,   -0.6,    1.4,    0.1,   -1.0,   -1.7,   -5.6,  999.0,  999.0,  999.0,    3.2,    2.0,    3.1,    1.6,    2.7,    3.0,    2.3,    1.2,    2.1,    0.9,  999.0,  999.0,  999.0,    0.2,  999.0,    1.2,    2.5,   -0.4,  999.0,    0.2,    0.9,  999.0,  999.0,  999.0,    5.5,  999.0,   -0.1,  999.0,  999.0,  999.0,  999.0,  999.0,  999.0,  999.0,   -3.6,  999.0,   -3.1,   -5.4,  -10.5,  -14.0,  -14.7,  -11.0,   -6.1,   -1.2,    2.4,  999.0,  999.0,  999.0
2020/01/31 13:25,  999.0,  999.0,  -10.8,  999.0,  999.0,  999.0,  -13.8,   -9.9,  999.0,   -1.9,   -0.1,   -0.8,   -4.2,   -2.4,   -4.1,   -4.8,   -3.4,   -7.4,   -6.5,   -9.9,   -9.6,   -8.0,   -7.2,   -4.4,   -5.5,   -7.0,   -4.9,   -6.8,   -7.8,    0.2,    0.1,   -4.8,   -7.6,   -6.7,   -6.1,   -4.5,   -3.6,   -4.9,   -3.1,   -2.8,   -1.7,   -1.2,   -3.8,   -4.4,   -4.2,   -4.3,   -4.1,   -2.7,   -5.3,   -8.1,   -5.4,   -3.0,   -3.1,   -4.8,   -1.7,   -0.5,   -2.2,   -1.3,   -1.5,   -0.9,   -2.5,   -3.4,   -1.4,    0.6,    2.1,   -1.0,   -0.9,   -1.8,   -1.6,  999.0,    0.4,    0.6,    1.4,    2.5,    4.5,    2.1,    2.0,    1.3,    2.0,    1.5,    0.5,    0.4,    1.0,    0.7,  999.0,  999.0,  999.0,   -1.6,    0.3,    0.4,    0.9,    0.8,    0.2,    0.7,  999.0,   -0.2,   -0.4,   -0.7,  999.0,  999.0,  999.0,    0.8,   -1.7,   -2.6,  999.0,   -4.5,  -11.0,   -7.1,   -5.2,   -7.4,  -12.7,  -14.3,  -14.4,  -10.3,   -6.1,    0.1,    2.5,  999.0,  999.0,  999.0
2020/01/31 13:35,   -8.4,  -11.1,  -13.7,  -15.6,  999.0,  999.0,  -12.9,  -10.6,   -1.0,  999.0,    0.3,   -0.9,   -5.2,   -3.9,   -8.5,   -8.4,   -3.7,   -6.4,   -9.9,  -10.4,   -9.0,   -8.5,   -6.7,   -6.8,   -6.6,   -6.2,   -4.0,   -8.4,   -7.7,    0.2,   -1.3,   -5.4,   -6.5,   -6.1,   -4.7,   -4.2,   -4.0,   -5.8,   -3.2,   -3.5,   -2.4,   -3.0,   -4.9,   -4.7,   -4.0,   -4.6,   -4.2,   -3.1,   -6.7,   -9.5,   -5.8,   -3.4,   -2.8,   -3.1,   -1.0,   -0.1,   -1.5,   -1.4,   -0.4,   -0.1,   -1.1,   -2.1,   -1.4,    0.3,    0.9,   -0.4,   -3.0,   -3.1,   -2.4,   -1.5,   -0.1,   -0.5,    0.1,   -0.2,    1.4,    1.9,    2.2,    2.1,  999.0,    3.3,   -1.5,   -0.4,    1.4,  999.0,  999.0,    0.9,    0.2,   -0.1,    0.3,  999.0,  999.0,    1.1,    2.0,   -0.3,    0.7,    0.4,    0.4,    0.1,  999.0,   -0.5,  999.0,  999.0,   -1.5,   -1.0,  999.0,  999.0,   -9.0,   -7.2,   -2.9,   -8.0,  -12.3,  -14.1,  -11.1,   -8.8,   -1.2,    1.7,    4.4,  999.0,  999.0,  999.0
2020/01/31 13:45,  -19.9,  -18.3,  -15.2,  -16.4,  -14.9,  -12.3,  -11.9,   -7.8,   -3.1,   -4.8,   -0.9,   -1.4,   -7.5,   -7.2,   -8.1,   -5.9,   -5.4,   -7.5,   -8.2,   -9.7,   -9.0,   -9.0,   -7.8,   -6.3,   -7.4,   -7.2,   -6.9,   -7.1,   -6.0,    0.0,  999.0,   -6.9,   -6.1,   -5.4,   -4.4,   -2.9,   -5.1,   -4.8,   -3.2,   -2.9,   -3.1,   -3.3,   -4.4,   -4.1,   -3.2,   -3.1,   -2.0,   -1.2,   -5.8,   -6.6,   -4.2,   -2.8,   -2.9,   -1.9,    0.4,    0.6,    0.4,   -1.3,   -0.1,    0.4,   -1.5,   -0.4,   -1.1,    1.2,    0.8,    0.3,   -0.0,   -0.1,   -0.8,   -0.4,    0.7,    1.9,    2.3,    0.7,    2.7,    2.5,    4.0,    2.7,    2.0,    0.3,  999.0,  999.0,  999.0,  999.0,  999.0,    2.1,    0.7,    0.5,   -0.3,   -1.1,   -0.5,  999.0,   -0.7,  999.0,   -0.8,   -0.3,   -0.6,    0.7,   -0.3,    0.0,   -1.3,   -1.7,   -3.8,  999.0,   -3.5,   -6.6,   -7.8,   -3.9,   -3.2,   -5.6,  -11.1,  -12.1,  -11.5,  -11.3,   -5.6,   -1.0,    2.3,    2.8,  999.0,  999.0
2020/01/31 13:55,  -17.2,  -16.0,  -15.4,  -14.5,  -13.3,  -10.7,   -9.8,  999.0,   -1.9,   -1.6,   -0.9,   -1.0,   -2.4,   -8.0,   -4.6,   -2.2,   -3.9,   -3.2,   -5.4,   -9.3,   -8.6,   -8.5,   -7.3,   -6.5,   -7.6,   -7.6,   -6.8,   -7.1,   -4.7,    0.1,   -4.2,   -7.0,   -4.5,   -4.6,   -4.2,   -3.2,   -4.6,   -3.2,   -1.7,   -2.2,   -2.0,   -3.1,   -4.3,   -2.3,   -2.5,   -1.0,   -1.0,   -0.8,   -5.9,   -6.4,   -2.3,   -2.2,   -2.3,   -1.6,   -0.7,   -1.4,   -2.8,   -2.1,   -0.6,   -1.2,   -0.1,   -1.7,   -0.1,    1.5,   -0.4,   -1.8,   -1.3,   -1.3,   -1.9,   -1.5,   -0.5,    1.3,    1.1,    2.7,    3.0,    3.0,    3.5,    2.4,    3.3,   -1.9,    0.6,    1.4,    0.5,    0.4,    0.5,    0.6,  999.0,    0.5,    1.2,   -1.5,    0.3,  999.0,    1.3,   -1.0,  999.0,  999.0,    0.3,    0.4,  999.0,    4.3,    1.6,   -1.4,   -2.5,   -4.8,   -9.9,  -12.8,  -10.0,  -11.7,   -4.4,   -7.2,  -10.7,  -13.0,  -12.8,  -10.2,   -4.8,    0.0,    3.3,    6.5,    4.9,  999.0
2020/01/31 14:05,  -16.4,  -16.7,  -16.6,  -14.6,  -14.4,  -13.8,  -11.5,   -1.7,   -2.6,   -0.5,   -0.8,   -1.2,   -5.0,   -8.1,   -7.0,   -1.7,   -5.2,   -3.5,   -7.2,   -8.9,   -7.8,   -8.0,   -6.5,   -4.7,   -5.5,   -6.8,   -6.6,   -6.2,   -1.8,  999.0,  999.0,   -6.5,   -4.8,   -4.2,   -2.9,   -2.8,   -3.2,   -3.2,   -1.0,   -1.0,   -2.7,   -4.9,   -5.6,   -4.9,   -4.1,   -2.4,   -1.8,   -1.5,   -4.3,   -5.5,   -1.1,   -2.0,   -3.6,   -2.5,   -0.7,   -2.7,   -3.0,   -3.0,   -1.5,   -0.2,   -0.9,   -0.5,    1.3,   -0.8,   -0.4,   -2.7,   -2.8,   -2.6,  999.0,   -1.8,    1.7,   -0.4,    2.2,    3.3,    2.3,  999.0,    3.3,    1.9,    1.4,    1.3,    0.6,   -1.1,  999.0,  999.0,  999.0,    2.1,    1.5,   -0.8,    1.3,    1.5,    1.8,  999.0,   -0.7,  999.0,   -0.9,   -1.1,   -2.1,   -1.7,    0.7,   -0.3,   -2.5,   -3.3,  999.0,   -5.8,  999.0,  -10.0,  -10.3,  -11.7,   -4.7,   -3.8,   -7.1,  -10.7,  -11.1,   -7.2,   -2.6,    1.4,    4.0,  999.0,    7.3,  999.0
2020/01/31 14:15,  -13.4,  -16.6,  -16.3,  -16.8,  -15.4,  -15.0,  -11.9,  -10.0,   -1.4,   -0.4,   -0.4,   -2.8,  -11.3,   -6.8,   -6.1,   -2.2,   -3.4,   -2.0,   -8.5,   -9.5,   -9.1,   -9.4,   -8.2,   -6.1,   -6.9,   -6.6,   -6.0,   -4.5,   -2.6,  999.0,  999.0,   -4.9,   -3.5,   -3.5,   -3.5,   -2.9,   -3.0,   -2.2,   -2.0,   -1.4,   -3.6,   -5.7,   -6.1,   -4.8,   -4.2,   -5.3,   -3.5,   -1.4,   -6.8,   -6.4,   -2.7,   -3.7,   -3.8,    0.4,   -2.6,   -2.1,   -3.3,   -3.0,   -0.4,   -1.7,   -1.4,    2.0,    1.9,   -0.1,   -3.2,   -4.4,   -1.8,  999.0,   -0.1,  999.0,  999.0,  999.0,    3.1,    4.3,    4.6,    0.7,    1.8,    1.4,    1.1,    0.5,    1.8,   -1.0,    0.9,  999.0,  999.0,  999.0,    1.9,    1.0,  999.0,    0.1,    1.0,   -0.4,    1.2,    1.2,  999.0,  999.0,   -1.7,    3.0,  999.0,  999.0,   -2.2,    0.4,   -2.4,  999.0,  999.0,  999.0,   -9.8,   -9.6,   -4.3,   -4.2,   -8.1,  -12.1,  -11.8,  -10.4,   -7.8,  999.0,  999.0,  999.0,  999.0,  999.0
2020/01/31 14:25,  -11.8,  -12.1,  -12.8,  -14.5,  -16.5,  -13.6,  -15.2,   -5.2,   -1.2,   -0.6,   -1.9,   -4.2,   -8.3,   -4.4,   -1.8,   -3.4,   -3.1,   -4.5,   -9.1,   -8.2,   -8.7,   -9.5,   -8.1,   -6.2,   -6.0,   -6.0,   -5.1,   -4.3,   -4.7,    0.2,   -3.3,   -4.1,   -4.8,   -3.2,   -3.2,   -2.3,   -3.0,   -2.1,   -1.5,   -2.5,   -3.8,   -6.3,   -6.2,   -3.5,   -2.8,   -2.0,   -3.2,   -0.3,   -5.0,   -3.8,   -1.9,   -4.3,   -5.1,   -1.8,  999.0,  999.0,  999.0,    0.2,  999.0,  999.0,  999.0,   -0.3,  999.0,   -4.4,   -3.9,  999.0,  999.0,  999.0,  999.0,  999.0,  999.0,  999.0,  999.0,  999.0,   -1.5,   -1.9,  999.0,  999.0,  999.0,   -0.2,   -0.6,    0.8,  999.0,  999.0,  999.0,  999.0,   -0.0,   -1.2,  999.0,  999.0,  999.0,  999.0,    1.1,  999.0,  999.0,  999.0,  999.0,    1.1,    0.9,    1.8,  999.0,   -1.8,  999.0,   -5.1,  999.0,  -12.5,  -10.4,   -7.6,   -5.4,   -3.6,  999.0,  -15.6,  999.0,  -13.5,   -6.2,    0.3,  999.0,  999.0,  999.0,  999.0
2020/01/31 14:35,  -12.1,  -11.6,  -11.9,  -11.5,  -13.1,  -14.3,  -12.7,   -1.0,   -1.7,   -0.4,   -0.6,   -2.2,   -5.1,   -2.8,   -0.8,   -1.6,   -0.9,   -2.0,   -8.8,   -7.7,   -7.0,   -6.8,   -4.4,   -4.0,   -5.4,   -7.2,   -6.6,   -4.8,   -2.0,   -0.2,   -0.2,   -3.2,   -2.9,   -4.0,   -3.8,   -2.7,   -3.0,   -2.4,   -2.1,   -2.4,   -2.8,   -5.1,   -4.3,   -2.2,   -1.3,   -2.0,   -2.4,   -2.0,   -5.4,   -3.5,   -1.3,   -2.8,   -6.0,   -2.3,   -1.7,   -4.2,   -3.0,   -2.2,   -1.6,   -0.4,   -0.5,    1.0,   -2.0,   -0.4,   -1.8,   -1.7,   -2.9,   -0.6,    1.5,   -1.5,   -2.9,   -0.1,  999.0,    1.1,   -0.9,   -1.2,  999.0,    2.4,   -1.2,    2.4,    2.3,  999.0,    0.3,  999.0,  999.0,  999.0,  999.0,   -0.4,  999.0,  999.0,  999.0,  999.0,   -0.0,  999.0,  999.0,  999.0,  999.0,  999.0,    1.4,  999.0,  999.0,   -1.2,  999.0,   -5.6,  999.0,   -9.9,   -9.1,   -7.2,   -3.6,   -2.0,   -5.5,  -11.0,  -12.4,   -7.2,   -3.2,    0.4,    4.1,    4.2,  999.0,  999.0
2020/01/31 14:45,  -15.4,  -14.8,  -13.4,  -12.7,  -13.1,  -13.3,  -12.4,   -0.7,   -1.7,    0.1,   -0.4,   -5.1,   -5.2,   -4.3,   -1.7,   -2.5,   -2.7,   -3.7,   -8.3,   -8.0,   -8.0,   -7.7,   -7.2,   -6.2,   -5.5,   -6.5,   -5.8,   -4.6,   -2.0,   -0.0,   -0.2,   -4.7,   -3.1,   -3.7,   -3.7,   -3.7,   -3.2,   -2.9,   -1.9,   -2.5,   -3.9,   -5.4,   -5.0,   -2.1,   -1.3,   -2.8,   -3.2,   -2.1,   -5.0,   -3.8,   -1.8,   -2.9,   -4.3,   -2.4,   -2.2,   -4.6,   -3.5,   -0.6,   -0.3,   -1.9,   -1.9,   -1.6,   -0.8,   -3.1,   -3.7,   -3.4,   -2.5,   -0.2,   -0.8,  999.0,   -2.4,   -1.5,   -0.3,   -0.7,    1.2,    0.0,  999.0,    0.7,    0.6,    0.9,    1.9,  999.0,    4.8,    3.9,  999.0,  999.0,  999.0,    0.3,   -1.6,    2.6,    0.5,  999.0,    1.1,   -1.3,  999.0,    0.9,   -0.5,    0.2,    1.1,   -0.7,  999.0,   -1.0,  999.0,  999.0,   -8.5,  -13.0,  -13.5,   -8.8,   -8.9,  -11.4,   -8.3,  -14.5,   -9.9,   -6.0,   -2.1,    1.7,    3.6,  999.0,  999.0,  999.0
2020/01/31 14:55,  -14.3,  -13.8,  -13.3,  -13.0,  -13.9,  -14.5,   -6.3,   -0.0,   -1.8,   -0.0,   -1.7,   -1.5,   -4.5,   -3.1,   -1.8,   -3.6,   -1.6,   -6.3,   -8.4,   -6.6,   -8.1,   -7.2,   -7.8,   -7.6,   -7.3,   -7.2,   -5.8,   -6.3,   -2.4,    0.0,   -0.4,   -0.1,   -5.5,   -4.0,   -4.0,   -4.0,   -4.2,   -3.8,   -1.6,   -4.5,   -4.3,   -6.0,   -6.4,   -4.0,   -2.9,   -3.1,   -1.8,   -2.5,   -4.6,   -3.2,   -0.5,   -2.2,   -3.4,   -1.1,   -2.4,   -4.1,   -2.7,   -1.1,   -1.6,   -0.2,   -1.7,   -2.4,   -2.6,   -3.2,  999.0,  999.0,  999.0,   -2.8,   -1.4,    0.5,   -3.2,   -2.2,   -2.0,   -2.3,  999.0,    0.7,   -0.7,    0.0,   -0.2,    2.5,    4.3,    2.4,    3.7,  999.0,  999.0,  999.0,    1.8,  999.0,   -0.5,    0.2,   -1.3,   -1.2,  999.0,   -0.7,   -0.2,    1.4,    1.4,  999.0,    1.0,   -0.1,   -3.9,   -2.8,   -4.7,  999.0,  999.0,  -12.2,  -11.7,  -12.0,   -4.4,   -5.7,   -7.1,  -11.8,  -13.9,   -6.7,   -2.3,    1.4,  999.0,  999.0,  999.0,    5.0
2020/01/31 15:05,  -12.8,  -12.1,  -12.3,  -15.8,  -15.5,  -14.4,   -6.4,   -1.0,   -1.3,   -0.9,   -1.8,   -0.7,   -3.8,   -4.7,   -4.2,   -3.5,   -1.9,   -7.6,   -6.7,   -4.0,   -7.1,   -5.3,   -7.1,   -5.2,   -4.1,   -6.2,   -5.6,   -5.7,   -1.9,    0.3,    0.3,   -3.5,   -4.8,   -3.4,   -4.0,   -5.1,   -4.6,   -4.0,   -3.0,   -3.9,   -6.1,   -6.6,   -7.4,   -6.5,   -4.3,   -5.5,   -4.8,   -2.1,   -4.3,   -6.1,   -3.9,   -5.6,   -4.4,   -2.5,   -2.7,   -4.1,   -2.6,   -5.5,   -4.6,   -1.5,   -2.9,   -2.2,  999.0,   -2.6,   -4.1,   -4.9,   -3.9,   -2.9,   -3.7,   -3.2,   -2.6,   -1.0,  999.0,  999.0,  999.0,  999.0,  999.0,  999.0,  999.0,  999.0,  999.0,  999.0,  999.0,  999.0,  999.0,  999.0,  999.0,  999.0,  999.0,  999.0,  999.0,  999.0,  999.0,  999.0,  999.0,  999.0,  999.0,  999.0,  999.0,  999.0,  999.0,  999.0,  999.0,  999.0,  999.0,  -10.8,  -10.7,   -8.4,  999.0,  999.0,   -7.8,  -11.8,  -12.5,   -8.6,   -3.6,   -0.2,    3.5,  999.0,  999.0,  999.0
2020/01/31 15:15,  -16.6,  -14.4,  -13.4,  -14.6,  -14.5,  -15.8,  999.0,  999.0,   -5.4,   -2.4,   -1.5,   -0.3,   -2.9,   -4.0,   -4.7,   -1.7,   -3.4,   -6.3,   -3.6,   -5.6,   -6.3,   -5.6,   -5.2,   -4.9,   -5.0,   -5.5,   -4.3,   -2.9,   -0.9,    0.5,   -1.2,   -4.3,   -5.0,   -3.2,   -3.3,   -4.5,   -4.2,   -2.8,   -3.4,   -4.2,   -4.4,   -6.1,   -6.8,   -6.6,   -4.3,   -3.7,   -3.4,   -1.7,   -5.5,   -5.0,   -3.5,   -4.5,   -4.5,   -1.5,   -3.0,   -3.9,   -2.2,   -2.0,   -1.3,   -1.5,   -0.5,   -0.3,    2.1,   -1.5,    0.9,   -0.0,    1.2,    0.6,   -0.0,   -1.7,   -0.3,    1.0,    2.6,  999.0,    0.6,    0.5,   -1.1,    2.8,   -1.2,   -0.6,    1.0,    0.8,    1.9,    2.3,    1.2,  999.0,    0.7,    0.2,   -0.5,    0.3,   -0.3,    1.6,    1.0,  999.0,    0.7,    0.7,    1.7,    0.5,  999.0,   -2.0,  999.0,   -2.0,   -4.5,   -5.7,   -9.5,  -11.1,   -9.5,   -9.1,   -7.6,   -8.1,   -6.2,  -10.9,  -13.1,  -11.4,   -3.8,   -0.5,    2.7,    4.0,    7.5,    7.0
2020/01/31 15:25,  -17.3,  -15.9,  -16.6,  -16.3,  -16.0,  -14.4,  -14.6,   -0.7,   -1.1,   -1.1,   -1.2,   -1.7,   -1.5,   -5.8,   -5.7,   -2.2,   -3.7,   -7.2,   -5.0,   -6.2,   -4.4,   -7.7,   -6.5,   -5.2,   -6.7,   -6.1,   -5.7,   -3.7,   -0.6,   -0.1,   -2.7,   -4.6,   -4.1,   -2.7,   -2.6,   -3.1,   -2.6,   -2.1,   -1.8,   -3.5,   -4.6,   -4.7,   -4.8,   -4.6,   -2.9,   -2.8,   -3.0,   -1.7,   -3.7,   -4.2,   -3.2,   -4.4,   -5.5,   -2.5,   -2.8,   -2.6,   -2.3,   -2.1,   -2.0,   -0.1,    1.2,   -0.9,   -0.9,    0.4,   -0.1,    1.1,    0.0,    1.0,  999.0,   -1.6,   -1.5,   -1.5,   -1.3,   -0.8,   -0.6,   -0.8,   -0.0,   -1.8,   -2.0,   -0.6,    2.5,    1.0,  999.0,  999.0,   -1.0,    0.6,    0.0,  999.0,  999.0,  999.0,  999.0,    0.6,   -1.5,    0.2,    0.4,    0.1,   -0.3,  999.0,  999.0,   -1.3,   -2.8,   -2.7,   -6.5,   -6.5,  -10.9,  -12.6,  -12.5,   -9.8,   -9.4,   -5.4,   -6.5,   -9.8,  -12.0,  -11.7,   -5.2,   -1.4,    1.0,    3.1,    7.3,    6.6
2020/01/31 15:35,  -17.5,  -19.1,  -15.5,  -15.3,  -13.8,  -12.8,  -13.4,   -8.9,   -2.4,   -0.2,   -0.2,   -0.5,   -4.0,   -2.6,   -8.2,   -5.4,   -3.9,   -8.9,   -7.2,   -4.8,   -7.7,   -7.5,   -5.9,   -6.9,   -6.3,   -6.4,   -5.4,   -5.6,   -0.1,    0.1,  999.0,   -3.5,   -3.2,   -2.9,   -2.8,   -2.0,   -2.2,   -1.2,   -1.2,   -3.1,   -3.6,   -4.3,   -4.1,   -2.6,   -1.9,   -0.7,   -3.8,   -1.0,   -2.9,   -3.1,   -3.0,   -4.4,   -4.7,   -2.3,   -3.7,   -2.6,   -4.7,   -2.4,   -1.4,   -0.2,   -0.6,   -0.6,    0.0,    0.2,    0.9,    2.2,    0.7,   -1.5,    0.7,   -0.6,   -1.2,   -1.0,   -1.8,   -0.8,    1.1,    1.3,   -1.6,   -1.9,   -0.2,    2.2,    4.1,    3.9,    0.7,   -0.2,   -0.3,  999.0,  999.0,   -0.0,   -0.5,  999.0,  999.0,  999.0,  999.0,    1.0,  999.0,    0.7,   -0.2,   -0.6,    0.3,   -1.4,  999.0,   -5.1,   -4.6,   -7.6,  -10.8,  -12.4,  -12.7,  -12.4,   -8.2,   -5.5,  -10.0,  -11.7,  -14.1,  -10.5,   -7.7,   -5.8,   -0.7,    0.9,  999.0,  999.0
2020/01/31 15:45,  -17.6,  -18.3,  -16.9,  -16.5,  -18.2,  -15.9,  -12.5,   -2.7,   -4.4,    0.7,   -1.0,   -1.7,   -2.2,   -4.6,   -3.8,   -2.9,   -7.1,   -8.5,   -2.5,   -6.5,   -6.6,   -6.0,   -6.2,   -4.7,   -6.7,   -7.1,   -3.2,   -3.3,   -1.1,   -0.2,  999.0,   -2.7,   -1.9,   -1.5,   -2.0,   -1.3,   -1.1,   -1.3,   -0.7,   -3.0,   -3.4,   -4.1,   -3.5,   -2.8,   -0.5,   -1.3,   -1.3,   -1.2,   -1.6,   -2.6,   -2.3,   -2.9,   -4.4,   -0.1,   -0.9,   -1.3,   -2.8,   -2.8,   -1.6,   -0.7,   -0.8,   -0.2,    1.2,    1.3,    2.8,    2.0,    2.5,    1.6,    1.7,    1.5,   -0.3,   -1.1,   -1.2,   -1.8,  999.0,  999.0,  999.0,   -0.9,    1.9,    2.1,    5.6,    5.5,   -0.8,  999.0,   -1.6,  999.0,   -0.5,    0.2,  999.0,  999.0,    0.4,   -0.8,  999.0,  999.0,  999.0,  999.0,  999.0,  999.0,  999.0,   -1.0,   -5.6,   -5.6,   -5.7,   -7.8,  -10.3,  -13.7,  999.0,  -11.9,  999.0,  999.0,  999.0,  -10.3,  999.0,  -13.3,  -13.1,   -7.9,   -0.2,    0.3,    2.6,  999.0
2020/01/31 15:55,  -15.5,  -16.6,  -17.2,  -15.6,  -15.1,  -12.7,  -13.0,   -2.9,   -3.7,    0.4,   -0.0,    0.6,   -1.7,   -3.8,   -5.5,   -4.1,   -7.8,   -7.7,   -5.8,   -8.3,   -9.5,   -7.6,   -7.5,   -6.0,   -6.9,   -6.3,   -5.2,   -3.3,   -4.0,  999.0,   -1.7,   -3.3,   -2.8,   -1.9,   -2.6,   -1.8,   -4.0,   -2.8,   -3.8,   -7.4,   -7.4,   -7.2,   -4.2,   -4.9,   -2.3,   -4.0,   -2.8,   -0.9,   -2.6,   -3.3,   -3.6,   -5.7,   -4.6,   -2.1,   -2.5,   -4.0,   -4.6,   -3.8,   -4.8,   -4.4,   -2.8,   -1.8,    0.4,    0.6,   -1.1,    0.7,   -0.3,   -3.2,   -1.9,   -1.0,  999.0,   -1.9,   -3.5,  999.0,  999.0,  999.0,  999.0,   -0.7,   -0.2,    1.5,    4.7,    5.5,    1.3,  999.0,   -0.4,  999.0,    1.0,   -1.2,  999.0,  999.0,   -2.1,   -0.0,  999.0,  999.0,    0.6,   -1.0,  999.0,   -0.8,   -1.6,  999.0,   -2.5,   -4.2,   -5.4,   -7.1,  999.0,  999.0,  -16.5,   -7.1,   -7.5,   -3.4,   -5.5,   -8.3,  -11.5,  -13.4,  -12.7,   -6.0,   -3.0,   -0.7,  999.0,  999.0
2020/01/31 16:05,  -15.5,  -16.6,  -18.8,  -17.0,  -16.1,  -13.2,   -9.3,   -2.6,   -1.0,   -4.6,   -0.6,   -0.6,   -1.3,   -2.4,   -6.7,   -6.2,   -6.2,   -4.0,   -3.7,   -7.2,   -5.8,   -5.3,   -8.0,   -5.4,   -8.1,   -7.9,   -4.6,   -2.8,   -4.8,  999.0,   -2.2,   -3.5,   -3.2,   -3.0,   -3.4,   -3.2,   -2.8,   -3.2,   -4.4,   -5.8,   -6.7,   -4.8,   -4.5,   -0.9,   -2.4,   -2.9,   -3.0,   -1.3,   -2.5,   -3.6,   -3.3,   -5.8,   -7.5,   -2.8,   -3.9,   -3.9,   -5.4,   -6.1,   -5.5,   -4.1,   -3.3,   -2.2,   -1.6,   -0.6,    0.5,    1.1,   -1.1,   -0.6,   -2.0,   -4.3,   -4.9,   -2.7,    1.5,    1.1,    2.7,    2.2,   -1.3,    0.0,   -1.7,    2.9,    4.8,    3.0,    1.1,   -0.5,  999.0,   -0.1,    0.1,    1.0,    1.2,   -0.3,    0.6,    0.0,    1.2,    1.4,    1.1,    2.2,  999.0,   -0.3,   -1.5,   -3.6,   -3.4,   -5.0,  999.0,   -4.1,  999.0,  999.0,  -12.6,  -12.7,   -7.7,   -5.5,   -7.2,   -9.2,  -11.2,  -12.5,  -11.5,  -10.9,   -4.6,    0.7,    2.8,    4.2
2020/01/31 16:15,  -13.9,  -15.4,  -15.2,  -16.6,  -15.7,  -15.1,  -14.0,   -2.4,   -0.7,   -0.7,   -0.9,    0.2,   -0.8,   -3.9,   -6.5,   -5.5,   -6.9,   -8.9,   -4.2,   -8.7,   -7.8,   -5.2,   -7.3,   -6.9,   -7.4,   -7.6,   -5.6,   -4.4,   -6.2,  999.0,  999.0,   -3.2,   -3.8,   -3.9,   -1.9,   -2.0,   -1.5,   -1.6,   -1.4,   -5.1,   -4.0,   -3.7,   -1.5,   -1.7,   -3.6,   -2.4,   -1.6,   -0.1,   -1.9,   -3.8,   -2.6,   -5.9,   -8.8,   -2.3,   -4.0,   -2.5,   -3.7,   -4.6,   -4.0,   -2.5,   -1.5,   -4.4,    0.2,    0.3,    1.0,    0.7,    0.7,   -2.2,   -1.6,   -2.0,   -2.3,   -1.5,  999.0,    0.6,    1.5,   -0.1,   -0.9,   -1.7,    1.9,    1.7,    2.6,    1.0,    1.2,   -0.8,    0.2,    0.3,  999.0,   -0.4,    0.4,   -0.5,   -0.8,  999.0,   -0.8,   -1.3,    0.7,   -0.5,   -1.1,    0.5,   -1.5,   -4.7,   -5.3,   -5.0,   -6.1,  999.0,  999.0,  999.0,  -11.4,   -9.7,   -6.2,   -7.4,   -5.8,   -8.1,   -9.8,   -9.8,   -9.6,   -8.1,   -1.5,    3.5,    3.6,    6.9
2020/01/31 16:25,  -14.1,  -14.0,  -14.4,  -14.3,  -12.7,  -13.3,  -12.1,   -3.0,   -2.1,   -1.6,   -2.5,   -1.1,   -1.1,   -2.4,   -7.7,   -6.8,   -7.1,   -8.8,   -5.7,   -7.8,   -7.9,   -7.0,   -7.0,   -6.7,   -7.0,   -7.0,   -8.1,   -3.3,   -6.0,   -2.3,   -3.6,   -3.3,   -2.8,   -2.6,   -2.4,   -2.5,   -1.6,   -3.5,   -3.1,   -5.2,   -4.5,   -3.0,   -1.0,   -1.5,   -1.7,   -1.3,   -0.9,   -0.9,   -1.6,    0.6,   -0.3,   -4.5,   -3.4,   -0.6,   -1.2,   -1.0,   -3.5,   -3.4,   -3.9,   -2.0,   -0.6,   -0.7,   -1.0,    0.2,    0.3,   -2.2,   -0.1,   -2.4,   -0.3,  999.0,    0.0,   -0.9,  999.0,  999.0,  999.0,   -0.9,    0.4,  999.0,   -0.8,    2.0,  999.0,  999.0,  999.0,    0.5,    0.7,    1.1,    0.2,  999.0,  999.0,  999.0,    0.3,   -0.9,   -0.8,   -0.8,  999.0,  999.0,  999.0,    1.8,  999.0,  999.0,   -5.2,  999.0,  999.0,  999.0,  999.0,  999.0,  -14.1,  -11.4,   -6.3,  999.0,  999.0,  999.0,   -5.7,  -10.3,   -8.3,   -9.9,  999.0,  999.0,  999.0,  999.0
2020/01/31 16:35,  -13.9,  -14.2,  -14.1,  -13.1,  -12.4,  -13.7,  -12.7,   -2.6,   -3.2,   -2.4,   -2.1,   -1.6,   -3.9,   -3.7,   -7.9,   -6.9,   -6.3,   -6.4,   -4.7,   -6.5,   -7.2,   -8.3,   -6.8,   -6.6,   -6.0,   -5.3,   -5.6,   -2.4,   -4.8,  999.0,  999.0,   -2.6,   -2.6,   -1.8,   -0.7,   -0.8,   -0.5,   -1.5,   -1.6,   -3.7,   -2.9,   -1.9,   -0.5,   -0.9,   -1.7,   -1.5,   -1.7,   -0.8,   -2.2,   -0.3,    0.1,   -4.3,   -0.8,    0.2,   -2.1,   -1.3,   -1.8,   -0.9,   -2.5,    0.4,    0.6,    0.2,   -0.9,   -0.2,    0.3,    2.5,    0.5,  999.0,    1.1,   -1.3,   -0.6,   -1.4,    1.3,   -1.2,   -2.0,   -1.2,   -2.0,  999.0,    1.8,    2.0,  999.0,    0.1,    1.4,   -0.4,    1.0,   -0.6,   -0.8,   -1.5,    1.2,  999.0,   -1.3,   -0.3,    0.1,   -1.2,   -0.4,  999.0,   -0.4,   -1.3,  999.0,   -4.9,   -5.2,  999.0,  999.0,  999.0,  999.0,  999.0,  -14.8,  -12.1,   -8.6,   -6.6,   -2.9,   -2.5,   -4.7,   -6.5,   -7.0,   -6.5,  999.0,    2.8,  999.0,  999.0
2020/01/31 16:45,  -13.9,  -14.4,  -15.1,  -15.0,  -14.9,  -14.7,  -14.5,   -2.1,   -4.4,   -3.1,   -0.8,   -1.4,   -3.9,   -4.3,   -6.9,   -7.0,   -6.7,   -7.4,   -5.5,   -6.8,   -5.6,   -4.9,   -5.7,   -6.2,   -5.9,   -6.1,   -6.1,   -4.5,   -4.7,   -3.3,   -3.0,   -3.4,   -2.1,   -1.5,   -2.5,   -1.3,   -0.6,   -2.8,   -3.5,   -3.9,   -4.6,   -1.5,   -2.0,   -2.3,   -1.9,   -2.1,   -1.8,   -0.5,   -2.0,    1.0,   -1.0,   -3.4,   -0.8,    0.5,   -1.6,   -0.3,   -1.2,   -0.1,   -0.5,    0.4,    0.9,    0.1,    0.7,    0.8,    1.3,    1.2,    2.2,   -0.3,   -2.1,   -0.8,  999.0,   -1.2,    1.2,   -0.1,   -1.0,  999.0,   -2.4,  999.0,    2.2,    3.9,    3.8,  999.0,  999.0,  999.0,  999.0,  999.0,  999.0,  999.0,  999.0,  999.0,  999.0,  999.0,  999.0,  999.0,  999.0,  999.0,  999.0,  999.0,  999.0,  999.0,  999.0,  999.0,  999.0,  999.0,  999.0,  999.0,  999.0,  -12.5,   -8.4,  999.0,  999.0,  999.0,   -6.4,   -8.3,  999.0,   -5.9,    2.5,  999.0,  999.0,  999.0
2020/01/31 16:55,  -14.5,  -15.9,  -16.8,  -16.2,  -15.1,  -14.8,  -14.3,   -2.6,   -2.9,   -1.3,   -0.7,   -1.5,   -1.6,   -2.4,   -5.8,   -5.3,   -7.7,   -7.3,   -6.0,   -5.1,   -4.5,   -7.4,   -6.2,   -5.3,   -5.6,   -5.3,   -4.8,   -5.0,   -4.8,  999.0,   -2.3,   -4.0,   -1.4,   -1.2,   -1.2,   -1.1,   -1.5,   -1.9,   -3.5,   -3.7,   -3.3,   -2.6,   -2.3,   -2.6,   -2.3,   -2.2,   -2.3,   -1.1,   -2.8,   -1.2,   -2.6,   -5.7,   -3.7,   -2.0,   -3.7,   -1.1,   -2.4,   -2.7,   -3.0,   -1.1,   -0.5,   -0.2,   -0.6,   -0.7,   -0.7,   -0.1,   -1.3,   -2.6,   -2.7,   -1.1,   -1.8,   -1.5,   -0.1,   -1.2,   -1.6,   -4.0,   -2.4,   -0.3,    1.5,    1.6,    1.5,  999.0,  999.0,    1.4,  999.0,  999.0,  999.0,   -1.2,    0.5,   -0.7,    0.2,   -0.2,  999.0,   -2.0,    0.8,   -0.1,   -0.9,   -1.2,   -2.6,  999.0,  999.0,  999.0,   -6.0,  999.0,   -4.6,  999.0,  -15.2,  -14.4,   -9.9,  999.0,  999.0,   -8.6,  -10.9,  -10.5,   -8.2,   -1.5,    1.8,    2.7,  999.0,  999.0
2020/01/31 17:05,  -13.8,  -15.7,  -16.2,  -15.4,  -15.2,  -14.5,  -13.1,   -2.2,   -3.2,   -3.3,   -0.8,   -0.8,   -0.6,   -1.0,   -5.4,   -7.3,   -7.9,   -6.1,   -6.3,   -5.1,   -7.8,   -9.1,   -7.3,   -6.6,   -6.5,   -5.0,   -5.3,   -5.0,   -4.1,   -2.6,   -3.7,   -3.3,   -2.1,   -2.0,   -2.5,   -2.6,   -3.0,   -2.7,   -4.8,   -5.3,   -3.9,   -3.9,   -4.5,   -3.3,   -2.9,   -2.5,   -2.5,   -2.2,   -2.2,   -1.1,   -3.1,   -4.9,   -4.5,   -3.2,   -3.5,   -2.6,   -3.4,   -2.7,   -2.0,   -1.8,   -0.2,   -1.1,   -0.4,   -0.6,    0.6,    2.1,    0.2,   -2.6,   -1.0,   -1.3,   -2.6,   -0.5,   -0.5,   -1.7,    1.0,   -1.8,   -2.2,  999.0,    1.7,    2.4,    2.1,    1.4,    0.7,    1.2,  999.0,    0.9,  999.0,   -0.5,   -0.8,   -0.1,   -0.8,   -0.2,   -1.4,   -1.7,   -0.1,    0.4,   -0.0,   -0.9,   -1.0,  999.0,   -3.6,   -5.1,  999.0,  999.0,   -6.7,  999.0,  -15.9,  -13.6,  -13.7,   -8.1,   -7.0,   -6.9,   -9.2,  -10.4,   -7.9,   -4.1,    0.1,    3.0,    4.9,  999.0
2020/01/31 17:15,  -16.6,  -17.4,  -15.8,  -13.7,  -13.3,  -13.2,  -10.3,   -4.2,   -6.5,   -5.3,   -0.8,   -2.1,   -0.3,   -1.6,   -7.6,   -7.1,   -7.6,   -6.0,   -7.6,   -8.1,   -9.8,  -10.0,   -8.7,   -6.9,   -7.3,   -7.4,   -5.9,   -5.4,   -4.4,    1.5,   -3.9,   -3.8,   -3.3,   -2.7,   -3.4,   -3.9,   -4.6,   -4.3,   -5.5,   -6.5,   -5.6,   -5.2,   -5.8,   -4.8,   -4.6,   -3.2,   -3.2,   -2.4,   -2.7,   -2.0,   -5.2,   -6.3,   -4.3,   -3.8,   -3.6,   -2.9,   -2.6,   -2.3,   -2.2,   -2.6,   -0.8,   -1.2,   -0.1,    0.1,    0.7,    1.2,    1.3,   -1.3,   -0.1,   -1.0,    0.3,   -0.9,   -1.6,   -2.6,  999.0,   -2.8,   -2.1,   -2.6,    1.7,    1.7,    0.5,    1.0,    1.6,    0.9,  999.0,   -0.6,  999.0,   -1.2,   -0.1,    0.5,    2.1,    0.9,    1.4,   -1.9,    0.2,    0.9,    0.1,   -0.1,  999.0,  999.0,   -3.8,  999.0,  999.0,  999.0,   -6.2,  -12.0,  -14.6,  -14.3,  -11.8,   -6.6,   -6.6,   -6.8,   -6.9,   -8.9,   -8.8,   -4.8,    1.4,    3.8,    4.6,  999.0
2020/01/31 17:25,  -16.9,  -16.9,  -16.1,  -14.5,  -13.4,  -12.6,  -11.5,   -3.9,   -4.5,   -3.0,   -0.5,   -0.8,   -0.7,   -1.6,   -5.9,   -6.7,   -7.8,   -5.0,   -4.7,   -8.0,   -9.3,   -8.8,   -7.3,   -7.4,   -7.4,   -6.2,   -3.7,   -3.9,   -3.8,   -1.4,   -3.8,   -2.5,   -2.3,   -2.1,   -2.7,   -3.1,   -4.5,   -4.6,   -6.2,   -7.3,   -6.6,   -6.2,   -5.4,   -5.1,   -4.6,   -3.0,   -2.8,   -1.8,   -1.7,   -1.7,   -6.0,   -5.5,   -4.0,   -3.9,   -3.0,   -2.2,   -0.7,   -0.7,   -1.3,   -0.6,    0.2,    0.8,    0.1,    0.8,    0.4,    3.1,    1.3,    0.3,    0.4,    1.6,    1.3,   -0.0,   -0.3,    0.9,    0.3,   -0.3,    0.7,    1.8,    4.4,    3.9,    4.6,    3.0,   -0.1,    3.1,    1.7,    1.2,    2.2,    1.7,    1.0,    1.1,    0.2,    0.9,   -0.3,   -0.8,   -1.2,    0.3,    0.2,   -1.3,   -2.1,  999.0,   -2.9,   -5.5,  999.0,   -7.3,   -9.2,  -13.7,  -16.9,  -17.5,  -14.6,  -12.5,   -9.0,   -7.9,   -9.6,   -9.8,   -7.6,   -2.0,    2.7,    5.8,    6.5,    7.3
2020/01/31 17:35,  -16.8,  -17.3,  -17.5,  -17.6,  -13.6,  -13.3,  -13.1,   -5.4,   -4.2,   -4.3,   -0.8,   -0.7,   -0.8,   -4.6,   -7.4,   -7.0,   -8.0,   -5.5,   -6.1,   -8.8,   -9.1,   -6.8,   -6.1,   -6.6,   -6.9,   -5.7,   -4.8,   -3.6,   -3.7,   -2.8,   -3.9,   -2.2,   -1.5,   -1.8,   -1.8,   -3.5,   -4.6,   -5.4,   -6.8,   -7.9,   -7.1,   -5.7,   -6.7,   -6.2,   -5.6,   -3.1,   -3.6,   -1.1,   -2.6,   -2.4,   -6.6,   -5.9,   -4.7,   -3.3,   -3.4,   -2.1,   -0.4,   -0.4,    0.2,    0.3,    0.5,    0.2,   -0.3,    0.8,    0.6,    1.7,    1.0,   -1.9,    0.7,    4.3,  999.0,  999.0,  999.0,  999.0,    0.7,  999.0,  999.0,  999.0,    4.6,    3.6,    5.0,  999.0,  999.0,    2.5,    1.1,    1.6,    2.1,    0.9,   -0.7,   -1.1,    0.9,   -0.1,   -0.2,  999.0,   -2.6,   -0.4,   -0.5,   -1.8,   -2.6,   -2.4,   -5.4,   -6.5,   -2.9,   -6.6,  -10.3,  -14.7,  -17.0,  -17.2,  -14.7,   -9.5,   -7.0,  999.0,  -10.6,  -10.7,   -5.5,   -3.7,  999.0,  999.0,  999.0,  999.0
2020/01/31 17:45,  -17.0,  -18.5,  -18.0,  -17.2,  -16.8,  -13.5,   -0.8,   -3.1,   -2.4,  -10.0,   -1.9,   -0.2,   -1.5,   -5.4,   -7.1,   -6.7,   -6.5,   -3.8,   -6.4,   -8.7,   -7.4,   -6.9,   -6.0,   -6.4,   -4.6,   -5.0,   -4.3,   -4.1,   -4.5,   -4.3,   -2.9,   -2.0,   -0.9,   -0.8,   -0.7,   -3.1,   -3.8,   -4.3,   -6.2,   -6.5,   -5.0,   -5.3,   -4.9,   -3.7,   -2.9,   -1.1,   -0.9,   -0.5,   -0.5,   -1.8,   -4.8,   -4.2,   -2.1,   -2.3,   -2.0,   -1.2,    0.1,    0.6,    0.9,    1.4,    1.9,    0.8,    2.0,    1.5,    1.3,    2.8,   -0.5,    0.1,    1.9,    0.3,   -1.4,   -0.3,    1.5,    0.8,    0.9,    1.1,    1.7,    2.2,    2.5,    2.7,   -0.0,    1.0,    2.1,    1.2,   -0.1,    1.6,    2.3,    1.4,    0.8,   -0.2,   -0.2,    0.4,    1.0,   -1.1,    2.2,   -0.5,   -0.5,    0.7,   -1.8,  999.0,   -4.0,   -5.7,  999.0,   -7.3,  -10.1,  -13.6,  -16.3,  -15.6,  -13.0,   -8.0,   -6.2,   -4.6,   -6.5,   -7.6,   -6.9,   -1.8,    2.4,    5.0,  999.0,    6.1
2020/01/31 17:55,  -18.2,  -18.8,  -17.1,  -15.7,  -15.7,  -13.7,  -11.8,   -3.0,   -2.2,   -9.8,   -0.7,    0.1,   -1.6,   -6.2,   -5.8,   -6.4,   -7.8,   -6.1,   -5.9,   -7.5,   -7.3,   -7.0,   -6.5,   -6.0,   -5.3,   -5.2,   -4.4,   -4.2,   -4.1,   -2.7,   -2.7,   -1.6,   -1.7,   -3.0,   -4.5,   -5.1,   -5.3,   -6.3,   -7.1,   -6.0,   -6.2,   -7.1,   -6.7,   -6.0,   -5.5,   -2.9,   -3.6,   -3.2,   -2.0,   -1.4,   -4.8,   -4.2,   -3.5,   -4.2,   -2.7,   -0.9,   -1.0,    0.1,    0.9,    1.3,    0.7,    1.5,    1.8,    1.5,    1.5,    0.6,    0.5,    0.6,    1.8,    1.8,    0.7,    0.3,    1.0,    1.8,    3.1,    4.0,  999.0,    2.8,    2.8,    1.8,    2.4,  999.0,    4.1,    3.4,    1.7,    1.1,    2.6,  999.0,    0.6,    0.2,    0.6,    1.7,    0.6,   -0.1,    0.2,   -0.5,   -0.0,  999.0,   -3.0,   -3.3,   -1.1,  999.0,  999.0,  999.0,   -9.4,  -13.7,  -15.8,  -17.9,  -15.8,  999.0,  999.0,  999.0,  -10.7,  -10.1,   -8.0,   -1.4,    2.0,    4.3,    4.6,  999.0
2020/01/31 18:05,  -14.9,  -15.7,  -15.7,  -14.4,  -15.2,  -13.5,   -3.9,   -4.5,   -2.7,   -7.5,   -1.5,   -0.5,   -8.8,   -7.9,   -6.4,   -8.9,   -6.1,   -5.2,   -4.7,   -9.5,   -7.9,   -8.7,   -8.8,   -8.0,   -7.7,   -5.3,   -5.1,   -4.6,   -4.7,   -3.5,   -1.6,   -1.6,   -2.7,   -2.8,   -4.0,   -5.1,   -5.3,   -5.8,   -6.9,   -6.3,   -6.5,   -6.2,   -5.2,   -5.7,   -4.2,   -1.7,   -2.4,   -2.1,   -1.1,   -1.0,   -3.6,   -5.5,   -3.6,   -2.6,   -2.9,   -2.3,   -0.3,   -0.7,   -0.4,    1.0,    0.5,    1.9,    1.2,    1.4,    2.0,    1.6,    1.0,    1.3,    1.1,    0.8,    1.3,    2.4,    1.9,    2.6,    3.6,    5.3,    4.9,    2.9,    3.0,    3.5,    2.9,    5.3,    5.0,    3.5,    2.1,    2.4,    2.7,    0.1,    1.3,   -0.3,   -1.3,   -1.8,    0.3,   -0.3,   -0.1,    0.1,    0.8,   -0.1,   -1.9,   -3.9,   -3.5,  999.0,   -7.8,   -7.4,  -12.8,  -14.3,  -16.5,  -17.1,  999.0,   -6.7,   -8.0,   -3.9,   -5.1,   -8.2,   -7.3,   -2.3,    1.9,    4.9,    6.5,    8.3
2020/01/31 18:15,  -16.9,  -16.4,  -15.9,  -15.5,  -15.7,  -14.0,   -2.7,   -4.3,   -2.5,   -6.1,    0.1,    0.2,   -7.8,   -8.9,   -7.3,   -9.7,   -8.7,   -7.1,   -8.6,  -10.0,   -8.8,   -8.2,   -8.7,   -4.0,   -5.1,   -4.5,   -5.7,   -5.7,   -5.0,   -2.7,   -1.3,   -3.1,   -3.5,   -4.4,   -4.6,   -5.3,   -5.0,   -5.5,   -5.0,   -5.9,   -5.7,   -5.4,   -5.6,   -4.5,   -3.2,   -1.6,   -2.6,   -1.7,   -1.4,   -0.4,   -2.9,   -5.2,   -3.1,   -2.7,   -2.2,   -1.8,   -0.4,    0.3,    1.2,    2.2,    1.9,    2.8,    2.2,    2.0,    3.1,    0.9,    0.8,    3.2,    1.7,    2.1,    3.7,    2.9,    2.4,    4.3,    5.2,  999.0,    7.1,    5.9,    4.3,    4.4,    5.2,    6.8,    3.6,    2.1,    0.1,    2.1,    1.6,    1.9,    1.5,    0.9,    0.1,   -1.2,   -0.8,    0.3,   -2.4,   -0.8,   -0.5,    0.8,  999.0,   -5.8,  999.0,  999.0,  -11.6,  -12.3,  999.0,  -13.5,  -15.4,  -16.7,  -16.7,   -7.1,   -7.1,   -6.8,   -6.1,   -8.0,   -8.4,   -5.6,    0.6,    3.2,    5.0,    5.4
2020/01/31 18:25,  -17.5,  -18.1,  -17.4,  -16.6,  -16.0,  -15.2,   -1.0,   -3.3,   -1.5,   -5.9,   -0.1,   -0.5,   -8.6,   -7.2,   -5.0,   -8.8,   -6.8,   -6.2,   -8.3,  -10.1,   -9.1,   -8.8,   -9.0,   -4.7,   -5.1,   -7.1,   -6.9,   -6.1,   -5.9,   -1.9,   -4.5,   -4.7,   -4.8,   -4.4,   -4.5,   -3.9,   -4.3,   -4.0,   -4.1,   -3.6,   -4.4,   -4.4,   -3.7,   -3.2,   -2.1,   -0.7,   -1.5,   -1.6,   -0.9,    0.8,   -0.3,   -4.0,   -1.3,   -1.6,   -1.0,   -0.3,    1.1,    1.7,    1.7,    2.4,    2.7,    3.2,    2.8,    2.5,    4.0,    2.3,    2.5,    3.3,    3.0,    2.2,    2.8,    0.7,    1.9,    4.8,    5.4,  999.0,    4.5,    3.9,    3.0,  999.0,  999.0,    7.3,    5.3,    1.9,    0.0,    2.3,    1.5,  999.0,    2.5,    1.2,    0.9,    1.5,  999.0,   -0.3,    0.3,   -0.5,    0.4,    0.4,    3.1,  999.0,   -3.5,  999.0,   -8.8,  999.0,  999.0,  -10.3,  -12.9,  -14.0,  -11.0,   -4.5,   -6.4,   -7.2,   -4.3,   -6.4,   -7.2,   -5.4,   -0.6,    2.2,    3.9,    5.5
2020/01/31 18:35,  -16.0,  -16.8,  -15.7,  -15.8,  -15.5,  -14.8,   -0.1,   -1.4,   -2.6,   -3.8,   -0.3,   -0.0,   -5.7,   -5.0,   -1.7,   -6.1,   -5.6,   -8.6,   -7.6,  -10.0,   -8.7,   -8.8,   -8.8,   -3.1,   -8.0,   -4.3,   -6.0,   -5.3,   -4.8,   -2.1,   -2.7,   -3.4,   -3.4,   -2.8,   -3.3,   -3.1,   -3.6,   -3.8,   -3.9,   -4.8,   -4.7,   -4.0,   -3.5,   -2.4,   -1.3,   -0.3,   -1.6,   -1.4,   -0.7,   -0.4,   -2.3,   -4.6,   -2.9,   -2.4,   -2.1,   -2.0,   -1.3,   -1.1,   -0.1,    0.7,    1.4,    1.0,    1.4,    1.0,    1.7,    0.6,    1.0,    1.4,    1.7,    1.8,    1.8,    1.5,    1.3,    3.7,    4.0,    3.2,    4.5,    4.6,    3.6,    4.2,    3.8,    6.4,    3.7,    3.1,    1.6,    1.9,    2.2,    2.0,    2.3,    2.4,  999.0,    1.6,    1.1,    2.2,    0.6,   -0.8,    1.2,    0.6,   -1.9,   -5.0,   -5.5,   -8.7,  999.0,  999.0,   -9.2,  -12.4,  -13.8,  -14.5,  -12.4,   -6.0,   -5.6,  999.0,  999.0,   -6.4,   -7.3,   -5.9,   -2.9,    1.7,    4.3,    6.2
2020/01/31 18:45,  -15.0,  -15.8,  -15.7,  -15.5,  -14.6,  -14.0,   -0.8,   -1.8,   -3.1,   -1.8,   -0.2,   -1.4,   -1.9,   -0.4,   -3.1,   -6.1,   -7.8,   -6.8,   -4.9,   -9.3,   -8.1,   -7.8,   -7.0,   -1.2,   -3.5,   -1.7,   -3.0,   -5.2,   -4.6,   -4.1,   -2.9,   -2.8,   -3.9,   -3.6,   -4.1,   -4.4,   -5.0,   -4.4,   -4.9,   -5.1,   -4.9,   -4.2,   -3.1,   -1.6,   -0.7,   -0.7,   -0.6,   -0.6,   -0.4,   -0.7,   -3.6,   -4.4,   -3.4,   -3.3,   -2.2,   -2.2,   -1.0,   -1.0,   -0.6,    0.6,    1.8,    1.1,    1.0,    1.2,    0.2,   -0.4,   -2.3,   -0.5,   -0.2,    1.2,    2.1,    0.6,    1.2,    2.3,    2.6,    3.9,    3.8,    4.1,    2.7,    2.8,    5.6,    1.0,    2.0,    1.2,    1.5,    2.5,    0.6,    1.4,  999.0,    2.1,    1.2,    0.0,  999.0,    0.6,    2.3,   -1.2,    0.1,    0.8,  999.0,   -5.1,   -3.4,   -8.5,  999.0,   -3.2,   -9.1,  -11.8,  -12.3,  -14.2,  999.0,   -6.3,  999.0,   -2.2,   -1.5,   -7.2,   -6.8,   -6.3,   -3.2,    0.3,    1.6,    3.1
2020/01/31 18:55,  -17.2,  -18.5,  -18.0,  -17.1,  -15.2,   -8.5,   -0.6,   -5.6,   -2.5,   -1.2,   -0.8,   -3.5,   -1.4,   -2.1,   -3.8,   -8.7,   -7.6,   -5.5,   -4.3,   -9.2,   -8.2,   -8.5,   -8.4,   -5.3,   -1.9,   -4.6,   -3.1,   -5.4,   -5.0,   -4.3,   -4.5,   -4.2,   -4.7,   -4.6,   -5.0,   -4.7,   -5.7,   -5.8,   -6.0,   -6.5,   -6.1,   -4.5,   -3.8,   -2.6,   -2.3,   -2.0,   -3.0,   -2.0,   -1.2,   -2.0,   -5.3,   -6.0,   -4.1,   -3.8,   -3.9,   -2.7,   -1.6,   -2.2,   -2.2,   -0.1,   -0.1,   -1.1,   -2.5,   -1.5,   -2.4,   -2.5,   -2.8,   -1.9,   -0.2,   -0.9,   -0.1,   -0.9,    1.2,    1.6,    3.2,    3.5,    3.6,    2.5,    2.7,    2.0,    4.5,    4.4,    1.8,    3.0,  999.0,    1.7,   -0.7,    0.3,   -0.4,  999.0,  999.0,    0.8,   -0.9,    1.1,   -0.1,   -1.2,   -1.1,    1.0,   -0.5,   -4.0,   -5.1,   -6.7,  -10.2,  999.0,  -12.0,  -12.7,  -12.0,  999.0,  -10.5,  999.0,   -6.6,   -5.8,   -3.2,   -7.1,   -9.6,   -9.0,   -7.4,   -4.1,   -1.4,   -2.0
2020/01/31 19:05,  -16.2,  -17.6,  -17.8,  -16.9,  -15.0,  -14.2,   -0.7,  999.0,   -2.5,   -2.3,   -0.3,   -4.1,   -3.0,   -2.9,   -3.9,   -8.0,   -7.5,   -7.2,   -7.2,   -8.9,   -8.9,   -8.8,   -8.7,   -8.6,   -8.2,   -8.6,  999.0,   -5.6,   -5.7,   -4.2,   -5.4,   -4.6,   -4.5,   -5.0,   -4.1,   -3.5,   -4.8,   -4.7,   -4.0,   -4.1,   -4.7,   -3.5,   -2.9,   -2.2,   -2.5,   -3.0,   -2.7,   -1.3,   -1.2,   -1.7,   -4.3,   -4.9,   -3.5,   -4.7,   -3.7,   -3.0,   -2.1,   -3.1,   -2.8,    1.1,    0.7,   -2.6,   -2.1,   -1.9,   -3.8,   -4.8,   -2.7,   -0.8,    3.4,   -0.7,   -0.8,   -2.2,   -1.5,    1.2,    4.0,    5.5,    5.6,  999.0,    3.7,    4.9,    5.5,    4.2,    2.1,    0.1,    4.2,    0.4,    0.8,   -0.0,   -1.7,  999.0,    0.6,   -0.8,    1.3,    1.8,    0.4,   -1.8,   -0.5,   -0.7,   -4.3,   -5.4,   -4.6,   -8.6,  -11.1,  999.0,  -10.7,  999.0,  -11.9,  999.0,  -14.3,   -7.3,   -5.6,   -7.9,   -4.7,   -6.6,   -8.8,   -9.3,   -8.0,   -6.2,   -4.7,   -1.2
2020/01/31 19:15,  -17.9,  -17.0,  -16.5,  -17.2,  -15.1,  -15.0,   -1.1,   -5.0,   -3.1,   -2.0,   -0.6,   -2.1,   -1.2,   -3.4,   -5.4,   -5.7,   -6.7,   -7.1,   -7.6,   -8.6,   -7.5,   -7.3,   -8.0,   -8.5,   -8.2,   -8.0,   -7.2,   -5.6,   -5.5,   -5.4,   -4.9,   -5.4,   -6.0,   -6.2,   -4.9,   -4.5,   -4.7,   -3.5,   -3.3,   -4.3,   -4.2,   -1.9,   -1.8,   -1.7,   -2.0,   -2.0,   -2.0,   -0.1,   -1.7,   -1.8,   -4.5,   -4.7,   -3.0,   -4.1,   -3.7,   -2.9,   -1.7,   -2.3,   -1.5,    1.6,    1.5,   -0.6,   -1.7,   -1.5,   -2.6,   -3.7,   -4.0,   -2.7,   -1.0,   -1.1,   -0.5,   -1.5,    0.4,    0.2,    4.5,    5.6,    5.5,    2.9,    2.4,    4.5,    5.4,    3.5,    0.7,   -0.3,    0.8,    0.5,   -1.0,    0.8,    0.5,  999.0,   -0.4,   -1.0,   -1.5,    1.5,    0.2,  999.0,    2.0,   -0.2,   -5.7,   -2.8,   -4.9,   -7.1,   -6.7,  999.0,  -10.5,  -11.0,   -9.4,  -10.8,  -14.4,   -3.7,   -4.7,   -5.2,   -1.9,   -2.2,   -4.3,   -5.9,   -5.9,   -2.8,   -0.2,    1.0
2020/01/31 19:25,  -17.6,  -16.9,  -16.6,  -15.7,  -13.0,   -3.2,   -0.7,   -1.9,   -2.2,   -1.1,   -0.4,   -1.6,   -1.7,   -2.3,   -6.0,   -4.6,   -8.1,   -8.0,   -8.4,   -9.0,   -8.2,   -8.3,   -7.0,   -4.4,   -5.8,   -7.7,   -7.4,   -5.6,   -5.1,   -3.1,   -3.8,   -3.8,   -5.4,   -6.4,   -5.9,   -6.7,   -5.8,   -4.6,   -5.3,   -5.0,   -5.1,   -2.7,   -3.4,   -1.4,   -2.2,   -1.0,   -1.4,   -1.2,   -2.3,   -2.8,   -5.1,   -4.0,   -2.6,   -3.6,   -2.8,   -3.3,   -2.0,   -1.0,   -0.5,    1.9,    1.6,   -1.2,   -1.4,   -1.2,   -1.4,   -2.9,   -3.4,   -3.2,   -1.4,    0.9,    1.6,    0.1,    0.9,    2.9,    2.1,    4.0,    5.8,  999.0,  999.0,    5.8,  999.0,  999.0,    1.9,  999.0,   -0.5,    0.8,    0.0,    0.9,  999.0,    2.4,    2.0,    1.1,   -0.7,  999.0,   -0.0,   -0.3,    0.5,   -1.5,   -3.9,  999.0,  999.0,   -8.3,  999.0,  999.0,  999.0,  -10.9,   -9.2,   -8.6,  999.0,   -6.1,   -6.6,   -5.7,   -5.7,   -3.3,   -5.1,   -6.7,   -6.5,   -2.8,   -2.1,   -0.7
2020/01/31 19:35,  -17.4,  -17.3,  -17.2,  -16.2,  -14.0,   -1.4,   -0.5,   -3.3,   -2.2,   -0.4,    0.1,    0.0,   -2.1,   -2.9,   -4.8,   -3.5,   -9.0,   -8.0,   -7.2,   -8.7,   -8.4,   -9.1,   -6.5,   -6.4,   -5.1,   -7.2,   -7.4,   -6.2,   -5.8,   -4.2,   -5.5,   -4.6,   -6.3,   -7.2,   -7.1,   -7.5,   -7.2,   -5.8,   -5.9,   -6.0,   -5.8,   -4.0,   -4.3,   -4.1,   -3.4,   -2.9,   -2.9,   -2.3,   -3.5,   -3.7,   -6.4,   -4.5,   -3.8,   -4.6,   -3.4,   -3.7,   -2.1,   -2.4,   -0.2,    1.7,   -0.2,   -1.5,   -1.9,   -1.6,   -1.7,   -1.7,   -2.2,   -1.0,   -0.5,    1.6,    0.9,   -1.1,    2.2,    2.6,    3.3,    4.5,    3.7,    5.5,    2.2,    3.0,    3.0,    2.8,    1.8,  999.0,  999.0,    1.1,  999.0,    2.0,    0.8,  999.0,    2.0,    1.1,    2.3,  999.0,  999.0,    1.3,   -0.1,    0.6,  999.0,   -3.3,  999.0,  999.0,  999.0,  999.0,  999.0,  -11.8,  -12.6,  -10.8,  -10.3,  -10.5,   -7.7,   -7.6,   -6.9,   -4.4,   -6.3,   -7.8,   -8.6,   -5.0,   -2.5,   -3.6
2020/01/31 19:45,  -18.3,  -17.7,  -17.7,  -16.9,  -15.0,   -1.0,   -0.8,   -0.4,   -0.3,   -1.0,   -0.1,   -0.0,   -1.9,   -5.9,   -5.2,   -5.5,   -9.5,   -9.9,   -9.2,   -9.2,   -8.6,   -9.0,   -8.0,   -9.1,   -6.8,   -6.8,   -7.3,   -6.6,   -5.2,   -4.8,   -3.8,   -4.3,   -5.5,   -5.8,   -5.1,   -6.4,   -5.9,   -4.4,   -5.3,   -5.7,   -6.1,   -4.3,   -4.0,   -2.9,   -3.1,   -2.3,   -2.3,   -2.5,   -3.5,   -4.5,   -5.3,   -4.4,   -4.6,   -4.2,   -3.6,   -3.2,   -1.8,   -1.1,    0.3,    0.4,   -0.9,   -2.1,   -2.4,   -1.5,   -3.2,   -3.5,   -2.7,   -3.0,   -3.6,   -0.2,   -0.2,   -0.7,    1.4,    2.1,    5.2,    4.7,    5.1,    6.0,    3.9,    5.1,    2.7,    3.0,    2.3,  999.0,  999.0,    1.1,    1.7,  999.0,    2.5,    1.1,    0.2,    1.9,   -0.7,   -0.6,   -0.8,   -0.4,  999.0,   -0.6,   -3.7,   -4.9,  999.0,  999.0,  999.0,  999.0,  999.0,  999.0,  -11.3,  -10.5,   -8.6,  -14.7,   -7.5,   -7.9,   -9.0,   -5.6,   -7.8,   -9.5,  -10.7,   -5.9,   -3.3,   -2.6
2020/01/31 19:55,  -17.5,  -18.4,  -17.0,  -16.4,  -15.3,   -1.4,   -0.5,    0.4,   -4.5,   -0.9,   -0.5,   -1.8,   -2.4,   -3.2,   -3.9,   -7.0,   -8.8,   -9.0,   -8.5,   -8.7,   -7.7,   -8.8,   -8.3,   -8.6,   -8.3,   -8.0,   -7.5,   -6.7,   -5.7,   -4.8,   -3.9,   -5.0,   -6.7,   -6.2,   -5.9,   -6.2,   -5.6,   -4.8,   -5.5,   -6.0,   -6.1,   -3.7,   -3.4,   -2.6,   -3.0,   -2.2,   -2.3,   -2.3,   -2.7,   -3.7,   -4.4,   -3.7,   -4.2,   -4.3,   -2.5,   -1.1,    0.4,    0.9,    2.2,    1.7,   -0.2,   -0.8,   -0.9,  999.0,   -0.8,   -2.5,   -2.8,   -2.1,   -1.7,   -0.9,   -0.1,  999.0,    0.6,    2.4,    4.6,    4.8,    4.4,    5.3,    2.7,    5.2,    3.5,    1.1,    1.1,    0.4,  999.0,    1.6,  999.0,   -0.4,    0.9,    0.3,   -0.1,    0.2,   -0.9,    0.1,  999.0,    1.2,   -0.7,   -1.2,   -1.7,   -4.6,   -1.9,  999.0,  999.0,  999.0,  999.0,  999.0,  999.0,  -12.6,  999.0,  999.0,  999.0,   -7.6,   -8.0,   -4.8,   -6.2,   -8.9,   -9.9,   -5.7,   -3.3,   -2.2
2020/01/31 20:05,  -15.8,  -15.7,  -15.8,  -16.3,  -15.6,   -1.9,   -0.9,   -1.1,   -3.8,   -7.2,   -6.2,   -8.4,   -1.6,   -5.0,   -7.1,   -9.1,   -9.7,   -6.7,   -8.8,   -8.3,   -8.4,   -9.4,   -8.4,   -8.5,   -9.1,   -7.7,   -7.3,   -6.6,   -5.4,  999.0,   -4.0,   -4.4,   -6.0,   -5.9,   -5.8,   -6.1,   -4.9,   -4.2,   -4.6,   -5.6,   -5.9,   -3.7,   -3.7,   -3.5,   -3.0,   -2.8,   -2.9,   -2.6,   -2.5,   -4.4,   -4.3,   -3.1,   -4.8,   -4.6,   -3.6,   -0.6,    1.0,    0.4,    1.8,   -1.6,   -1.9,   -1.8,   -1.6,   -4.5,   -4.9,   -6.0,   -1.5,   -2.8,   -1.8,  999.0,  999.0,  999.0,    0.7,    1.6,    5.1,    4.4,    5.2,    2.5,    1.5,   -0.7,    3.0,    2.6,    1.9,    0.7,   -0.0,  999.0,    1.5,  999.0,  999.0,   -0.6,    1.3,    0.2,   -0.2,  999.0,  999.0,    0.2,   -0.2,   -1.8,  999.0,  999.0,   -2.1,  999.0,  999.0,   -1.9,   -6.1,  999.0,   -2.2,  -10.5,  999.0,  999.0,   -6.3,   -8.0,   -8.1,   -3.6,   -5.1,   -7.8,   -9.3,   -3.4,   -2.2,   -0.3
2020/01/31 20:15,  -15.3,  -15.5,  -15.1,  -15.8,  -12.4,   -0.8,   -0.1,   -2.3,   -3.8,   -2.8,   -4.5,   -7.2,   -3.1,   -4.8,   -6.7,   -8.0,   -7.2,   -6.6,   -7.3,   -6.9,   -7.8,   -8.1,   -8.1,   -8.5,   -8.4,   -7.5,   -7.2,   -6.8,   -4.9,   -5.0,   -4.5,   -5.5,   -6.8,   -6.7,   -7.1,   -7.7,   -5.9,   -5.8,   -6.3,   -7.1,   -6.6,   -5.1,   -4.4,   -3.7,   -4.1,   -3.7,   -3.2,   -3.2,   -3.1,   -4.5,   -4.2,   -2.9,   -3.5,   -3.1,   -1.8,   -0.3,    0.9,    1.4,    1.8,   -0.7,   -1.2,   -1.6,   -2.1,   -2.6,   -4.4,   -4.0,   -2.7,   -3.6,   -2.7,  999.0,   -0.3,  999.0,    2.2,    3.7,    4.8,    6.2,    6.8,    3.9,  999.0,    2.7,    2.4,    2.3,    1.2,   -0.1,   -0.2,   -0.7,   -0.4,    0.0,  999.0,    0.0,    0.5,   -0.0,    0.8,  999.0,    1.6,    0.7,   -0.5,   -1.8,  999.0,  999.0,    0.1,  999.0,  999.0,   -8.4,   -8.3,  999.0,  999.0,  999.0,   -7.8,   -7.9,   -6.5,   -7.6,   -9.5,   -5.0,   -5.7,   -7.3,   -8.4,   -5.2,   -2.5,   -0.4
2020/01/31 20:25,  -16.2,  -15.9,  -15.5,  -15.2,  -15.2,   -2.6,   -0.7,   -1.0,   -4.1,   -2.1,   -3.4,   -7.1,   -4.9,   -9.0,   -9.2,   -8.5,   -6.8,   -7.5,   -6.8,   -6.4,   -6.7,   -7.7,   -7.8,   -7.8,   -8.0,   -7.3,   -6.3,   -5.5,   -3.4,   -4.0,   -3.9,   -4.4,   -6.1,   -6.7,   -6.2,   -7.8,   -6.6,   -5.4,   -5.9,   -7.1,   -7.0,   -4.8,   -4.4,   -3.5,   -3.7,   -3.7,   -4.0,   -3.7,   -3.9,   -4.5,   -3.2,   -3.0,   -4.3,   -2.3,   -1.4,   -0.1,    1.1,    1.5,    1.4,   -1.1,   -0.8,   -1.2,   -1.2,   -2.4,   -3.4,   -3.7,   -1.1,   -7.0,   -1.0,   -0.7,    1.2,    2.4,    5.5,    4.7,    4.8,    7.2,    6.8,  999.0,    2.9,    1.7,    1.0,  999.0,   -0.3,   -0.1,   -0.5,   -1.0,   -1.8,    0.4,    0.9,    1.1,    3.4,    0.2,   -0.3,   -0.1,    1.2,    1.2,    0.2,   -0.7,   -3.2,   -2.8,  999.0,  999.0,   -7.1,  -10.4,  999.0,  999.0,  999.0,   -9.6,  -13.8,  999.0,  999.0,  -10.7,  -12.2,   -7.7,   -5.4,   -6.9,   -8.2,   -6.3,   -3.1,   -1.2
2020/01/31 20:35,  -15.7,  -14.7,  -15.0,  -16.0,  -13.6,   -4.0,   -0.7,   -1.3,   -6.2,   -2.4,   -2.3,   -7.1,   -3.1,   -9.3,   -7.9,   -8.2,   -7.1,   -7.3,   -6.4,   -5.6,   -6.8,   -7.3,   -7.5,   -7.6,   -7.3,   -5.6,   -5.0,   -4.6,   -3.7,   -3.9,   -3.8,   -4.9,   -7.3,   -5.9,   -6.0,   -7.2,   -6.5,   -5.1,   -6.3,   -6.1,   -5.8,   -4.6,   -3.8,   -3.8,   -3.3,   -2.9,   -2.3,   -3.4,   -3.1,   -3.0,   -2.2,   -1.5,   -3.5,   -1.1,   -0.1,    1.6,    1.6,    1.9,    2.3,    0.1,    1.2,    1.4,    0.3,   -2.7,   -4.0,   -3.0,  999.0,   -2.4,   -0.4,  999.0,  999.0,    0.9,  999.0,    5.4,    4.9,    7.9,    8.5,  999.0,    3.1,    2.1,    2.8,    2.6,    1.2,    1.8,   -0.6,   -0.3,   -1.4,   -0.9,   -1.1,   -0.0,    0.2,  999.0,    0.3,   -0.5,   -0.5,   -1.1,  999.0,   -1.4,  999.0,   -2.6,  999.0,  999.0,   -5.7,   -9.4,  999.0,  999.0,  999.0,  999.0,  999.0,  999.0,  999.0,   -8.4,  -11.1,   -9.9,   -5.5,   -8.3,   -8.9,   -7.7,   -3.7,   -2.1
2020/01/31 20:45,  -15.7,  -14.5,  -15.9,  -15.2,  -12.7,  -12.6,   -1.2,   -1.0,   -3.6,   -3.2,   -4.6,   -8.4,   -4.1,   -8.3,   -8.7,   -8.0,   -6.9,   -7.7,   -5.5,   -5.9,   -6.5,   -7.3,   -7.9,   -7.9,   -7.9,   -5.5,   -6.6,   -5.8,   -5.6,   -5.9,   -7.0,   -7.9,   -8.1,   -6.7,   -7.5,   -7.9,   -7.3,   -6.1,   -6.2,   -6.6,   -5.4,   -5.0,   -4.2,   -3.6,   -3.0,   -3.6,   -3.4,   -3.3,   -3.7,   -3.2,   -2.9,   -1.8,   -3.2,   -1.5,   -0.2,    1.2,    1.7,    0.9,   -0.1,   -0.3,    0.8,   -0.4,   -2.7,  999.0,   -1.7,    3.6,  999.0,   -1.5,   -2.4,    0.2,    1.4,    2.1,    2.6,    4.7,    6.3,    7.1,   10.1,    4.7,    1.9,    3.5,    5.1,    7.8,    2.1,    1.3,   -0.6,    0.6,   -0.2,   -0.6,    1.9,  999.0,    3.1,    3.2,   -1.2,  999.0,  999.0,   -0.6,    0.1,   -0.7,  999.0,   -2.8,   -5.1,   -0.2,   -2.3,   -6.3,  -13.0,  999.0,  -12.3,  999.0,  999.0,  999.0,  999.0,  999.0,  999.0,   -6.4,   -7.1,   -8.3,  999.0,   -4.3,   -5.5,   -3.2
2020/01/31 20:55,  -14.8,  -15.1,  -15.6,  -15.4,  -13.7,  -13.9,   -2.0,   -8.4,   -5.9,   -5.5,   -1.6,   -8.8,   -6.8,   -7.7,   -7.9,   -7.1,   -7.3,   -7.3,   -5.8,   -6.1,   -6.5,   -7.6,   -8.1,   -8.3,   -5.8,   -5.6,   -7.0,   -6.3,   -6.1,   -5.9,   -8.5,   -8.2,   -9.2,   -7.8,   -8.6,   -8.9,   -8.0,   -6.8,   -6.6,   -6.8,   -6.0,   -4.9,   -4.3,   -3.3,   -2.8,   -3.0,   -3.3,   -2.9,   -2.8,   -2.7,   -0.8,   -0.8,   -1.8,   -0.3,    0.7,    2.3,    2.8,    3.2,    1.2,    0.7,    1.8,    1.2,   -0.6,   -1.5,   -0.9,    1.9,    1.6,   -0.4,   -0.4,    0.6,    3.1,    2.4,    6.1,    5.5,    6.5,    8.1,    8.0,  999.0,  999.0,    4.2,    5.3,    4.5,  999.0,    2.0,    1.0,    0.5,    1.5,    4.0,   -0.4,    1.6,    0.7,  999.0,  999.0,    0.1,    0.8,   -0.8,    1.0,   -0.0,  999.0,   -2.6,   -3.4,   -4.0,   -3.7,   -7.3,   -9.9,  999.0,  -12.5,  999.0,   -7.4,   -7.5,   -8.3,  -10.4,  999.0,   -7.8,   -7.2,   -9.2,   -7.9,   -4.7,   -3.9,   -1.9
2020/01/31 21:05,  -15.8,  -15.8,  -15.0,  -14.9,  -14.1,  -14.3,   -3.2,   -2.7,   -4.1,   -3.6,   -1.5,   -5.7,   -8.1,   -4.4,   -9.0,   -9.3,   -9.2,   -8.3,   -7.0,   -7.2,   -8.1,   -9.2,   -9.6,   -5.8,   -6.1,   -8.3,   -7.6,   -7.1,   -7.2,   -6.8,  999.0,   -6.5,   -8.2,   -6.9,   -6.9,   -7.7,   -7.4,   -6.4,   -6.6,   -6.2,   -5.5,   -4.9,   -4.3,   -2.7,   -3.0,   -3.2,   -2.5,   -2.3,   -2.0,   -1.6,   -0.9,   -0.4,   -1.2,    0.5,    2.1,    2.9,    2.8,    2.3,    1.5,   -0.0,    2.1,  999.0,   -1.5,   -1.9,   -0.5,    1.9,    2.3,    0.9,    0.9,    0.9,    1.2,    2.0,    2.5,    5.6,    7.6,    7.7,  999.0,  999.0,    0.1,    4.2,    3.8,    2.5,   -0.2,    1.0,   -0.9,  999.0,   -0.9,   -1.5,   -0.9,  999.0,   -1.5,  999.0,  999.0,   -1.6,   -1.9,    1.0,   -0.0,   -0.7,  999.0,   -3.3,   -2.7,  999.0,   -5.2,   -9.7,  -12.1,  -14.1,  999.0,  999.0,  -11.7,   -7.5,   -8.8,   -9.6,  999.0,  999.0,   -9.3,   -8.3,   -7.3,   -3.5,   -3.6,   -0.8
2020/01/31 21:15,  -15.9,  -15.9,  -15.6,  -15.3,  -14.5,  -13.8,   -3.6,   -2.4,   -2.1,   -4.4,   -2.5,   -3.3,   -8.4,   -6.5,   -7.5,   -5.9,   -9.1,   -8.6,   -7.8,   -8.6,   -9.1,   -9.7,   -7.4,   -2.3,   -5.5,   -7.7,   -8.3,   -7.3,   -7.1,   -5.9,  999.0,   -7.7,   -8.1,   -5.6,   -5.8,   -5.7,   -5.8,   -5.5,   -6.0,   -6.2,   -5.5,   -4.9,   -4.4,   -2.7,   -2.5,   -2.6,   -2.9,   -3.0,   -2.6,   -2.1,   -1.0,   -0.8,   -1.1,    0.7,    1.8,    2.2,    2.1,    2.2,    1.0,    1.0,    2.5,   -0.9,   -1.4,   -1.3,    0.4,   -0.5,   -0.2,   -0.9,   -0.0,    0.7,  999.0,    0.4,    5.3,    5.4,    5.9,    6.5,  999.0,  999.0,    0.0,    2.4,    2.9,    1.0,   -2.6,   -0.1,   -2.2,   -1.3,   -3.0,   -3.4,   -3.8,   -2.4,  999.0,  999.0,   -2.0,   -3.4,   -2.5,   -0.9,   -1.0,   -2.5,  999.0,   -3.4,   -2.4,   -3.8,   -6.6,  -10.4,  -14.0,  -15.3,  999.0,  -12.5,  999.0,   -8.9,  -10.0,  -11.1,  999.0,  999.0,   -8.6,   -9.5,   -9.3,   -4.8,   -4.0,   -3.2
2020/01/31 21:25,  -15.4,  -14.6,  -14.3,  -14.5,  -13.6,   -1.0,   -0.2,   -1.7,   -2.3,   -3.5,   -2.1,   -2.3,   -8.9,   -7.6,   -7.4,   -8.0,   -8.2,   -7.0,   -7.2,   -8.3,   -8.6,   -9.5,   -8.3,   -0.8,   -2.8,   -8.6,   -7.9,   -6.7,   -6.0,   -5.8,  999.0,   -9.0,   -8.5,   -5.8,   -6.3,   -5.5,   -5.9,   -5.7,   -6.4,   -6.6,   -5.9,   -5.4,   -4.3,   -3.2,   -3.2,   -3.2,   -3.4,   -3.6,   -2.9,   -2.5,   -1.3,   -0.7,   -0.5,    1.3,    3.1,    3.4,    3.2,    2.8,    2.8,    4.1,    4.4,    3.0,    1.7,   -1.1,   -0.9,    1.9,    0.6,    0.4,    1.8,    1.5,    1.2,    2.6,    5.6,    4.6,    8.0,    4.2,  999.0,  999.0,  999.0,  999.0,    5.7,  999.0,    0.8,  999.0,   -1.4,   -2.1,   -4.0,   -5.1,   -3.3,   -1.6,  999.0,  999.0,   -2.2,   -3.4,   -2.1,   -3.1,   -3.2,   -2.3,   -4.1,   -2.6,   -1.3,   -4.6,   -4.9,   -9.3,  -12.3,  999.0,  999.0,  -13.5,   -8.8,   -7.1,   -8.6,   -8.9,   -9.8,   -8.4,   -6.1,   -9.0,   -7.0,   -4.7,   -3.7,   -1.5
2020/01/31 21:35,  -15.0,  -14.0,  -14.1,  -14.6,  -13.2,   -3.2,   -0.9,   -3.1,   -2.5,   -4.4,   -4.7,   -1.0,   -8.5,   -5.8,   -5.7,   -6.4,   -8.7,   -8.0,   -8.0,   -8.6,   -9.3,  -10.3,   -5.2,   -1.7,   -6.7,   -8.7,   -8.3,   -6.8,   -5.7,   -4.8,  999.0,   -9.3,   -8.5,   -7.3,   -7.3,   -7.2,   -7.4,   -7.6,   -7.4,   -7.3,   -6.2,   -6.2,   -4.4,   -4.4,   -3.0,   -3.7,   -3.7,   -4.8,   -3.7,   -3.4,   -2.6,   -2.2,   -1.3,    0.2,    1.5,    1.3,    1.1,    1.2,    1.8,    1.2,    1.2,    0.4,   -0.3,   -2.2,   -1.5,   -0.3,   -0.0,   -0.1,    1.4,    1.8,    0.3,    2.6,    4.9,  999.0,    5.3,  999.0,  999.0,  999.0,  999.0,  999.0,    5.9,  999.0,    3.4,  999.0,   -1.5,   -0.3,   -1.9,   -1.8,   -1.5,   -1.5,  999.0,  999.0,   -1.6,   -0.5,   -0.9,   -0.0,   -0.4,   -1.7,  999.0,    2.0,    0.4,   -0.7,   -2.3,   -6.8,  -10.7,  -14.9,  999.0,  -13.1,   -6.9,   -6.8,   -9.6,  999.0,   -7.1,   -5.3,   -7.3,   -9.3,   -7.6,   -6.0,   -6.3,   -4.0
2020/01/31 21:45,  -15.9,  -15.9,  -15.6,  -13.9,  -12.4,   -1.0,   -1.5,   -0.7,   -2.0,   -4.1,   -2.8,   -2.8,   -5.5,   -7.9,   -7.9,   -6.7,   -8.1,   -7.3,   -7.7,   -8.4,   -9.0,   -9.8,   -9.0,   -2.6,   -7.1,   -6.4,   -8.1,   -8.1,   -7.0,   -4.9,   -1.9,   -9.8,   -9.0,   -8.0,   -7.8,   -8.2,   -8.7,   -8.6,   -7.7,   -6.8,   -6.7,   -6.5,   -5.5,   -4.7,   -4.2,   -3.8,   -5.1,   -5.5,   -3.2,   -3.2,   -2.3,   -3.2,   -2.0,   -0.7,    0.5,    0.2,   -0.0,    0.8,    1.1,    1.0,   -0.2,   -0.8,   -0.2,   -1.0,   -1.6,   -0.8,   -0.2,    2.1,    1.7,    1.2,    3.2,    4.7,    5.2,    5.9,    9.2,    9.5,  999.0,   13.5,  999.0,    9.6,    7.1,    3.9,    3.4,   -0.5,   -0.1,    0.1,   -0.9,   -1.0,   -1.3,   -0.6,  999.0,   -1.5,  999.0,   -1.3,   -2.1,   -1.2,   -1.5,   -0.7,   -3.8,  999.0,    0.8,   -0.6,   -3.9,   -8.2,  -11.8,  -14.3,  999.0,  999.0,   -7.9,   -8.1,  -10.7,  999.0,  999.0,   -5.0,   -7.5,   -9.0,   -7.2,   -5.3,   -6.8,   -5.6
2020/01/31 21:55,  -18.1,  -17.2,  -16.0,  -14.0,  -12.7,   -0.7,   -1.1,   -1.4,   -3.0,   -6.5,   -5.9,   -6.0,   -6.3,   -7.6,   -6.9,   -6.9,   -6.0,   -7.2,   -7.5,   -8.1,   -8.3,   -9.9,  -10.3,   -4.3,   -7.6,   -4.1,   -7.1,   -7.7,   -7.4,   -4.9,   -1.9,   -8.5,   -7.5,   -7.8,   -7.1,   -7.9,   -7.6,   -7.9,   -7.0,   -5.6,   -5.8,   -5.2,   -4.1,   -4.0,   -3.9,   -3.8,   -5.3,   -5.5,   -3.3,   -3.2,   -2.3,   -2.6,   -1.9,   -0.2,    0.4,   -0.4,   -0.0,    0.2,    1.5,    0.8,    0.2,    0.6,    0.7,   -0.5,    0.3,    0.5,    0.3,    2.9,    3.1,    2.6,    2.6,    4.2,    4.7,    7.9,   10.4,   11.3,   12.4,    7.8,  999.0,    7.0,    7.6,    7.2,    4.4,  999.0,   -0.1,   -1.2,    0.2,   -1.3,   -1.4,   -0.7,   -0.2,    2.9,  999.0,   -2.2,   -3.6,   -2.4,  999.0,    0.1,  999.0,   -1.6,   -1.1,   -1.8,   -5.1,   -9.9,  -14.4,  -13.1,  999.0,  999.0,   -7.4,   -8.4,  -10.5,   -7.1,   -5.3,   -4.7,   -5.8,   -7.4,   -8.0,   -5.3,   -5.1,   -6.2
2020/01/31 22:05,  -17.8,  -16.0,  -16.2,  -13.8,   -9.1,   -0.5,   -0.9,   -2.8,   -6.8,  -10.0,   -5.1,   -8.3,   -7.5,   -8.5,   -6.2,   -5.6,   -5.3,   -6.6,   -6.7,   -7.2,   -7.7,   -8.9,   -9.1,   -3.5,   -7.3,   -5.2,   -6.9,   -6.7,   -6.1,   -3.6,   -6.4,   -7.2,   -6.9,   -6.3,   -5.8,   -6.5,   -5.9,   -6.1,   -5.1,   -4.4,   -5.0,   -4.7,   -4.0,   -3.8,   -3.2,   -4.4,   -5.6,   -5.8,   -4.5,   -3.4,   -2.7,   -2.9,   -2.1,   -0.5,   -0.8,   -1.6,   -0.6,   -0.3,   -0.1,    1.2,   -0.5,    0.3,    0.9,    0.5,    0.2,    0.4,    0.5,    1.8,    2.5,    3.7,    3.3,    4.9,    5.9,    7.6,   11.1,   10.8,  999.0,  999.0,  999.0,    4.3,    7.5,    6.6,    1.9,    1.2,    0.4,    1.1,  999.0,    0.8,   -0.9,   -0.8,    0.6,  999.0,   -4.8,   -1.5,   -3.3,   -2.3,   -1.5,   -0.8,  999.0,   -2.0,    1.4,   -1.1,   -5.0,   -9.6,  -13.3,  999.0,  999.0,  999.0,   -5.9,   -7.2,   -7.3,  999.0,   -4.9,   -3.7,   -4.6,   -5.8,   -6.5,   -7.2,   -5.5,   -4.7
2020/01/31 22:15,  -16.6,  -16.6,  -16.0,  -15.2,  -12.9,   -0.3,   -2.2,   -3.1,   -9.4,  -10.5,   -8.4,   -7.3,   -9.1,   -8.5,   -7.2,   -7.2,   -6.7,   -7.7,   -7.1,   -8.1,   -8.1,   -8.9,   -9.4,   -7.6,   -7.2,   -8.3,   -6.3,   -5.9,   -5.0,  999.0,  999.0,   -6.6,   -7.0,   -6.0,   -5.8,   -6.3,   -6.6,   -6.3,   -5.6,   -4.6,   -5.0,   -4.4,   -3.8,   -3.9,   -3.1,   -3.9,   -4.6,   -2.8,   -3.9,   -3.8,   -2.4,   -2.5,   -2.0,   -0.2,   -1.3,   -1.5,   -1.6,   -0.3,    0.4,    0.5,   -1.1,   -0.7,   -1.0,   -1.2,   -1.6,   -1.5,    0.0,    2.7,    2.1,    3.4,    1.6,    6.0,    5.9,    7.0,    8.5,   10.8,  999.0,  999.0,  999.0,    5.7,    7.6,    4.5,    3.4,    0.8,    1.0,  999.0,   -1.8,  999.0,   -0.6,    2.3,   -0.0,    1.2,    1.3,   -2.6,   -3.2,   -1.8,   -0.7,   -1.6,   -6.3,  999.0,    0.2,   -1.4,   -5.7,  -10.3,  -14.8,  -10.5,  999.0,  999.0,   -6.6,   -5.3,   -8.4,   -7.7,   -4.1,   -3.8,   -4.1,   -4.8,   -6.5,   -4.8,   -5.6,   -2.8
2020/01/31 22:25,  -15.7,  -14.7,  -14.9,  -16.2,  -14.8,   -4.0,   -1.2,   -3.8,   -9.3,  -10.4,   -5.3,   -8.1,   -8.6,   -8.6,   -8.0,   -7.5,   -7.4,   -7.3,   -7.7,   -8.6,   -9.1,   -9.6,   -9.5,   -9.2,   -8.7,   -8.2,   -6.4,   -5.7,   -5.9,  999.0,   -2.8,   -6.1,   -7.7,   -7.7,   -6.6,   -7.3,   -7.5,   -7.0,   -5.7,   -4.7,   -5.1,   -4.5,   -4.7,   -3.3,   -3.1,   -3.7,   -3.8,   -2.0,   -2.8,   -2.4,   -1.3,   -1.6,   -1.4,   -0.6,   -0.9,   -1.0,   -0.0,    0.9,    1.0,    0.5,   -0.8,   -0.1,    0.2,   -0.9,   -2.3,   -2.5,    0.3,    1.1,    2.9,    2.4,    2.4,    6.6,    6.5,    8.0,    9.6,   11.1,  999.0,  999.0,  999.0,  999.0,    6.8,    5.8,    4.0,    1.1,   -0.7,  999.0,   -1.1,   -1.1,   -2.0,   -1.0,    0.4,   -0.9,   -0.6,   -2.2,  999.0,   -1.5,   -0.5,   -2.0,   -1.9,  999.0,    2.7,   -0.6,   -4.8,   -8.4,  -12.6,  999.0,  999.0,   -9.3,   -5.2,   -2.8,   -3.8,  999.0,   -8.1,   -1.9,   -3.6,   -5.9,   -8.0,   -8.7,   -8.6,  999.0
2020/01/31 22:35,  -16.0,  -16.3,  -16.8,  -16.7,  -14.6,   -3.7,   -1.5,   -4.6,   -9.8,   -9.7,   -4.4,   -7.8,   -7.7,   -8.5,   -8.1,   -7.9,   -7.4,   -7.2,   -7.2,   -9.2,   -9.5,   -9.9,   -9.8,   -9.8,   -9.8,   -9.4,   -7.9,   -7.6,   -8.6,   -1.2,  999.0,   -8.8,   -9.0,   -8.8,   -7.9,   -8.1,   -9.2,   -8.5,   -7.5,   -5.7,   -5.8,   -5.4,   -5.6,   -3.9,   -4.0,   -4.2,   -4.4,   -2.3,   -3.1,   -2.2,   -1.3,   -2.7,   -2.9,   -1.7,   -1.8,   -1.2,   -0.4,    0.6,   -0.1,    0.4,   -0.6,    0.2,    0.9,   -0.8,   -2.5,   -2.0,    0.6,    0.8,    3.4,    2.9,    4.0,    5.6,    7.0,    8.0,   11.1,   10.8,  999.0,  999.0,  999.0,  999.0,    4.7,    5.9,    3.7,    1.3,    0.3,    0.9,    0.3,   -0.8,   -0.9,   -0.5,    1.2,   -0.5,   -0.7,   -2.8,   -1.6,   -1.6,   -0.5,   -0.9,  999.0,  999.0,    0.1,   -1.8,   -5.1,  -10.1,  -13.8,  999.0,  999.0,  -10.9,    1.9,   -2.5,  999.0,   -9.9,  999.0,  999.0,   -5.5,   -5.9,   -7.7,   -9.1,   -7.8,   -7.3
2020/01/31 22:45,  -16.1,  -17.2,  -16.6,  -16.7,  -14.6,   -0.6,   -0.9,   -8.8,  -11.1,   -7.9,   -1.4,   -4.3,   -4.5,   -9.1,   -9.0,   -8.5,   -7.7,   -7.2,   -7.3,  -10.1,   -9.7,  -10.0,  -10.4,   -7.9,   -8.5,   -8.3,   -7.7,   -8.1,   -9.2,   -2.5,  999.0,  -10.2,  -10.1,   -9.8,   -7.8,   -8.5,   -9.2,   -8.5,   -7.2,   -5.0,   -5.7,   -5.2,   -4.4,   -3.1,   -3.0,   -3.8,   -4.7,   -3.3,   -2.2,   -1.8,   -2.1,   -3.7,   -3.0,   -1.9,   -1.4,   -1.2,    0.1,    0.6,    1.3,   -0.3,   -0.1,    0.2,    0.6,   -0.8,   -1.3,    1.0,    1.9,    2.1,    3.1,    4.2,    4.2,    6.1,    7.1,    9.0,   11.0,   11.1,  999.0,  999.0,  999.0,  999.0,    6.3,    4.9,    3.5,    1.0,  999.0,  999.0,    0.2,    0.4,   -1.4,   -0.2,  999.0,   -0.2,   -3.3,   -3.1,   -0.7,   -2.0,   -0.2,   -1.4,   -3.2,  999.0,   -0.7,   -2.6,   -5.7,  -10.9,  -14.7,  999.0,  999.0,   -5.4,  999.0,   -3.9,   -4.2,  999.0,  999.0,   -4.8,   -6.5,   -9.0,   -6.2,   -9.2,   -8.5,   -6.9
2020/01/31 22:55,  -16.4,  -17.0,  -15.3,  -15.0,  -14.4,   -0.9,   -0.3,  -13.9,  -10.6,   -7.0,   -4.8,   -4.6,   -4.9,   -8.8,   -8.8,   -8.2,   -8.3,   -8.1,   -8.4,   -9.4,   -9.1,   -9.2,   -9.4,   -9.2,   -9.8,   -9.5,   -9.3,   -9.9,  -11.6,  999.0,  999.0,  -12.4,  -11.7,  -11.3,   -8.9,   -9.3,  -10.5,   -9.8,   -7.6,   -5.5,   -6.1,   -5.0,   -4.7,   -2.9,   -3.6,   -4.5,   -5.7,   -3.6,   -3.0,   -2.7,   -2.4,   -2.7,   -2.7,   -1.9,   -2.6,   -1.8,    0.9,    0.4,   -0.0,    1.1,   -0.2,   -1.2,   -0.8,   -2.3,   -1.8,    0.8,    1.1,    1.7,    2.9,    2.8,    4.6,    4.2,    6.2,    7.7,   10.4,   11.4,  999.0,  999.0,  999.0,  999.0,  999.0,    5.5,    5.0,    1.0,   -0.9,   -3.9,   -4.8,   -1.4,   -1.7,   -1.6,   -1.9,   -3.2,   -2.7,   -5.5,   -2.7,   -2.5,   -2.4,   -0.8,   -3.0,    0.4,   -0.3,   -3.1,   -8.1,  -12.5,  -16.1,  999.0,  999.0,  999.0,  999.0,   -3.3,   -5.0,   -6.6,   -8.6,   -7.3,   -5.9,   -8.6,   -9.4,   -6.7,   -5.7,   -4.1
2020/01/31 23:05,  -14.5,  -15.6,  -15.6,  -14.2,  -12.4,   -6.0,   -0.3,   -3.1,  -11.0,   -9.8,   -5.7,   -8.5,   -7.7,   -9.0,   -8.5,   -7.2,   -6.9,   -7.0,   -7.5,   -8.1,   -8.1,   -8.3,   -8.3,   -8.9,   -9.3,   -8.9,   -8.4,   -8.6,  -10.9,   -8.9,  999.0,  -11.7,  -10.9,  -10.2,   -8.5,   -9.1,   -9.1,   -8.5,   -7.6,   -5.9,   -5.4,   -5.6,   -5.3,   -3.4,   -4.0,   -5.1,   -6.2,   -4.6,   -4.2,   -3.8,   -3.3,   -3.4,   -3.1,   -2.5,   -3.0,   -2.8,   -1.8,   -0.3,   -0.7,   -0.8,   -1.6,   -1.3,   -0.5,   -1.2,   -1.3,    0.6,    1.5,    1.5,    1.0,    2.0,    2.0,    2.8,    5.0,    6.7,    7.0,    8.7,  999.0,    7.5,    5.1,  999.0,   -3.2,    5.3,    4.0,    1.7,   -0.5,   -3.0,   -2.9,   -4.8,   -1.7,   -2.6,   -0.8,   -1.4,   -2.8,   -3.4,   -3.2,   -4.2,   -1.6,   -0.3,  999.0,   -1.6,    0.0,   -3.9,   -8.2,  -12.3,  -15.1,  999.0,  999.0,  999.0,   -7.4,  999.0,   -3.4,   -6.4,   -9.2,   -3.9,   -4.5,   -7.2,  -11.2,   -7.9,   -8.5,   -8.1
2020/01/31 23:15,  -17.9,  -19.2,  -19.0,  -17.0,  -13.5,   -2.0,   -1.7,   -4.7,  -12.2,  -10.4,   -8.4,   -8.5,   -5.6,   -7.9,   -7.9,   -7.2,   -7.3,   -8.2,   -8.9,  -10.0,   -9.5,   -8.4,   -8.1,   -8.1,   -8.7,   -6.7,   -6.0,   -6.3,   -8.3,  999.0,  999.0,   -9.2,   -8.3,   -8.1,   -7.0,   -7.2,   -7.6,   -7.5,   -6.5,   -5.4,   -4.3,   -5.0,   -4.9,   -3.3,   -3.4,   -4.0,   -6.2,   -5.4,   -4.0,   -3.1,   -1.5,   -2.6,   -1.9,   -2.5,   -2.8,   -1.2,    0.0,    1.3,    1.0,   -1.4,   -2.1,   -1.2,   -0.6,   -1.7,   -0.4,    2.2,    1.7,    1.2,    1.8,    1.5,    0.6,    1.5,    4.5,    7.8,    8.2,    9.7,   12.0,    7.4,    6.8,  999.0,    5.5,    6.4,    3.7,    1.4,   -0.0,   -0.5,   -2.3,   -1.8,   -1.2,   -1.6,   -0.4,    1.6,   -2.9,   -3.3,   -2.7,   -2.6,   -0.7,   -0.6,  999.0,  999.0,   -1.8,   -4.6,   -9.9,  -13.1,  -17.2,  999.0,  999.0,  999.0,  999.0,  999.0,   -2.2,   -5.6,   -8.6,   -8.2,   -4.1,   -3.2,  999.0,  999.0,   -7.7,   -7.1
2020/01/31 23:25,  -16.9,  -18.1,  -17.3,  -15.7,  -11.4,   -1.3,   -1.8,   -3.8,  -11.2,   -8.3,   -5.6,   -3.7,   -4.5,   -7.2,   -7.6,   -8.0,   -8.4,   -8.0,   -8.4,  -10.1,   -9.5,   -9.0,   -8.4,   -8.3,   -7.3,   -6.4,   -6.2,   -7.7,   -9.3,   -5.6,   -7.4,   -9.9,   -8.7,   -8.4,   -8.0,   -6.9,   -8.2,   -8.2,   -6.6,   -6.0,   -4.9,   -4.9,   -4.5,   -2.8,   -2.4,   -3.3,   -5.3,   -3.6,   -3.0,   -1.7,   -1.3,   -2.0,   -2.3,   -2.7,   -2.4,   -1.1,   -0.5,    0.3,    0.1,   -2.3,   -2.5,   -0.7,   -1.7,   -1.6,   -0.9,    0.9,    0.0,   -0.9,    1.1,    2.0,   -0.8,    1.9,    4.2,    6.9,    7.3,    8.8,   11.2,    5.2,  999.0,  999.0,    4.2,    5.0,    3.9,    2.7,    0.5,   -1.4,   -2.3,   -4.3,   -2.4,   -2.3,    0.6,  999.0,   -3.7,   -1.7,   -3.7,   -0.5,    0.5,  999.0,  999.0,    1.3,   -1.0,   -6.1,  -11.0,  -15.1,  999.0,  999.0,  -13.3,  999.0,  999.0,  999.0,  999.0,   -5.4,   -8.3,   -5.9,   -7.8,   -4.7,   -9.6,  999.0,   -7.7,   -7.6
2020/01/31 23:35,  -15.4,  -15.8,  -17.9,  -14.9,  -12.6,   -1.3,   -2.8,   -7.6,  -11.0,   -9.5,   -4.6,   -3.0,   -7.5,   -5.6,   -7.3,   -6.9,   -6.8,   -7.9,   -7.9,   -8.6,   -7.9,   -8.0,   -7.6,   -6.7,   -6.7,   -6.3,   -5.9,   -7.9,   -8.8,  999.0,   -9.2,  -10.3,   -8.8,   -8.7,   -8.5,   -7.9,   -7.7,   -8.7,   -6.9,   -5.8,   -4.6,   -4.2,   -3.8,   -3.0,   -2.7,   -3.3,   -4.7,   -3.6,   -3.2,   -1.6,   -1.3,   -1.8,   -1.7,   -1.8,   -1.5,    0.4,    1.6,    1.8,    1.5,    0.2,    0.5,   -0.1,   -1.1,    0.4,    0.5,    0.9,    0.9,    0.6,    1.1,    1.8,   -0.3,    2.6,    4.5,    6.9,    8.1,    7.9,    9.7,    1.5,   12.3,  999.0,    3.7,    7.2,    3.9,    2.5,    0.5,   -0.8,   -1.0,   -0.8,   -1.3,   -1.3,   -0.4,   -4.2,   -3.8,   -3.3,   -2.5,   -0.0,   -1.2,   -1.7,  999.0,  999.0,   -2.9,   -5.6,  -10.3,  -14.5,  -20.1,  999.0,  999.0,  999.0,  999.0,  999.0,  999.0,   -6.1,   -8.8,  -11.3,   -4.5,   -4.8,   -5.6,  999.0,   -8.9,   -8.1
2020/01/31 23:45,  -14.5,  -14.3,  -15.8,  -15.2,  -12.5,    0.0,   -1.0,   -8.3,   -8.9,   -8.8,   -2.4,   -6.6,   -8.7,   -6.8,   -7.9,   -7.7,   -7.6,   -8.0,   -8.3,   -9.6,   -9.2,   -8.5,   -8.9,   -7.8,   -8.2,   -8.3,   -9.1,  -10.8,  -11.9,  999.0,  999.0,  -11.9,  -11.8,  -11.0,  -10.7,   -8.4,   -7.6,   -8.6,   -7.5,   -5.9,   -5.2,   -4.1,   -4.1,   -3.5,   -3.0,   -3.9,   -5.3,   -2.6,   -2.8,   -1.1,   -1.0,   -2.2,   -1.6,   -2.7,   -2.1,    0.4,    2.0,    3.0,    1.7,    0.8,    1.9,   -0.1,   -0.6,    0.6,    0.1,    0.5,    0.2,   -0.0,   -0.5,   -0.5,   -0.3,    4.0,    5.7,    6.4,    7.9,    8.0,    9.4,    8.0,  999.0,  999.0,    7.3,    6.7,    4.5,    0.1,    0.2,   -0.5,   -0.8,    0.7,   -0.0,   -1.0,    0.3,   -2.9,   -2.5,   -2.6,   -1.0,    0.3,   -1.0,    0.1,    1.8,  999.0,   -0.4,   -3.3,   -8.0,  -11.6,  -12.9,  999.0,  999.0,  999.0,  999.0,  999.0,  999.0,  999.0,   -7.2,   -9.4,  999.0,   -5.7,   -6.0,  999.0,   -7.8,   -8.6
2020/01/31 23:55,  -15.0,  -15.6,  -16.4,  -16.1,  -14.9,   -0.2,   -2.7,   -9.3,   -5.2,   -7.9,   -1.7,   -5.6,   -3.8,   -5.6,   -6.4,   -6.3,   -6.1,   -6.1,   -7.5,   -7.8,   -7.9,   -8.6,   -9.5,   -7.6,   -8.9,   -9.5,  -11.4,  -14.1,  -15.4,  999.0,  999.0,  -15.0,  -15.9,  -12.8,  -12.4,  -10.0,   -9.8,  -11.0,   -9.7,   -8.7,   -6.8,   -6.1,   -5.6,   -4.3,   -4.5,   -5.6,   -5.3,   -3.3,   -2.4,   -0.6,   -0.9,   -1.5,   -1.2,   -2.8,   -2.1,    0.4,    2.5,    2.1,    0.6,    1.1,    1.8,    0.4,    0.3,    0.2,    0.1,    1.0,   -0.1,   -1.1,   -1.3,   -0.7,    1.6,    2.2,    5.3,    5.7,    7.6,    7.9,    9.0,   11.0,  999.0,  999.0,    7.8,    7.3,    4.3,    1.7,    0.3,   -0.7,   -1.6,   -1.1,   -1.0,   -1.1,    0.9,   -2.1,   -0.8,   -2.1,   -3.2,   -1.0,    1.8,    1.1,   -0.0,    0.9,    0.4,   -3.1,   -6.7,  -11.1,  999.0,  999.0,  999.0,   -6.7,   -5.7,   -9.3,  999.0,  999.0,   -5.9,   -8.4,   -7.6,  999.0,   -7.2,  999.0,   -9.1,   -9.6
